<?xml version="1.0" encoding="UTF-8"?>
<gpx xmlns="http://www.topografix.com/GPX/1/1" xmlns:gpxx="http://www.garmin.com/xmlschemas/GpxExtensions/v3" xmlns:gpxtpx="http://www.garmin.com/xmlschemas/TrackPointExtension/v1" version="1.1" creator="Beste-Radtouren-Beatrice - https://beste-radtouren.de">
  <metadata>
    <name>W8 ab Tempelhof, T-Feld, TeltowKanal, Britzer Zweigkanal</name>
    <time>2025-08-16T15:01:41.764Z</time>
    <bounds minlat="52.453800000" minlon="13.384840000" maxlat="52.471530000" maxlon="13.493710000"/>
  </metadata>
  <trk>
    <name>Wanderung ab Tempelhof, T-Feld, TeltowKanal, Britzer Zweigkanal</name>
    <trkseg>
    
      <trkpt lat="52.470960000" lon="13.385460000">
        <ele>39</ele>
        <time>2025-08-16T12:39:03Z</time>
      </trkpt>
      <trkpt lat="52.470910000" lon="13.385510000">
        <ele>39</ele>
        <time>2025-08-16T12:39:05Z</time>
      </trkpt>
      <trkpt lat="52.470900000" lon="13.385580000">
        <ele>39</ele>
        <time>2025-08-16T12:39:17Z</time>
      </trkpt>
      <trkpt lat="52.470900000" lon="13.385660000">
        <ele>39</ele>
        <time>2025-08-16T12:39:21Z</time>
      </trkpt>
      <trkpt lat="52.470910000" lon="13.385730000">
        <ele>39</ele>
        <time>2025-08-16T12:39:27Z</time>
      </trkpt>
      <trkpt lat="52.470930000" lon="13.385820000">
        <ele>39</ele>
        <time>2025-08-16T12:39:32Z</time>
      </trkpt>
      <trkpt lat="52.470960000" lon="13.385900000">
        <ele>39</ele>
        <time>2025-08-16T12:39:36Z</time>
      </trkpt>
      <trkpt lat="52.471000000" lon="13.385900000">
        <ele>40</ele>
        <time>2025-08-16T12:39:39Z</time>
      </trkpt>
      <trkpt lat="52.471060000" lon="13.385910000">
        <ele>40</ele>
        <time>2025-08-16T12:39:43Z</time>
      </trkpt>
      <trkpt lat="52.471100000" lon="13.385940000">
        <ele>40</ele>
        <time>2025-08-16T12:39:48Z</time>
      </trkpt>
      <trkpt lat="52.471160000" lon="13.385950000">
        <ele>40</ele>
        <time>2025-08-16T12:39:52Z</time>
      </trkpt>
      <trkpt lat="52.471210000" lon="13.385970000">
        <ele>40</ele>
        <time>2025-08-16T12:39:56Z</time>
      </trkpt>
      <trkpt lat="52.471260000" lon="13.385980000">
        <ele>40</ele>
        <time>2025-08-16T12:40:00Z</time>
      </trkpt>
      <trkpt lat="52.471310000" lon="13.385990000">
        <ele>40</ele>
        <time>2025-08-16T12:40:04Z</time>
      </trkpt>
      <trkpt lat="52.471370000" lon="13.385990000">
        <ele>40</ele>
        <time>2025-08-16T12:40:08Z</time>
      </trkpt>
      <trkpt lat="52.471420000" lon="13.385980000">
        <ele>40</ele>
        <time>2025-08-16T12:40:11Z</time>
      </trkpt>
      <trkpt lat="52.471470000" lon="13.385980000">
        <ele>40</ele>
        <time>2025-08-16T12:40:15Z</time>
      </trkpt>
      <trkpt lat="52.471510000" lon="13.386030000">
        <ele>40</ele>
        <time>2025-08-16T12:40:19Z</time>
      </trkpt>
      <trkpt lat="52.471530000" lon="13.386110000">
        <ele>40</ele>
        <time>2025-08-16T12:40:23Z</time>
      </trkpt>
      <trkpt lat="52.471530000" lon="13.386190000">
        <ele>40</ele>
        <time>2025-08-16T12:40:27Z</time>
      </trkpt>
      <trkpt lat="52.471530000" lon="13.386280000">
        <ele>40</ele>
        <time>2025-08-16T12:40:31Z</time>
      </trkpt>
      <trkpt lat="52.471530000" lon="13.386350000">
        <ele>40</ele>
        <time>2025-08-16T12:40:35Z</time>
      </trkpt>
      <trkpt lat="52.471530000" lon="13.386430000">
        <ele>41</ele>
        <time>2025-08-16T12:40:39Z</time>
      </trkpt>
      <trkpt lat="52.471530000" lon="13.386510000">
        <ele>41</ele>
        <time>2025-08-16T12:40:42Z</time>
      </trkpt>
      <trkpt lat="52.471520000" lon="13.386590000">
        <ele>41</ele>
        <time>2025-08-16T12:40:46Z</time>
      </trkpt>
      <trkpt lat="52.471490000" lon="13.386650000">
        <ele>41</ele>
        <time>2025-08-16T12:40:49Z</time>
      </trkpt>
      <trkpt lat="52.471450000" lon="13.386700000">
        <ele>41</ele>
        <time>2025-08-16T12:40:53Z</time>
      </trkpt>
      <trkpt lat="52.471410000" lon="13.386740000">
        <ele>41</ele>
        <time>2025-08-16T12:40:57Z</time>
      </trkpt>
      <trkpt lat="52.471360000" lon="13.386790000">
        <ele>41</ele>
        <time>2025-08-16T12:41:01Z</time>
      </trkpt>
      <trkpt lat="52.471310000" lon="13.386850000">
        <ele>41</ele>
        <time>2025-08-16T12:41:05Z</time>
      </trkpt>
      <trkpt lat="52.471270000" lon="13.386910000">
        <ele>41</ele>
        <time>2025-08-16T12:41:09Z</time>
      </trkpt>
      <trkpt lat="52.471240000" lon="13.386950000">
        <ele>41</ele>
        <time>2025-08-16T12:41:13Z</time>
      </trkpt>
      <trkpt lat="52.471200000" lon="13.387010000">
        <ele>41</ele>
        <time>2025-08-16T12:41:17Z</time>
      </trkpt>
      <trkpt lat="52.471170000" lon="13.387080000">
        <ele>41</ele>
        <time>2025-08-16T12:41:21Z</time>
      </trkpt>
      <trkpt lat="52.471120000" lon="13.387140000">
        <ele>41</ele>
        <time>2025-08-16T12:41:25Z</time>
      </trkpt>
      <trkpt lat="52.471080000" lon="13.387210000">
        <ele>41</ele>
        <time>2025-08-16T12:41:29Z</time>
      </trkpt>
      <trkpt lat="52.471040000" lon="13.387280000">
        <ele>41</ele>
        <time>2025-08-16T12:41:33Z</time>
      </trkpt>
      <trkpt lat="52.471010000" lon="13.387360000">
        <ele>41</ele>
        <time>2025-08-16T12:41:37Z</time>
      </trkpt>
      <trkpt lat="52.470980000" lon="13.387440000">
        <ele>41</ele>
        <time>2025-08-16T12:41:41Z</time>
      </trkpt>
      <trkpt lat="52.470950000" lon="13.387510000">
        <ele>41</ele>
        <time>2025-08-16T12:41:44Z</time>
      </trkpt>
      <trkpt lat="52.470940000" lon="13.387580000">
        <ele>41</ele>
        <time>2025-08-16T12:41:47Z</time>
      </trkpt>
      <trkpt lat="52.470910000" lon="13.387660000">
        <ele>41</ele>
        <time>2025-08-16T12:41:51Z</time>
      </trkpt>
      <trkpt lat="52.470890000" lon="13.387740000">
        <ele>41</ele>
        <time>2025-08-16T12:41:54Z</time>
      </trkpt>
      <trkpt lat="52.470870000" lon="13.387830000">
        <ele>41</ele>
        <time>2025-08-16T12:41:58Z</time>
      </trkpt>
      <trkpt lat="52.470840000" lon="13.387920000">
        <ele>41</ele>
        <time>2025-08-16T12:42:02Z</time>
      </trkpt>
      <trkpt lat="52.470810000" lon="13.388010000">
        <ele>41</ele>
        <time>2025-08-16T12:42:06Z</time>
      </trkpt>
      <trkpt lat="52.470790000" lon="13.388080000">
        <ele>41</ele>
        <time>2025-08-16T12:42:09Z</time>
      </trkpt>
      <trkpt lat="52.470770000" lon="13.388150000">
        <ele>41</ele>
        <time>2025-08-16T12:42:12Z</time>
      </trkpt>
      <trkpt lat="52.470750000" lon="13.388220000">
        <ele>41</ele>
        <time>2025-08-16T12:42:15Z</time>
      </trkpt>
      <trkpt lat="52.470730000" lon="13.388300000">
        <ele>41</ele>
        <time>2025-08-16T12:42:19Z</time>
      </trkpt>
      <trkpt lat="52.470690000" lon="13.388380000">
        <ele>41</ele>
        <time>2025-08-16T12:42:23Z</time>
      </trkpt>
      <trkpt lat="52.470670000" lon="13.388450000">
        <ele>41</ele>
        <time>2025-08-16T12:42:26Z</time>
      </trkpt>
      <trkpt lat="52.470650000" lon="13.388530000">
        <ele>41</ele>
        <time>2025-08-16T12:42:30Z</time>
      </trkpt>
      <trkpt lat="52.470620000" lon="13.388620000">
        <ele>41</ele>
        <time>2025-08-16T12:42:34Z</time>
      </trkpt>
      <trkpt lat="52.470600000" lon="13.388700000">
        <ele>41</ele>
        <time>2025-08-16T12:42:38Z</time>
      </trkpt>
      <trkpt lat="52.470580000" lon="13.388780000">
        <ele>42</ele>
        <time>2025-08-16T12:42:41Z</time>
      </trkpt>
      <trkpt lat="52.470570000" lon="13.388850000">
        <ele>42</ele>
        <time>2025-08-16T12:42:44Z</time>
      </trkpt>
      <trkpt lat="52.470560000" lon="13.388950000">
        <ele>42</ele>
        <time>2025-08-16T12:42:48Z</time>
      </trkpt>
      <trkpt lat="52.470570000" lon="13.389020000">
        <ele>42</ele>
        <time>2025-08-16T12:42:51Z</time>
      </trkpt>
      <trkpt lat="52.470570000" lon="13.389110000">
        <ele>42</ele>
        <time>2025-08-16T12:42:55Z</time>
      </trkpt>
      <trkpt lat="52.470560000" lon="13.389190000">
        <ele>42</ele>
        <time>2025-08-16T12:42:58Z</time>
      </trkpt>
      <trkpt lat="52.470570000" lon="13.389280000">
        <ele>42</ele>
        <time>2025-08-16T12:43:02Z</time>
      </trkpt>
      <trkpt lat="52.470580000" lon="13.389360000">
        <ele>42</ele>
        <time>2025-08-16T12:43:05Z</time>
      </trkpt>
      <trkpt lat="52.470580000" lon="13.389440000">
        <ele>42</ele>
        <time>2025-08-16T12:43:09Z</time>
      </trkpt>
      <trkpt lat="52.470590000" lon="13.389530000">
        <ele>42</ele>
        <time>2025-08-16T12:43:13Z</time>
      </trkpt>
      <trkpt lat="52.470600000" lon="13.389630000">
        <ele>42</ele>
        <time>2025-08-16T12:43:17Z</time>
      </trkpt>
      <trkpt lat="52.470620000" lon="13.389720000">
        <ele>42</ele>
        <time>2025-08-16T12:43:21Z</time>
      </trkpt>
      <trkpt lat="52.470630000" lon="13.389800000">
        <ele>42</ele>
        <time>2025-08-16T12:43:24Z</time>
      </trkpt>
      <trkpt lat="52.470640000" lon="13.389880000">
        <ele>42</ele>
        <time>2025-08-16T12:43:28Z</time>
      </trkpt>
      <trkpt lat="52.470650000" lon="13.389970000">
        <ele>42</ele>
        <time>2025-08-16T12:43:32Z</time>
      </trkpt>
      <trkpt lat="52.470670000" lon="13.390070000">
        <ele>42</ele>
        <time>2025-08-16T12:43:36Z</time>
      </trkpt>
      <trkpt lat="52.470680000" lon="13.390150000">
        <ele>42</ele>
        <time>2025-08-16T12:43:40Z</time>
      </trkpt>
      <trkpt lat="52.470680000" lon="13.390240000">
        <ele>42</ele>
        <time>2025-08-16T12:43:44Z</time>
      </trkpt>
      <trkpt lat="52.470690000" lon="13.390340000">
        <ele>42</ele>
        <time>2025-08-16T12:43:48Z</time>
      </trkpt>
      <trkpt lat="52.470690000" lon="13.390420000">
        <ele>42</ele>
        <time>2025-08-16T12:43:52Z</time>
      </trkpt>
      <trkpt lat="52.470690000" lon="13.390520000">
        <ele>40</ele>
        <time>2025-08-16T12:43:56Z</time>
      </trkpt>
      <trkpt lat="52.470690000" lon="13.390600000">
        <ele>40</ele>
        <time>2025-08-16T12:43:59Z</time>
      </trkpt>
      <trkpt lat="52.470700000" lon="13.390680000">
        <ele>40</ele>
        <time>2025-08-16T12:44:02Z</time>
      </trkpt>
      <trkpt lat="52.470700000" lon="13.390760000">
        <ele>40</ele>
        <time>2025-08-16T12:44:05Z</time>
      </trkpt>
      <trkpt lat="52.470700000" lon="13.390840000">
        <ele>41</ele>
        <time>2025-08-16T12:44:09Z</time>
      </trkpt>
      <trkpt lat="52.470700000" lon="13.390930000">
        <ele>41</ele>
        <time>2025-08-16T12:44:13Z</time>
      </trkpt>
      <trkpt lat="52.470700000" lon="13.391030000">
        <ele>41</ele>
        <time>2025-08-16T12:44:20Z</time>
      </trkpt>
      <trkpt lat="52.470710000" lon="13.391100000">
        <ele>41</ele>
        <time>2025-08-16T12:44:26Z</time>
      </trkpt>
      <trkpt lat="52.470720000" lon="13.391190000">
        <ele>42</ele>
        <time>2025-08-16T12:44:30Z</time>
      </trkpt>
      <trkpt lat="52.470730000" lon="13.391280000">
        <ele>42</ele>
        <time>2025-08-16T12:44:34Z</time>
      </trkpt>
      <trkpt lat="52.470730000" lon="13.391360000">
        <ele>42</ele>
        <time>2025-08-16T12:44:38Z</time>
      </trkpt>
      <trkpt lat="52.470740000" lon="13.391460000">
        <ele>42</ele>
        <time>2025-08-16T12:44:42Z</time>
      </trkpt>
      <trkpt lat="52.470740000" lon="13.391550000">
        <ele>42</ele>
        <time>2025-08-16T12:44:46Z</time>
      </trkpt>
      <trkpt lat="52.470740000" lon="13.391640000">
        <ele>42</ele>
        <time>2025-08-16T12:44:50Z</time>
      </trkpt>
      <trkpt lat="52.470740000" lon="13.391730000">
        <ele>42</ele>
        <time>2025-08-16T12:44:54Z</time>
      </trkpt>
      <trkpt lat="52.470740000" lon="13.391820000">
        <ele>42</ele>
        <time>2025-08-16T12:44:58Z</time>
      </trkpt>
      <trkpt lat="52.470740000" lon="13.391910000">
        <ele>42</ele>
        <time>2025-08-16T12:45:02Z</time>
      </trkpt>
      <trkpt lat="52.470740000" lon="13.392000000">
        <ele>42</ele>
        <time>2025-08-16T12:45:06Z</time>
      </trkpt>
      <trkpt lat="52.470740000" lon="13.392080000">
        <ele>42</ele>
        <time>2025-08-16T12:45:09Z</time>
      </trkpt>
      <trkpt lat="52.470740000" lon="13.392170000">
        <ele>42</ele>
        <time>2025-08-16T12:45:13Z</time>
      </trkpt>
      <trkpt lat="52.470740000" lon="13.392270000">
        <ele>42</ele>
        <time>2025-08-16T12:45:17Z</time>
      </trkpt>
      <trkpt lat="52.470750000" lon="13.392370000">
        <ele>42</ele>
        <time>2025-08-16T12:45:21Z</time>
      </trkpt>
      <trkpt lat="52.470750000" lon="13.392460000">
        <ele>42</ele>
        <time>2025-08-16T12:45:25Z</time>
      </trkpt>
      <trkpt lat="52.470750000" lon="13.392530000">
        <ele>42</ele>
        <time>2025-08-16T12:45:28Z</time>
      </trkpt>
      <trkpt lat="52.470760000" lon="13.392620000">
        <ele>42</ele>
        <time>2025-08-16T12:45:32Z</time>
      </trkpt>
      <trkpt lat="52.470770000" lon="13.392730000">
        <ele>42</ele>
        <time>2025-08-16T12:45:36Z</time>
      </trkpt>
      <trkpt lat="52.470770000" lon="13.392810000">
        <ele>42</ele>
        <time>2025-08-16T12:45:40Z</time>
      </trkpt>
      <trkpt lat="52.470770000" lon="13.392890000">
        <ele>42</ele>
        <time>2025-08-16T12:45:43Z</time>
      </trkpt>
      <trkpt lat="52.470770000" lon="13.392980000">
        <ele>42</ele>
        <time>2025-08-16T12:45:47Z</time>
      </trkpt>
      <trkpt lat="52.470770000" lon="13.393080000">
        <ele>42</ele>
        <time>2025-08-16T12:45:51Z</time>
      </trkpt>
      <trkpt lat="52.470780000" lon="13.393180000">
        <ele>42</ele>
        <time>2025-08-16T12:45:55Z</time>
      </trkpt>
      <trkpt lat="52.470780000" lon="13.393270000">
        <ele>42</ele>
        <time>2025-08-16T12:45:59Z</time>
      </trkpt>
      <trkpt lat="52.470780000" lon="13.393340000">
        <ele>42</ele>
        <time>2025-08-16T12:46:02Z</time>
      </trkpt>
      <trkpt lat="52.470790000" lon="13.393430000">
        <ele>42</ele>
        <time>2025-08-16T12:46:06Z</time>
      </trkpt>
      <trkpt lat="52.470790000" lon="13.393520000">
        <ele>42</ele>
        <time>2025-08-16T12:46:10Z</time>
      </trkpt>
      <trkpt lat="52.470800000" lon="13.393610000">
        <ele>42</ele>
        <time>2025-08-16T12:46:14Z</time>
      </trkpt>
      <trkpt lat="52.470800000" lon="13.393710000">
        <ele>42</ele>
        <time>2025-08-16T12:46:18Z</time>
      </trkpt>
      <trkpt lat="52.470800000" lon="13.393780000">
        <ele>42</ele>
        <time>2025-08-16T12:46:21Z</time>
      </trkpt>
      <trkpt lat="52.470800000" lon="13.393870000">
        <ele>42</ele>
        <time>2025-08-16T12:46:25Z</time>
      </trkpt>
      <trkpt lat="52.470800000" lon="13.393940000">
        <ele>42</ele>
        <time>2025-08-16T12:46:28Z</time>
      </trkpt>
      <trkpt lat="52.470800000" lon="13.394030000">
        <ele>42</ele>
        <time>2025-08-16T12:46:32Z</time>
      </trkpt>
      <trkpt lat="52.470810000" lon="13.394110000">
        <ele>42</ele>
        <time>2025-08-16T12:46:35Z</time>
      </trkpt>
      <trkpt lat="52.470810000" lon="13.394190000">
        <ele>42</ele>
        <time>2025-08-16T12:46:39Z</time>
      </trkpt>
      <trkpt lat="52.470810000" lon="13.394270000">
        <ele>42</ele>
        <time>2025-08-16T12:46:42Z</time>
      </trkpt>
      <trkpt lat="52.470820000" lon="13.394350000">
        <ele>42</ele>
        <time>2025-08-16T12:46:46Z</time>
      </trkpt>
      <trkpt lat="52.470820000" lon="13.394430000">
        <ele>42</ele>
        <time>2025-08-16T12:46:49Z</time>
      </trkpt>
      <trkpt lat="52.470830000" lon="13.394530000">
        <ele>42</ele>
        <time>2025-08-16T12:46:53Z</time>
      </trkpt>
      <trkpt lat="52.470830000" lon="13.394620000">
        <ele>42</ele>
        <time>2025-08-16T12:46:57Z</time>
      </trkpt>
      <trkpt lat="52.470830000" lon="13.394710000">
        <ele>42</ele>
        <time>2025-08-16T12:47:01Z</time>
      </trkpt>
      <trkpt lat="52.470830000" lon="13.394800000">
        <ele>42</ele>
        <time>2025-08-16T12:47:05Z</time>
      </trkpt>
      <trkpt lat="52.470830000" lon="13.394880000">
        <ele>42</ele>
        <time>2025-08-16T12:47:08Z</time>
      </trkpt>
      <trkpt lat="52.470840000" lon="13.394970000">
        <ele>42</ele>
        <time>2025-08-16T12:47:12Z</time>
      </trkpt>
      <trkpt lat="52.470840000" lon="13.395060000">
        <ele>42</ele>
        <time>2025-08-16T12:47:16Z</time>
      </trkpt>
      <trkpt lat="52.470840000" lon="13.395150000">
        <ele>42</ele>
        <time>2025-08-16T12:47:20Z</time>
      </trkpt>
      <trkpt lat="52.470850000" lon="13.395230000">
        <ele>42</ele>
        <time>2025-08-16T12:47:23Z</time>
      </trkpt>
      <trkpt lat="52.470850000" lon="13.395320000">
        <ele>42</ele>
        <time>2025-08-16T12:47:27Z</time>
      </trkpt>
      <trkpt lat="52.470850000" lon="13.395400000">
        <ele>42</ele>
        <time>2025-08-16T12:47:30Z</time>
      </trkpt>
      <trkpt lat="52.470860000" lon="13.395480000">
        <ele>42</ele>
        <time>2025-08-16T12:47:34Z</time>
      </trkpt>
      <trkpt lat="52.470870000" lon="13.395560000">
        <ele>42</ele>
        <time>2025-08-16T12:47:37Z</time>
      </trkpt>
      <trkpt lat="52.470860000" lon="13.395650000">
        <ele>42</ele>
        <time>2025-08-16T12:47:41Z</time>
      </trkpt>
      <trkpt lat="52.470860000" lon="13.395750000">
        <ele>42</ele>
        <time>2025-08-16T12:47:45Z</time>
      </trkpt>
      <trkpt lat="52.470860000" lon="13.395820000">
        <ele>43</ele>
        <time>2025-08-16T12:47:48Z</time>
      </trkpt>
      <trkpt lat="52.470870000" lon="13.395920000">
        <ele>43</ele>
        <time>2025-08-16T12:47:52Z</time>
      </trkpt>
      <trkpt lat="52.470870000" lon="13.396010000">
        <ele>43</ele>
        <time>2025-08-16T12:47:55Z</time>
      </trkpt>
      <trkpt lat="52.470870000" lon="13.396100000">
        <ele>43</ele>
        <time>2025-08-16T12:47:59Z</time>
      </trkpt>
      <trkpt lat="52.470880000" lon="13.396170000">
        <ele>43</ele>
        <time>2025-08-16T12:48:02Z</time>
      </trkpt>
      <trkpt lat="52.470880000" lon="13.396270000">
        <ele>43</ele>
        <time>2025-08-16T12:48:06Z</time>
      </trkpt>
      <trkpt lat="52.470890000" lon="13.396360000">
        <ele>43</ele>
        <time>2025-08-16T12:48:10Z</time>
      </trkpt>
      <trkpt lat="52.470900000" lon="13.396440000">
        <ele>43</ele>
        <time>2025-08-16T12:48:13Z</time>
      </trkpt>
      <trkpt lat="52.470900000" lon="13.396530000">
        <ele>43</ele>
        <time>2025-08-16T12:48:17Z</time>
      </trkpt>
      <trkpt lat="52.470900000" lon="13.396610000">
        <ele>43</ele>
        <time>2025-08-16T12:48:20Z</time>
      </trkpt>
      <trkpt lat="52.470910000" lon="13.396680000">
        <ele>43</ele>
        <time>2025-08-16T12:48:23Z</time>
      </trkpt>
      <trkpt lat="52.470910000" lon="13.396770000">
        <ele>43</ele>
        <time>2025-08-16T12:48:27Z</time>
      </trkpt>
      <trkpt lat="52.470910000" lon="13.396860000">
        <ele>43</ele>
        <time>2025-08-16T12:48:31Z</time>
      </trkpt>
      <trkpt lat="52.470920000" lon="13.396940000">
        <ele>43</ele>
        <time>2025-08-16T12:48:34Z</time>
      </trkpt>
      <trkpt lat="52.470920000" lon="13.397040000">
        <ele>43</ele>
        <time>2025-08-16T12:48:38Z</time>
      </trkpt>
      <trkpt lat="52.470930000" lon="13.397130000">
        <ele>43</ele>
        <time>2025-08-16T12:48:42Z</time>
      </trkpt>
      <trkpt lat="52.470930000" lon="13.397230000">
        <ele>43</ele>
        <time>2025-08-16T12:48:46Z</time>
      </trkpt>
      <trkpt lat="52.470920000" lon="13.397300000">
        <ele>43</ele>
        <time>2025-08-16T12:48:49Z</time>
      </trkpt>
      <trkpt lat="52.470920000" lon="13.397380000">
        <ele>43</ele>
        <time>2025-08-16T12:48:52Z</time>
      </trkpt>
      <trkpt lat="52.470920000" lon="13.397460000">
        <ele>43</ele>
        <time>2025-08-16T12:48:56Z</time>
      </trkpt>
      <trkpt lat="52.470920000" lon="13.397560000">
        <ele>43</ele>
        <time>2025-08-16T12:49:00Z</time>
      </trkpt>
      <trkpt lat="52.470930000" lon="13.397630000">
        <ele>43</ele>
        <time>2025-08-16T12:49:03Z</time>
      </trkpt>
      <trkpt lat="52.470930000" lon="13.397720000">
        <ele>43</ele>
        <time>2025-08-16T12:49:07Z</time>
      </trkpt>
      <trkpt lat="52.470930000" lon="13.397820000">
        <ele>43</ele>
        <time>2025-08-16T12:49:11Z</time>
      </trkpt>
      <trkpt lat="52.470930000" lon="13.397910000">
        <ele>43</ele>
        <time>2025-08-16T12:49:15Z</time>
      </trkpt>
      <trkpt lat="52.470930000" lon="13.397990000">
        <ele>43</ele>
        <time>2025-08-16T12:49:18Z</time>
      </trkpt>
      <trkpt lat="52.470930000" lon="13.398070000">
        <ele>43</ele>
        <time>2025-08-16T12:49:21Z</time>
      </trkpt>
      <trkpt lat="52.470940000" lon="13.398160000">
        <ele>43</ele>
        <time>2025-08-16T12:49:25Z</time>
      </trkpt>
      <trkpt lat="52.470940000" lon="13.398250000">
        <ele>43</ele>
        <time>2025-08-16T12:49:29Z</time>
      </trkpt>
      <trkpt lat="52.470940000" lon="13.398340000">
        <ele>43</ele>
        <time>2025-08-16T12:49:33Z</time>
      </trkpt>
      <trkpt lat="52.470950000" lon="13.398440000">
        <ele>43</ele>
        <time>2025-08-16T12:49:37Z</time>
      </trkpt>
      <trkpt lat="52.470950000" lon="13.398520000">
        <ele>43</ele>
        <time>2025-08-16T12:49:41Z</time>
      </trkpt>
      <trkpt lat="52.470950000" lon="13.398600000">
        <ele>43</ele>
        <time>2025-08-16T12:49:44Z</time>
      </trkpt>
      <trkpt lat="52.470960000" lon="13.398670000">
        <ele>43</ele>
        <time>2025-08-16T12:49:47Z</time>
      </trkpt>
      <trkpt lat="52.470960000" lon="13.398760000">
        <ele>43</ele>
        <time>2025-08-16T12:49:51Z</time>
      </trkpt>
      <trkpt lat="52.470960000" lon="13.398850000">
        <ele>43</ele>
        <time>2025-08-16T12:49:55Z</time>
      </trkpt>
      <trkpt lat="52.470960000" lon="13.398950000">
        <ele>43</ele>
        <time>2025-08-16T12:49:59Z</time>
      </trkpt>
      <trkpt lat="52.470970000" lon="13.399060000">
        <ele>43</ele>
        <time>2025-08-16T12:50:03Z</time>
      </trkpt>
      <trkpt lat="52.470960000" lon="13.399140000">
        <ele>43</ele>
        <time>2025-08-16T12:50:07Z</time>
      </trkpt>
      <trkpt lat="52.470970000" lon="13.399240000">
        <ele>43</ele>
        <time>2025-08-16T12:50:11Z</time>
      </trkpt>
      <trkpt lat="52.470970000" lon="13.399330000">
        <ele>43</ele>
        <time>2025-08-16T12:50:15Z</time>
      </trkpt>
      <trkpt lat="52.470980000" lon="13.399430000">
        <ele>43</ele>
        <time>2025-08-16T12:50:19Z</time>
      </trkpt>
      <trkpt lat="52.470980000" lon="13.399520000">
        <ele>43</ele>
        <time>2025-08-16T12:50:23Z</time>
      </trkpt>
      <trkpt lat="52.470990000" lon="13.399600000">
        <ele>43</ele>
        <time>2025-08-16T12:50:27Z</time>
      </trkpt>
      <trkpt lat="52.470990000" lon="13.399680000">
        <ele>43</ele>
        <time>2025-08-16T12:50:30Z</time>
      </trkpt>
      <trkpt lat="52.470990000" lon="13.399780000">
        <ele>43</ele>
        <time>2025-08-16T12:50:34Z</time>
      </trkpt>
      <trkpt lat="52.471000000" lon="13.399870000">
        <ele>43</ele>
        <time>2025-08-16T12:50:38Z</time>
      </trkpt>
      <trkpt lat="52.471000000" lon="13.399970000">
        <ele>43</ele>
        <time>2025-08-16T12:50:42Z</time>
      </trkpt>
      <trkpt lat="52.471010000" lon="13.400060000">
        <ele>43</ele>
        <time>2025-08-16T12:50:46Z</time>
      </trkpt>
      <trkpt lat="52.471010000" lon="13.400150000">
        <ele>43</ele>
        <time>2025-08-16T12:50:50Z</time>
      </trkpt>
      <trkpt lat="52.471010000" lon="13.400230000">
        <ele>43</ele>
        <time>2025-08-16T12:50:53Z</time>
      </trkpt>
      <trkpt lat="52.471010000" lon="13.400320000">
        <ele>43</ele>
        <time>2025-08-16T12:50:57Z</time>
      </trkpt>
      <trkpt lat="52.471010000" lon="13.400410000">
        <ele>43</ele>
        <time>2025-08-16T12:51:01Z</time>
      </trkpt>
      <trkpt lat="52.471010000" lon="13.400510000">
        <ele>43</ele>
        <time>2025-08-16T12:51:05Z</time>
      </trkpt>
      <trkpt lat="52.471020000" lon="13.400590000">
        <ele>43</ele>
        <time>2025-08-16T12:51:09Z</time>
      </trkpt>
      <trkpt lat="52.471020000" lon="13.400670000">
        <ele>43</ele>
        <time>2025-08-16T12:51:12Z</time>
      </trkpt>
      <trkpt lat="52.471020000" lon="13.400750000">
        <ele>43</ele>
        <time>2025-08-16T12:51:16Z</time>
      </trkpt>
      <trkpt lat="52.471020000" lon="13.400830000">
        <ele>43</ele>
        <time>2025-08-16T12:51:19Z</time>
      </trkpt>
      <trkpt lat="52.471030000" lon="13.400910000">
        <ele>43</ele>
        <time>2025-08-16T12:51:22Z</time>
      </trkpt>
      <trkpt lat="52.471030000" lon="13.400990000">
        <ele>43</ele>
        <time>2025-08-16T12:51:26Z</time>
      </trkpt>
      <trkpt lat="52.471030000" lon="13.401060000">
        <ele>43</ele>
        <time>2025-08-16T12:51:29Z</time>
      </trkpt>
      <trkpt lat="52.471030000" lon="13.401150000">
        <ele>43</ele>
        <time>2025-08-16T12:51:33Z</time>
      </trkpt>
      <trkpt lat="52.471020000" lon="13.401250000">
        <ele>43</ele>
        <time>2025-08-16T12:51:37Z</time>
      </trkpt>
      <trkpt lat="52.471030000" lon="13.401350000">
        <ele>43</ele>
        <time>2025-08-16T12:51:41Z</time>
      </trkpt>
      <trkpt lat="52.471020000" lon="13.401440000">
        <ele>43</ele>
        <time>2025-08-16T12:51:45Z</time>
      </trkpt>
      <trkpt lat="52.471020000" lon="13.401540000">
        <ele>43</ele>
        <time>2025-08-16T12:51:49Z</time>
      </trkpt>
      <trkpt lat="52.471020000" lon="13.401620000">
        <ele>43</ele>
        <time>2025-08-16T12:51:53Z</time>
      </trkpt>
      <trkpt lat="52.471020000" lon="13.401700000">
        <ele>43</ele>
        <time>2025-08-16T12:51:56Z</time>
      </trkpt>
      <trkpt lat="52.471030000" lon="13.401780000">
        <ele>43</ele>
        <time>2025-08-16T12:51:59Z</time>
      </trkpt>
      <trkpt lat="52.471020000" lon="13.401860000">
        <ele>43</ele>
        <time>2025-08-16T12:52:03Z</time>
      </trkpt>
      <trkpt lat="52.471020000" lon="13.401960000">
        <ele>43</ele>
        <time>2025-08-16T12:52:07Z</time>
      </trkpt>
      <trkpt lat="52.471020000" lon="13.402030000">
        <ele>43</ele>
        <time>2025-08-16T12:52:10Z</time>
      </trkpt>
      <trkpt lat="52.471030000" lon="13.402140000">
        <ele>43</ele>
        <time>2025-08-16T12:52:14Z</time>
      </trkpt>
      <trkpt lat="52.471030000" lon="13.402220000">
        <ele>43</ele>
        <time>2025-08-16T12:52:18Z</time>
      </trkpt>
      <trkpt lat="52.471030000" lon="13.402310000">
        <ele>43</ele>
        <time>2025-08-16T12:52:22Z</time>
      </trkpt>
      <trkpt lat="52.471040000" lon="13.402400000">
        <ele>43</ele>
        <time>2025-08-16T12:52:26Z</time>
      </trkpt>
      <trkpt lat="52.471040000" lon="13.402490000">
        <ele>43</ele>
        <time>2025-08-16T12:52:30Z</time>
      </trkpt>
      <trkpt lat="52.471040000" lon="13.402570000">
        <ele>43</ele>
        <time>2025-08-16T12:52:33Z</time>
      </trkpt>
      <trkpt lat="52.471050000" lon="13.402670000">
        <ele>43</ele>
        <time>2025-08-16T12:52:37Z</time>
      </trkpt>
      <trkpt lat="52.471050000" lon="13.402750000">
        <ele>43</ele>
        <time>2025-08-16T12:52:41Z</time>
      </trkpt>
      <trkpt lat="52.471050000" lon="13.402830000">
        <ele>43</ele>
        <time>2025-08-16T12:52:44Z</time>
      </trkpt>
      <trkpt lat="52.471050000" lon="13.402920000">
        <ele>43</ele>
        <time>2025-08-16T12:52:48Z</time>
      </trkpt>
      <trkpt lat="52.471060000" lon="13.403010000">
        <ele>43</ele>
        <time>2025-08-16T12:52:52Z</time>
      </trkpt>
      <trkpt lat="52.471060000" lon="13.403100000">
        <ele>43</ele>
        <time>2025-08-16T12:52:56Z</time>
      </trkpt>
      <trkpt lat="52.471060000" lon="13.403190000">
        <ele>43</ele>
        <time>2025-08-16T12:53:00Z</time>
      </trkpt>
      <trkpt lat="52.471060000" lon="13.403270000">
        <ele>44</ele>
        <time>2025-08-16T12:53:04Z</time>
      </trkpt>
      <trkpt lat="52.471060000" lon="13.403370000">
        <ele>44</ele>
        <time>2025-08-16T12:53:08Z</time>
      </trkpt>
      <trkpt lat="52.471060000" lon="13.403460000">
        <ele>44</ele>
        <time>2025-08-16T12:53:12Z</time>
      </trkpt>
      <trkpt lat="52.471070000" lon="13.403540000">
        <ele>44</ele>
        <time>2025-08-16T12:53:15Z</time>
      </trkpt>
      <trkpt lat="52.471070000" lon="13.403610000">
        <ele>44</ele>
        <time>2025-08-16T12:53:19Z</time>
      </trkpt>
      <trkpt lat="52.471070000" lon="13.403710000">
        <ele>44</ele>
        <time>2025-08-16T12:53:23Z</time>
      </trkpt>
      <trkpt lat="52.471070000" lon="13.403790000">
        <ele>44</ele>
        <time>2025-08-16T12:53:27Z</time>
      </trkpt>
      <trkpt lat="52.471070000" lon="13.403870000">
        <ele>44</ele>
        <time>2025-08-16T12:53:30Z</time>
      </trkpt>
      <trkpt lat="52.471070000" lon="13.403960000">
        <ele>44</ele>
        <time>2025-08-16T12:53:34Z</time>
      </trkpt>
      <trkpt lat="52.471070000" lon="13.404050000">
        <ele>44</ele>
        <time>2025-08-16T12:53:38Z</time>
      </trkpt>
      <trkpt lat="52.471070000" lon="13.404150000">
        <ele>44</ele>
        <time>2025-08-16T12:53:42Z</time>
      </trkpt>
      <trkpt lat="52.471070000" lon="13.404240000">
        <ele>44</ele>
        <time>2025-08-16T12:53:46Z</time>
      </trkpt>
      <trkpt lat="52.471070000" lon="13.404320000">
        <ele>44</ele>
        <time>2025-08-16T12:53:50Z</time>
      </trkpt>
      <trkpt lat="52.471070000" lon="13.404420000">
        <ele>44</ele>
        <time>2025-08-16T12:53:54Z</time>
      </trkpt>
      <trkpt lat="52.471070000" lon="13.404510000">
        <ele>44</ele>
        <time>2025-08-16T12:53:58Z</time>
      </trkpt>
      <trkpt lat="52.471060000" lon="13.404580000">
        <ele>44</ele>
        <time>2025-08-16T12:54:01Z</time>
      </trkpt>
      <trkpt lat="52.471060000" lon="13.404660000">
        <ele>44</ele>
        <time>2025-08-16T12:54:05Z</time>
      </trkpt>
      <trkpt lat="52.471060000" lon="13.404740000">
        <ele>44</ele>
        <time>2025-08-16T12:54:08Z</time>
      </trkpt>
      <trkpt lat="52.471070000" lon="13.404820000">
        <ele>44</ele>
        <time>2025-08-16T12:54:11Z</time>
      </trkpt>
      <trkpt lat="52.471070000" lon="13.404900000">
        <ele>44</ele>
        <time>2025-08-16T12:54:15Z</time>
      </trkpt>
      <trkpt lat="52.471070000" lon="13.404990000">
        <ele>44</ele>
        <time>2025-08-16T12:54:18Z</time>
      </trkpt>
      <trkpt lat="52.471080000" lon="13.405070000">
        <ele>44</ele>
        <time>2025-08-16T12:54:22Z</time>
      </trkpt>
      <trkpt lat="52.471070000" lon="13.405140000">
        <ele>44</ele>
        <time>2025-08-16T12:54:25Z</time>
      </trkpt>
      <trkpt lat="52.471070000" lon="13.405230000">
        <ele>44</ele>
        <time>2025-08-16T12:54:29Z</time>
      </trkpt>
      <trkpt lat="52.471060000" lon="13.405320000">
        <ele>44</ele>
        <time>2025-08-16T12:54:33Z</time>
      </trkpt>
      <trkpt lat="52.471060000" lon="13.405400000">
        <ele>44</ele>
        <time>2025-08-16T12:54:36Z</time>
      </trkpt>
      <trkpt lat="52.471060000" lon="13.405480000">
        <ele>44</ele>
        <time>2025-08-16T12:54:40Z</time>
      </trkpt>
      <trkpt lat="52.471060000" lon="13.405580000">
        <ele>44</ele>
        <time>2025-08-16T12:54:44Z</time>
      </trkpt>
      <trkpt lat="52.471070000" lon="13.405660000">
        <ele>44</ele>
        <time>2025-08-16T12:54:48Z</time>
      </trkpt>
      <trkpt lat="52.471070000" lon="13.405740000">
        <ele>44</ele>
        <time>2025-08-16T12:54:51Z</time>
      </trkpt>
      <trkpt lat="52.471070000" lon="13.405810000">
        <ele>44</ele>
        <time>2025-08-16T12:54:54Z</time>
      </trkpt>
      <trkpt lat="52.471070000" lon="13.405890000">
        <ele>44</ele>
        <time>2025-08-16T12:54:57Z</time>
      </trkpt>
      <trkpt lat="52.471070000" lon="13.405960000">
        <ele>44</ele>
        <time>2025-08-16T12:55:00Z</time>
      </trkpt>
      <trkpt lat="52.471070000" lon="13.406050000">
        <ele>44</ele>
        <time>2025-08-16T12:55:04Z</time>
      </trkpt>
      <trkpt lat="52.471070000" lon="13.406140000">
        <ele>44</ele>
        <time>2025-08-16T12:55:08Z</time>
      </trkpt>
      <trkpt lat="52.471060000" lon="13.406240000">
        <ele>44</ele>
        <time>2025-08-16T12:55:12Z</time>
      </trkpt>
      <trkpt lat="52.471060000" lon="13.406320000">
        <ele>44</ele>
        <time>2025-08-16T12:55:16Z</time>
      </trkpt>
      <trkpt lat="52.471070000" lon="13.406410000">
        <ele>44</ele>
        <time>2025-08-16T12:55:20Z</time>
      </trkpt>
      <trkpt lat="52.471060000" lon="13.406510000">
        <ele>44</ele>
        <time>2025-08-16T12:55:24Z</time>
      </trkpt>
      <trkpt lat="52.471070000" lon="13.406600000">
        <ele>44</ele>
        <time>2025-08-16T12:55:28Z</time>
      </trkpt>
      <trkpt lat="52.471070000" lon="13.406680000">
        <ele>44</ele>
        <time>2025-08-16T12:55:31Z</time>
      </trkpt>
      <trkpt lat="52.471070000" lon="13.406770000">
        <ele>44</ele>
        <time>2025-08-16T12:55:35Z</time>
      </trkpt>
      <trkpt lat="52.471070000" lon="13.406850000">
        <ele>44</ele>
        <time>2025-08-16T12:55:39Z</time>
      </trkpt>
      <trkpt lat="52.471070000" lon="13.406930000">
        <ele>44</ele>
        <time>2025-08-16T12:55:42Z</time>
      </trkpt>
      <trkpt lat="52.471070000" lon="13.407000000">
        <ele>44</ele>
        <time>2025-08-16T12:55:45Z</time>
      </trkpt>
      <trkpt lat="52.471070000" lon="13.407090000">
        <ele>45</ele>
        <time>2025-08-16T12:55:49Z</time>
      </trkpt>
      <trkpt lat="52.471070000" lon="13.407170000">
        <ele>45</ele>
        <time>2025-08-16T12:55:52Z</time>
      </trkpt>
      <trkpt lat="52.471080000" lon="13.407260000">
        <ele>45</ele>
        <time>2025-08-16T12:55:56Z</time>
      </trkpt>
      <trkpt lat="52.471080000" lon="13.407340000">
        <ele>45</ele>
        <time>2025-08-16T12:56:00Z</time>
      </trkpt>
      <trkpt lat="52.471080000" lon="13.407440000">
        <ele>45</ele>
        <time>2025-08-16T12:56:04Z</time>
      </trkpt>
      <trkpt lat="52.471070000" lon="13.407530000">
        <ele>45</ele>
        <time>2025-08-16T12:56:08Z</time>
      </trkpt>
      <trkpt lat="52.471070000" lon="13.407610000">
        <ele>45</ele>
        <time>2025-08-16T12:56:11Z</time>
      </trkpt>
      <trkpt lat="52.471070000" lon="13.407700000">
        <ele>45</ele>
        <time>2025-08-16T12:56:15Z</time>
      </trkpt>
      <trkpt lat="52.471070000" lon="13.407780000">
        <ele>45</ele>
        <time>2025-08-16T12:56:19Z</time>
      </trkpt>
      <trkpt lat="52.471070000" lon="13.407850000">
        <ele>45</ele>
        <time>2025-08-16T12:56:22Z</time>
      </trkpt>
      <trkpt lat="52.471070000" lon="13.407950000">
        <ele>45</ele>
        <time>2025-08-16T12:56:26Z</time>
      </trkpt>
      <trkpt lat="52.471080000" lon="13.408050000">
        <ele>45</ele>
        <time>2025-08-16T12:56:30Z</time>
      </trkpt>
      <trkpt lat="52.471080000" lon="13.408140000">
        <ele>45</ele>
        <time>2025-08-16T12:56:34Z</time>
      </trkpt>
      <trkpt lat="52.471080000" lon="13.408230000">
        <ele>45</ele>
        <time>2025-08-16T12:56:38Z</time>
      </trkpt>
      <trkpt lat="52.471090000" lon="13.408320000">
        <ele>45</ele>
        <time>2025-08-16T12:56:42Z</time>
      </trkpt>
      <trkpt lat="52.471090000" lon="13.408400000">
        <ele>45</ele>
        <time>2025-08-16T12:56:46Z</time>
      </trkpt>
      <trkpt lat="52.471090000" lon="13.408490000">
        <ele>45</ele>
        <time>2025-08-16T12:56:50Z</time>
      </trkpt>
      <trkpt lat="52.471090000" lon="13.408580000">
        <ele>45</ele>
        <time>2025-08-16T12:56:54Z</time>
      </trkpt>
      <trkpt lat="52.471090000" lon="13.408680000">
        <ele>45</ele>
        <time>2025-08-16T12:56:58Z</time>
      </trkpt>
      <trkpt lat="52.471090000" lon="13.408760000">
        <ele>45</ele>
        <time>2025-08-16T12:57:02Z</time>
      </trkpt>
      <trkpt lat="52.471090000" lon="13.408840000">
        <ele>45</ele>
        <time>2025-08-16T12:57:05Z</time>
      </trkpt>
      <trkpt lat="52.471090000" lon="13.408930000">
        <ele>45</ele>
        <time>2025-08-16T12:57:09Z</time>
      </trkpt>
      <trkpt lat="52.471090000" lon="13.409020000">
        <ele>45</ele>
        <time>2025-08-16T12:57:13Z</time>
      </trkpt>
      <trkpt lat="52.471090000" lon="13.409120000">
        <ele>45</ele>
        <time>2025-08-16T12:57:17Z</time>
      </trkpt>
      <trkpt lat="52.471090000" lon="13.409200000">
        <ele>45</ele>
        <time>2025-08-16T12:57:21Z</time>
      </trkpt>
      <trkpt lat="52.471090000" lon="13.409300000">
        <ele>45</ele>
        <time>2025-08-16T12:57:25Z</time>
      </trkpt>
      <trkpt lat="52.471090000" lon="13.409390000">
        <ele>45</ele>
        <time>2025-08-16T12:57:29Z</time>
      </trkpt>
      <trkpt lat="52.471100000" lon="13.409480000">
        <ele>45</ele>
        <time>2025-08-16T12:57:33Z</time>
      </trkpt>
      <trkpt lat="52.471100000" lon="13.409560000">
        <ele>45</ele>
        <time>2025-08-16T12:57:37Z</time>
      </trkpt>
      <trkpt lat="52.471100000" lon="13.409630000">
        <ele>45</ele>
        <time>2025-08-16T12:57:40Z</time>
      </trkpt>
      <trkpt lat="52.471090000" lon="13.409730000">
        <ele>45</ele>
        <time>2025-08-16T12:57:44Z</time>
      </trkpt>
      <trkpt lat="52.471090000" lon="13.409820000">
        <ele>45</ele>
        <time>2025-08-16T12:57:48Z</time>
      </trkpt>
      <trkpt lat="52.471090000" lon="13.409910000">
        <ele>45</ele>
        <time>2025-08-16T12:57:52Z</time>
      </trkpt>
      <trkpt lat="52.471100000" lon="13.410000000">
        <ele>45</ele>
        <time>2025-08-16T12:57:56Z</time>
      </trkpt>
      <trkpt lat="52.471100000" lon="13.410100000">
        <ele>45</ele>
        <time>2025-08-16T12:58:00Z</time>
      </trkpt>
      <trkpt lat="52.471110000" lon="13.410190000">
        <ele>45</ele>
        <time>2025-08-16T12:58:04Z</time>
      </trkpt>
      <trkpt lat="52.471110000" lon="13.410270000">
        <ele>45</ele>
        <time>2025-08-16T12:58:07Z</time>
      </trkpt>
      <trkpt lat="52.471110000" lon="13.410350000">
        <ele>45</ele>
        <time>2025-08-16T12:58:11Z</time>
      </trkpt>
      <trkpt lat="52.471110000" lon="13.410430000">
        <ele>45</ele>
        <time>2025-08-16T12:58:14Z</time>
      </trkpt>
      <trkpt lat="52.471110000" lon="13.410520000">
        <ele>45</ele>
        <time>2025-08-16T12:58:18Z</time>
      </trkpt>
      <trkpt lat="52.471110000" lon="13.410610000">
        <ele>45</ele>
        <time>2025-08-16T12:58:22Z</time>
      </trkpt>
      <trkpt lat="52.471120000" lon="13.410690000">
        <ele>45</ele>
        <time>2025-08-16T12:58:26Z</time>
      </trkpt>
      <trkpt lat="52.471120000" lon="13.410780000">
        <ele>45</ele>
        <time>2025-08-16T12:58:30Z</time>
      </trkpt>
      <trkpt lat="52.471120000" lon="13.410850000">
        <ele>45</ele>
        <time>2025-08-16T12:58:33Z</time>
      </trkpt>
      <trkpt lat="52.471130000" lon="13.410950000">
        <ele>45</ele>
        <time>2025-08-16T12:58:37Z</time>
      </trkpt>
      <trkpt lat="52.471120000" lon="13.411050000">
        <ele>45</ele>
        <time>2025-08-16T12:58:41Z</time>
      </trkpt>
      <trkpt lat="52.471120000" lon="13.411140000">
        <ele>45</ele>
        <time>2025-08-16T12:58:45Z</time>
      </trkpt>
      <trkpt lat="52.471120000" lon="13.411230000">
        <ele>45</ele>
        <time>2025-08-16T12:58:49Z</time>
      </trkpt>
      <trkpt lat="52.471120000" lon="13.411320000">
        <ele>45</ele>
        <time>2025-08-16T12:58:53Z</time>
      </trkpt>
      <trkpt lat="52.471130000" lon="13.411400000">
        <ele>45</ele>
        <time>2025-08-16T12:58:56Z</time>
      </trkpt>
      <trkpt lat="52.471130000" lon="13.411490000">
        <ele>45</ele>
        <time>2025-08-16T12:59:00Z</time>
      </trkpt>
      <trkpt lat="52.471130000" lon="13.411560000">
        <ele>45</ele>
        <time>2025-08-16T12:59:03Z</time>
      </trkpt>
      <trkpt lat="52.471140000" lon="13.411660000">
        <ele>45</ele>
        <time>2025-08-16T12:59:07Z</time>
      </trkpt>
      <trkpt lat="52.471140000" lon="13.411740000">
        <ele>45</ele>
        <time>2025-08-16T12:59:10Z</time>
      </trkpt>
      <trkpt lat="52.471140000" lon="13.411820000">
        <ele>45</ele>
        <time>2025-08-16T12:59:13Z</time>
      </trkpt>
      <trkpt lat="52.471140000" lon="13.411900000">
        <ele>45</ele>
        <time>2025-08-16T12:59:17Z</time>
      </trkpt>
      <trkpt lat="52.471150000" lon="13.411990000">
        <ele>45</ele>
        <time>2025-08-16T12:59:21Z</time>
      </trkpt>
      <trkpt lat="52.471150000" lon="13.412080000">
        <ele>45</ele>
        <time>2025-08-16T12:59:25Z</time>
      </trkpt>
      <trkpt lat="52.471150000" lon="13.412170000">
        <ele>45</ele>
        <time>2025-08-16T12:59:29Z</time>
      </trkpt>
      <trkpt lat="52.471150000" lon="13.412250000">
        <ele>45</ele>
        <time>2025-08-16T12:59:32Z</time>
      </trkpt>
      <trkpt lat="52.471160000" lon="13.412340000">
        <ele>45</ele>
        <time>2025-08-16T12:59:36Z</time>
      </trkpt>
      <trkpt lat="52.471160000" lon="13.412410000">
        <ele>45</ele>
        <time>2025-08-16T12:59:39Z</time>
      </trkpt>
      <trkpt lat="52.471160000" lon="13.412490000">
        <ele>45</ele>
        <time>2025-08-16T12:59:42Z</time>
      </trkpt>
      <trkpt lat="52.471160000" lon="13.412580000">
        <ele>45</ele>
        <time>2025-08-16T12:59:46Z</time>
      </trkpt>
      <trkpt lat="52.471160000" lon="13.412660000">
        <ele>45</ele>
        <time>2025-08-16T12:59:49Z</time>
      </trkpt>
      <trkpt lat="52.471160000" lon="13.412740000">
        <ele>45</ele>
        <time>2025-08-16T12:59:53Z</time>
      </trkpt>
      <trkpt lat="52.471170000" lon="13.412830000">
        <ele>45</ele>
        <time>2025-08-16T12:59:57Z</time>
      </trkpt>
      <trkpt lat="52.471170000" lon="13.412900000">
        <ele>45</ele>
        <time>2025-08-16T13:00:00Z</time>
      </trkpt>
      <trkpt lat="52.471170000" lon="13.412990000">
        <ele>44</ele>
        <time>2025-08-16T13:00:04Z</time>
      </trkpt>
      <trkpt lat="52.471180000" lon="13.413070000">
        <ele>44</ele>
        <time>2025-08-16T13:00:08Z</time>
      </trkpt>
      <trkpt lat="52.471170000" lon="13.413150000">
        <ele>44</ele>
        <time>2025-08-16T13:00:11Z</time>
      </trkpt>
      <trkpt lat="52.471170000" lon="13.413230000">
        <ele>44</ele>
        <time>2025-08-16T13:00:15Z</time>
      </trkpt>
      <trkpt lat="52.471170000" lon="13.413320000">
        <ele>44</ele>
        <time>2025-08-16T13:00:19Z</time>
      </trkpt>
      <trkpt lat="52.471180000" lon="13.413420000">
        <ele>45</ele>
        <time>2025-08-16T13:00:23Z</time>
      </trkpt>
      <trkpt lat="52.471180000" lon="13.413510000">
        <ele>45</ele>
        <time>2025-08-16T13:00:27Z</time>
      </trkpt>
      <trkpt lat="52.471180000" lon="13.413610000">
        <ele>45</ele>
        <time>2025-08-16T13:00:31Z</time>
      </trkpt>
      <trkpt lat="52.471190000" lon="13.413690000">
        <ele>45</ele>
        <time>2025-08-16T13:00:35Z</time>
      </trkpt>
      <trkpt lat="52.471190000" lon="13.413780000">
        <ele>45</ele>
        <time>2025-08-16T13:00:39Z</time>
      </trkpt>
      <trkpt lat="52.471200000" lon="13.413880000">
        <ele>45</ele>
        <time>2025-08-16T13:00:43Z</time>
      </trkpt>
      <trkpt lat="52.471200000" lon="13.413960000">
        <ele>45</ele>
        <time>2025-08-16T13:00:47Z</time>
      </trkpt>
      <trkpt lat="52.471200000" lon="13.414030000">
        <ele>45</ele>
        <time>2025-08-16T13:00:50Z</time>
      </trkpt>
      <trkpt lat="52.471210000" lon="13.414130000">
        <ele>44</ele>
        <time>2025-08-16T13:00:54Z</time>
      </trkpt>
      <trkpt lat="52.471210000" lon="13.414200000">
        <ele>44</ele>
        <time>2025-08-16T13:01:00Z</time>
      </trkpt>
      <trkpt lat="52.471210000" lon="13.414300000">
        <ele>44</ele>
        <time>2025-08-16T13:01:03Z</time>
      </trkpt>
      <trkpt lat="52.471220000" lon="13.414390000">
        <ele>44</ele>
        <time>2025-08-16T13:01:07Z</time>
      </trkpt>
      <trkpt lat="52.471220000" lon="13.414470000">
        <ele>44</ele>
        <time>2025-08-16T13:01:11Z</time>
      </trkpt>
      <trkpt lat="52.471230000" lon="13.414540000">
        <ele>44</ele>
        <time>2025-08-16T13:01:14Z</time>
      </trkpt>
      <trkpt lat="52.471240000" lon="13.414640000">
        <ele>44</ele>
        <time>2025-08-16T13:01:22Z</time>
      </trkpt>
      <trkpt lat="52.471240000" lon="13.414720000">
        <ele>44</ele>
        <time>2025-08-16T13:01:26Z</time>
      </trkpt>
      <trkpt lat="52.471250000" lon="13.414810000">
        <ele>44</ele>
        <time>2025-08-16T13:01:30Z</time>
      </trkpt>
      <trkpt lat="52.471250000" lon="13.414890000">
        <ele>44</ele>
        <time>2025-08-16T13:01:34Z</time>
      </trkpt>
      <trkpt lat="52.471250000" lon="13.414990000">
        <ele>44</ele>
        <time>2025-08-16T13:01:38Z</time>
      </trkpt>
      <trkpt lat="52.471250000" lon="13.415070000">
        <ele>44</ele>
        <time>2025-08-16T13:01:42Z</time>
      </trkpt>
      <trkpt lat="52.471270000" lon="13.415170000">
        <ele>44</ele>
        <time>2025-08-16T13:01:46Z</time>
      </trkpt>
      <trkpt lat="52.471270000" lon="13.415260000">
        <ele>44</ele>
        <time>2025-08-16T13:01:50Z</time>
      </trkpt>
      <trkpt lat="52.471280000" lon="13.415340000">
        <ele>44</ele>
        <time>2025-08-16T13:01:54Z</time>
      </trkpt>
      <trkpt lat="52.471280000" lon="13.415440000">
        <ele>44</ele>
        <time>2025-08-16T13:01:58Z</time>
      </trkpt>
      <trkpt lat="52.471290000" lon="13.415520000">
        <ele>44</ele>
        <time>2025-08-16T13:02:02Z</time>
      </trkpt>
      <trkpt lat="52.471300000" lon="13.415620000">
        <ele>44</ele>
        <time>2025-08-16T13:02:06Z</time>
      </trkpt>
      <trkpt lat="52.471300000" lon="13.415710000">
        <ele>44</ele>
        <time>2025-08-16T13:02:10Z</time>
      </trkpt>
      <trkpt lat="52.471310000" lon="13.415800000">
        <ele>44</ele>
        <time>2025-08-16T13:02:14Z</time>
      </trkpt>
      <trkpt lat="52.471310000" lon="13.415880000">
        <ele>44</ele>
        <time>2025-08-16T13:02:18Z</time>
      </trkpt>
      <trkpt lat="52.471310000" lon="13.415960000">
        <ele>44</ele>
        <time>2025-08-16T13:02:21Z</time>
      </trkpt>
      <trkpt lat="52.471320000" lon="13.416050000">
        <ele>44</ele>
        <time>2025-08-16T13:02:25Z</time>
      </trkpt>
      <trkpt lat="52.471320000" lon="13.416130000">
        <ele>44</ele>
        <time>2025-08-16T13:02:29Z</time>
      </trkpt>
      <trkpt lat="52.471320000" lon="13.416220000">
        <ele>44</ele>
        <time>2025-08-16T13:02:33Z</time>
      </trkpt>
      <trkpt lat="52.471320000" lon="13.416310000">
        <ele>44</ele>
        <time>2025-08-16T13:02:37Z</time>
      </trkpt>
      <trkpt lat="52.471320000" lon="13.416390000">
        <ele>44</ele>
        <time>2025-08-16T13:02:41Z</time>
      </trkpt>
      <trkpt lat="52.471330000" lon="13.416470000">
        <ele>44</ele>
        <time>2025-08-16T13:02:45Z</time>
      </trkpt>
      <trkpt lat="52.471330000" lon="13.416550000">
        <ele>44</ele>
        <time>2025-08-16T13:02:48Z</time>
      </trkpt>
      <trkpt lat="52.471340000" lon="13.416640000">
        <ele>44</ele>
        <time>2025-08-16T13:02:52Z</time>
      </trkpt>
      <trkpt lat="52.471350000" lon="13.416720000">
        <ele>44</ele>
        <time>2025-08-16T13:02:56Z</time>
      </trkpt>
      <trkpt lat="52.471350000" lon="13.416810000">
        <ele>44</ele>
        <time>2025-08-16T13:03:00Z</time>
      </trkpt>
      <trkpt lat="52.471360000" lon="13.416910000">
        <ele>44</ele>
        <time>2025-08-16T13:03:04Z</time>
      </trkpt>
      <trkpt lat="52.471360000" lon="13.417010000">
        <ele>44</ele>
        <time>2025-08-16T13:03:09Z</time>
      </trkpt>
      <trkpt lat="52.471360000" lon="13.417100000">
        <ele>44</ele>
        <time>2025-08-16T13:03:13Z</time>
      </trkpt>
      <trkpt lat="52.471370000" lon="13.417180000">
        <ele>44</ele>
        <time>2025-08-16T13:03:17Z</time>
      </trkpt>
      <trkpt lat="52.471380000" lon="13.417260000">
        <ele>44</ele>
        <time>2025-08-16T13:03:20Z</time>
      </trkpt>
      <trkpt lat="52.471380000" lon="13.417340000">
        <ele>44</ele>
        <time>2025-08-16T13:03:23Z</time>
      </trkpt>
      <trkpt lat="52.471380000" lon="13.417410000">
        <ele>44</ele>
        <time>2025-08-16T13:03:27Z</time>
      </trkpt>
      <trkpt lat="52.471370000" lon="13.417510000">
        <ele>44</ele>
        <time>2025-08-16T13:03:32Z</time>
      </trkpt>
      <trkpt lat="52.471380000" lon="13.417610000">
        <ele>45</ele>
        <time>2025-08-16T13:03:36Z</time>
      </trkpt>
      <trkpt lat="52.471370000" lon="13.417690000">
        <ele>45</ele>
        <time>2025-08-16T13:03:40Z</time>
      </trkpt>
      <trkpt lat="52.471380000" lon="13.417790000">
        <ele>45</ele>
        <time>2025-08-16T13:03:44Z</time>
      </trkpt>
      <trkpt lat="52.471370000" lon="13.417870000">
        <ele>45</ele>
        <time>2025-08-16T13:03:48Z</time>
      </trkpt>
      <trkpt lat="52.471370000" lon="13.417970000">
        <ele>45</ele>
        <time>2025-08-16T13:03:52Z</time>
      </trkpt>
      <trkpt lat="52.471370000" lon="13.418060000">
        <ele>45</ele>
        <time>2025-08-16T13:03:56Z</time>
      </trkpt>
      <trkpt lat="52.471380000" lon="13.418140000">
        <ele>45</ele>
        <time>2025-08-16T13:03:59Z</time>
      </trkpt>
      <trkpt lat="52.471380000" lon="13.418240000">
        <ele>45</ele>
        <time>2025-08-16T13:04:06Z</time>
      </trkpt>
      <trkpt lat="52.471380000" lon="13.418320000">
        <ele>45</ele>
        <time>2025-08-16T13:04:10Z</time>
      </trkpt>
      <trkpt lat="52.471380000" lon="13.418400000">
        <ele>45</ele>
        <time>2025-08-16T13:04:14Z</time>
      </trkpt>
      <trkpt lat="52.471370000" lon="13.418480000">
        <ele>45</ele>
        <time>2025-08-16T13:04:17Z</time>
      </trkpt>
      <trkpt lat="52.471360000" lon="13.418570000">
        <ele>45</ele>
        <time>2025-08-16T13:04:21Z</time>
      </trkpt>
      <trkpt lat="52.471360000" lon="13.418650000">
        <ele>45</ele>
        <time>2025-08-16T13:04:25Z</time>
      </trkpt>
      <trkpt lat="52.471360000" lon="13.418740000">
        <ele>45</ele>
        <time>2025-08-16T13:04:29Z</time>
      </trkpt>
      <trkpt lat="52.471350000" lon="13.418830000">
        <ele>45</ele>
        <time>2025-08-16T13:04:33Z</time>
      </trkpt>
      <trkpt lat="52.471340000" lon="13.418910000">
        <ele>45</ele>
        <time>2025-08-16T13:04:37Z</time>
      </trkpt>
      <trkpt lat="52.471340000" lon="13.418980000">
        <ele>46</ele>
        <time>2025-08-16T13:04:40Z</time>
      </trkpt>
      <trkpt lat="52.471330000" lon="13.419060000">
        <ele>46</ele>
        <time>2025-08-16T13:04:44Z</time>
      </trkpt>
      <trkpt lat="52.471330000" lon="13.419140000">
        <ele>46</ele>
        <time>2025-08-16T13:04:47Z</time>
      </trkpt>
      <trkpt lat="52.471320000" lon="13.419220000">
        <ele>46</ele>
        <time>2025-08-16T13:04:51Z</time>
      </trkpt>
      <trkpt lat="52.471320000" lon="13.419310000">
        <ele>46</ele>
        <time>2025-08-16T13:04:55Z</time>
      </trkpt>
      <trkpt lat="52.471310000" lon="13.419400000">
        <ele>46</ele>
        <time>2025-08-16T13:04:59Z</time>
      </trkpt>
      <trkpt lat="52.471300000" lon="13.419490000">
        <ele>46</ele>
        <time>2025-08-16T13:05:03Z</time>
      </trkpt>
      <trkpt lat="52.471290000" lon="13.419570000">
        <ele>46</ele>
        <time>2025-08-16T13:05:06Z</time>
      </trkpt>
      <trkpt lat="52.471280000" lon="13.419650000">
        <ele>46</ele>
        <time>2025-08-16T13:05:09Z</time>
      </trkpt>
      <trkpt lat="52.471280000" lon="13.419720000">
        <ele>46</ele>
        <time>2025-08-16T13:05:12Z</time>
      </trkpt>
      <trkpt lat="52.471260000" lon="13.419800000">
        <ele>46</ele>
        <time>2025-08-16T13:05:16Z</time>
      </trkpt>
      <trkpt lat="52.471220000" lon="13.419870000">
        <ele>46</ele>
        <time>2025-08-16T13:05:20Z</time>
      </trkpt>
      <trkpt lat="52.471200000" lon="13.419940000">
        <ele>46</ele>
        <time>2025-08-16T13:05:25Z</time>
      </trkpt>
      <trkpt lat="52.471160000" lon="13.420000000">
        <ele>46</ele>
        <time>2025-08-16T13:05:29Z</time>
      </trkpt>
      <trkpt lat="52.471130000" lon="13.420070000">
        <ele>46</ele>
        <time>2025-08-16T13:05:32Z</time>
      </trkpt>
      <trkpt lat="52.471100000" lon="13.420130000">
        <ele>46</ele>
        <time>2025-08-16T13:05:35Z</time>
      </trkpt>
      <trkpt lat="52.471070000" lon="13.420180000">
        <ele>46</ele>
        <time>2025-08-16T13:05:39Z</time>
      </trkpt>
      <trkpt lat="52.471030000" lon="13.420250000">
        <ele>46</ele>
        <time>2025-08-16T13:05:44Z</time>
      </trkpt>
      <trkpt lat="52.471000000" lon="13.420310000">
        <ele>46</ele>
        <time>2025-08-16T13:05:49Z</time>
      </trkpt>
      <trkpt lat="52.470970000" lon="13.420360000">
        <ele>46</ele>
        <time>2025-08-16T13:05:56Z</time>
      </trkpt>
      <trkpt lat="52.470930000" lon="13.420400000">
        <ele>46</ele>
        <time>2025-08-16T13:06:03Z</time>
      </trkpt>
      <trkpt lat="52.470880000" lon="13.420400000">
        <ele>47</ele>
        <time>2025-08-16T13:06:09Z</time>
      </trkpt>
      <trkpt lat="52.470840000" lon="13.420360000">
        <ele>47</ele>
        <time>2025-08-16T13:06:13Z</time>
      </trkpt>
      <trkpt lat="52.470810000" lon="13.420290000">
        <ele>47</ele>
        <time>2025-08-16T13:06:17Z</time>
      </trkpt>
      <trkpt lat="52.470780000" lon="13.420240000">
        <ele>47</ele>
        <time>2025-08-16T13:06:21Z</time>
      </trkpt>
      <trkpt lat="52.470740000" lon="13.420190000">
        <ele>47</ele>
        <time>2025-08-16T13:06:25Z</time>
      </trkpt>
      <trkpt lat="52.470690000" lon="13.420150000">
        <ele>47</ele>
        <time>2025-08-16T13:06:30Z</time>
      </trkpt>
      <trkpt lat="52.470640000" lon="13.420110000">
        <ele>47</ele>
        <time>2025-08-16T13:06:35Z</time>
      </trkpt>
      <trkpt lat="52.470590000" lon="13.420090000">
        <ele>47</ele>
        <time>2025-08-16T13:06:39Z</time>
      </trkpt>
      <trkpt lat="52.470540000" lon="13.420110000">
        <ele>47</ele>
        <time>2025-08-16T13:06:44Z</time>
      </trkpt>
      <trkpt lat="52.470490000" lon="13.420120000">
        <ele>47</ele>
        <time>2025-08-16T13:06:47Z</time>
      </trkpt>
      <trkpt lat="52.470440000" lon="13.420120000">
        <ele>47</ele>
        <time>2025-08-16T13:06:50Z</time>
      </trkpt>
      <trkpt lat="52.470390000" lon="13.420120000">
        <ele>47</ele>
        <time>2025-08-16T13:06:54Z</time>
      </trkpt>
      <trkpt lat="52.470340000" lon="13.420110000">
        <ele>47</ele>
        <time>2025-08-16T13:06:57Z</time>
      </trkpt>
      <trkpt lat="52.470290000" lon="13.420130000">
        <ele>47</ele>
        <time>2025-08-16T13:07:01Z</time>
      </trkpt>
      <trkpt lat="52.470240000" lon="13.420130000">
        <ele>47</ele>
        <time>2025-08-16T13:07:05Z</time>
      </trkpt>
      <trkpt lat="52.470190000" lon="13.420140000">
        <ele>47</ele>
        <time>2025-08-16T13:07:09Z</time>
      </trkpt>
      <trkpt lat="52.470140000" lon="13.420150000">
        <ele>47</ele>
        <time>2025-08-16T13:07:16Z</time>
      </trkpt>
      <trkpt lat="52.470090000" lon="13.420170000">
        <ele>47</ele>
        <time>2025-08-16T13:07:20Z</time>
      </trkpt>
      <trkpt lat="52.470040000" lon="13.420200000">
        <ele>47</ele>
        <time>2025-08-16T13:07:24Z</time>
      </trkpt>
      <trkpt lat="52.469990000" lon="13.420220000">
        <ele>47</ele>
        <time>2025-08-16T13:07:27Z</time>
      </trkpt>
      <trkpt lat="52.469940000" lon="13.420230000">
        <ele>47</ele>
        <time>2025-08-16T13:07:31Z</time>
      </trkpt>
      <trkpt lat="52.469900000" lon="13.420260000">
        <ele>47</ele>
        <time>2025-08-16T13:07:35Z</time>
      </trkpt>
      <trkpt lat="52.469850000" lon="13.420290000">
        <ele>47</ele>
        <time>2025-08-16T13:07:40Z</time>
      </trkpt>
      <trkpt lat="52.469800000" lon="13.420300000">
        <ele>47</ele>
        <time>2025-08-16T13:07:45Z</time>
      </trkpt>
      <trkpt lat="52.469750000" lon="13.420320000">
        <ele>47</ele>
        <time>2025-08-16T13:07:50Z</time>
      </trkpt>
      <trkpt lat="52.469690000" lon="13.420310000">
        <ele>47</ele>
        <time>2025-08-16T13:07:54Z</time>
      </trkpt>
      <trkpt lat="52.469640000" lon="13.420310000">
        <ele>47</ele>
        <time>2025-08-16T13:07:58Z</time>
      </trkpt>
      <trkpt lat="52.469580000" lon="13.420320000">
        <ele>47</ele>
        <time>2025-08-16T13:08:02Z</time>
      </trkpt>
      <trkpt lat="52.469530000" lon="13.420340000">
        <ele>47</ele>
        <time>2025-08-16T13:08:06Z</time>
      </trkpt>
      <trkpt lat="52.469480000" lon="13.420360000">
        <ele>47</ele>
        <time>2025-08-16T13:08:12Z</time>
      </trkpt>
      <trkpt lat="52.469420000" lon="13.420350000">
        <ele>47</ele>
        <time>2025-08-16T13:08:16Z</time>
      </trkpt>
      <trkpt lat="52.469370000" lon="13.420360000">
        <ele>47</ele>
        <time>2025-08-16T13:08:19Z</time>
      </trkpt>
      <trkpt lat="52.469320000" lon="13.420380000">
        <ele>47</ele>
        <time>2025-08-16T13:08:25Z</time>
      </trkpt>
      <trkpt lat="52.469260000" lon="13.420400000">
        <ele>47</ele>
        <time>2025-08-16T13:08:30Z</time>
      </trkpt>
      <trkpt lat="52.469210000" lon="13.420420000">
        <ele>47</ele>
        <time>2025-08-16T13:08:34Z</time>
      </trkpt>
      <trkpt lat="52.469170000" lon="13.420420000">
        <ele>47</ele>
        <time>2025-08-16T13:08:38Z</time>
      </trkpt>
      <trkpt lat="52.469110000" lon="13.420430000">
        <ele>47</ele>
        <time>2025-08-16T13:08:43Z</time>
      </trkpt>
      <trkpt lat="52.469070000" lon="13.420430000">
        <ele>47</ele>
        <time>2025-08-16T13:08:47Z</time>
      </trkpt>
      <trkpt lat="52.469010000" lon="13.420430000">
        <ele>47</ele>
        <time>2025-08-16T13:08:51Z</time>
      </trkpt>
      <trkpt lat="52.468960000" lon="13.420440000">
        <ele>47</ele>
        <time>2025-08-16T13:08:55Z</time>
      </trkpt>
      <trkpt lat="52.468910000" lon="13.420440000">
        <ele>47</ele>
        <time>2025-08-16T13:08:58Z</time>
      </trkpt>
      <trkpt lat="52.468860000" lon="13.420460000">
        <ele>47</ele>
        <time>2025-08-16T13:09:03Z</time>
      </trkpt>
      <trkpt lat="52.468810000" lon="13.420470000">
        <ele>47</ele>
        <time>2025-08-16T13:09:06Z</time>
      </trkpt>
      <trkpt lat="52.468760000" lon="13.420470000">
        <ele>47</ele>
        <time>2025-08-16T13:09:10Z</time>
      </trkpt>
      <trkpt lat="52.468720000" lon="13.420450000">
        <ele>47</ele>
        <time>2025-08-16T13:09:14Z</time>
      </trkpt>
      <trkpt lat="52.468670000" lon="13.420480000">
        <ele>47</ele>
        <time>2025-08-16T13:09:18Z</time>
      </trkpt>
      <trkpt lat="52.468620000" lon="13.420500000">
        <ele>47</ele>
        <time>2025-08-16T13:09:22Z</time>
      </trkpt>
      <trkpt lat="52.468570000" lon="13.420510000">
        <ele>46</ele>
        <time>2025-08-16T13:09:27Z</time>
      </trkpt>
      <trkpt lat="52.468510000" lon="13.420520000">
        <ele>46</ele>
        <time>2025-08-16T13:09:31Z</time>
      </trkpt>
      <trkpt lat="52.468460000" lon="13.420530000">
        <ele>46</ele>
        <time>2025-08-16T13:09:35Z</time>
      </trkpt>
      <trkpt lat="52.468410000" lon="13.420540000">
        <ele>46</ele>
        <time>2025-08-16T13:09:40Z</time>
      </trkpt>
      <trkpt lat="52.468360000" lon="13.420550000">
        <ele>46</ele>
        <time>2025-08-16T13:09:45Z</time>
      </trkpt>
      <trkpt lat="52.468310000" lon="13.420580000">
        <ele>46</ele>
        <time>2025-08-16T13:09:50Z</time>
      </trkpt>
      <trkpt lat="52.468250000" lon="13.420600000">
        <ele>46</ele>
        <time>2025-08-16T13:09:54Z</time>
      </trkpt>
      <trkpt lat="52.468200000" lon="13.420610000">
        <ele>46</ele>
        <time>2025-08-16T13:09:58Z</time>
      </trkpt>
      <trkpt lat="52.468140000" lon="13.420610000">
        <ele>45</ele>
        <time>2025-08-16T13:10:02Z</time>
      </trkpt>
      <trkpt lat="52.468080000" lon="13.420620000">
        <ele>45</ele>
        <time>2025-08-16T13:10:07Z</time>
      </trkpt>
      <trkpt lat="52.468020000" lon="13.420640000">
        <ele>45</ele>
        <time>2025-08-16T13:10:10Z</time>
      </trkpt>
      <trkpt lat="52.467980000" lon="13.420640000">
        <ele>45</ele>
        <time>2025-08-16T13:10:13Z</time>
      </trkpt>
      <trkpt lat="52.467920000" lon="13.420650000">
        <ele>45</ele>
        <time>2025-08-16T13:10:17Z</time>
      </trkpt>
      <trkpt lat="52.467870000" lon="13.420670000">
        <ele>45</ele>
        <time>2025-08-16T13:10:21Z</time>
      </trkpt>
      <trkpt lat="52.467830000" lon="13.420700000">
        <ele>45</ele>
        <time>2025-08-16T13:10:25Z</time>
      </trkpt>
      <trkpt lat="52.467780000" lon="13.420700000">
        <ele>45</ele>
        <time>2025-08-16T13:10:29Z</time>
      </trkpt>
      <trkpt lat="52.467740000" lon="13.420720000">
        <ele>45</ele>
        <time>2025-08-16T13:10:33Z</time>
      </trkpt>
      <trkpt lat="52.467680000" lon="13.420730000">
        <ele>45</ele>
        <time>2025-08-16T13:10:37Z</time>
      </trkpt>
      <trkpt lat="52.467630000" lon="13.420740000">
        <ele>45</ele>
        <time>2025-08-16T13:10:41Z</time>
      </trkpt>
      <trkpt lat="52.467570000" lon="13.420750000">
        <ele>45</ele>
        <time>2025-08-16T13:10:46Z</time>
      </trkpt>
      <trkpt lat="52.467530000" lon="13.420780000">
        <ele>45</ele>
        <time>2025-08-16T13:10:50Z</time>
      </trkpt>
      <trkpt lat="52.467470000" lon="13.420800000">
        <ele>44</ele>
        <time>2025-08-16T13:10:54Z</time>
      </trkpt>
      <trkpt lat="52.467450000" lon="13.420870000">
        <ele>44</ele>
        <time>2025-08-16T13:10:58Z</time>
      </trkpt>
      <trkpt lat="52.467410000" lon="13.420940000">
        <ele>44</ele>
        <time>2025-08-16T13:11:02Z</time>
      </trkpt>
      <trkpt lat="52.467360000" lon="13.420980000">
        <ele>44</ele>
        <time>2025-08-16T13:11:07Z</time>
      </trkpt>
      <trkpt lat="52.467310000" lon="13.421000000">
        <ele>44</ele>
        <time>2025-08-16T13:11:11Z</time>
      </trkpt>
      <trkpt lat="52.467260000" lon="13.421020000">
        <ele>44</ele>
        <time>2025-08-16T13:11:15Z</time>
      </trkpt>
      <trkpt lat="52.467220000" lon="13.421070000">
        <ele>44</ele>
        <time>2025-08-16T13:11:20Z</time>
      </trkpt>
      <trkpt lat="52.467180000" lon="13.421060000">
        <ele>44</ele>
        <time>2025-08-16T13:11:23Z</time>
      </trkpt>
      <trkpt lat="52.467130000" lon="13.421080000">
        <ele>44</ele>
        <time>2025-08-16T13:11:26Z</time>
      </trkpt>
      <trkpt lat="52.467080000" lon="13.421120000">
        <ele>44</ele>
        <time>2025-08-16T13:11:30Z</time>
      </trkpt>
      <trkpt lat="52.467020000" lon="13.421150000">
        <ele>44</ele>
        <time>2025-08-16T13:11:34Z</time>
      </trkpt>
      <trkpt lat="52.466970000" lon="13.421160000">
        <ele>44</ele>
        <time>2025-08-16T13:11:37Z</time>
      </trkpt>
      <trkpt lat="52.466930000" lon="13.421170000">
        <ele>44</ele>
        <time>2025-08-16T13:11:40Z</time>
      </trkpt>
      <trkpt lat="52.466860000" lon="13.421180000">
        <ele>44</ele>
        <time>2025-08-16T13:11:44Z</time>
      </trkpt>
      <trkpt lat="52.466810000" lon="13.421170000">
        <ele>44</ele>
        <time>2025-08-16T13:11:47Z</time>
      </trkpt>
      <trkpt lat="52.466760000" lon="13.421170000">
        <ele>44</ele>
        <time>2025-08-16T13:11:54Z</time>
      </trkpt>
      <trkpt lat="52.466700000" lon="13.421180000">
        <ele>44</ele>
        <time>2025-08-16T13:11:59Z</time>
      </trkpt>
      <trkpt lat="52.466640000" lon="13.421170000">
        <ele>44</ele>
        <time>2025-08-16T13:12:02Z</time>
      </trkpt>
      <trkpt lat="52.466580000" lon="13.421150000">
        <ele>44</ele>
        <time>2025-08-16T13:12:06Z</time>
      </trkpt>
      <trkpt lat="52.466530000" lon="13.421160000">
        <ele>44</ele>
        <time>2025-08-16T13:12:08Z</time>
      </trkpt>
      <trkpt lat="52.466490000" lon="13.421170000">
        <ele>44</ele>
        <time>2025-08-16T13:12:11Z</time>
      </trkpt>
      <trkpt lat="52.466420000" lon="13.421170000">
        <ele>44</ele>
        <time>2025-08-16T13:12:15Z</time>
      </trkpt>
      <trkpt lat="52.466370000" lon="13.421190000">
        <ele>44</ele>
        <time>2025-08-16T13:12:19Z</time>
      </trkpt>
      <trkpt lat="52.466320000" lon="13.421220000">
        <ele>44</ele>
        <time>2025-08-16T13:12:23Z</time>
      </trkpt>
      <trkpt lat="52.466270000" lon="13.421230000">
        <ele>44</ele>
        <time>2025-08-16T13:12:28Z</time>
      </trkpt>
      <trkpt lat="52.466220000" lon="13.421230000">
        <ele>44</ele>
        <time>2025-08-16T13:12:32Z</time>
      </trkpt>
      <trkpt lat="52.466180000" lon="13.421240000">
        <ele>44</ele>
        <time>2025-08-16T13:12:35Z</time>
      </trkpt>
      <trkpt lat="52.466130000" lon="13.421250000">
        <ele>44</ele>
        <time>2025-08-16T13:12:40Z</time>
      </trkpt>
      <trkpt lat="52.466080000" lon="13.421250000">
        <ele>44</ele>
        <time>2025-08-16T13:12:45Z</time>
      </trkpt>
      <trkpt lat="52.465970000" lon="13.421240000">
        <ele>44</ele>
        <time>2025-08-16T13:12:55Z</time>
      </trkpt>
      <trkpt lat="52.465920000" lon="13.421250000">
        <ele>44</ele>
        <time>2025-08-16T13:13:02Z</time>
      </trkpt>
      <trkpt lat="52.465870000" lon="13.421250000">
        <ele>44</ele>
        <time>2025-08-16T13:13:05Z</time>
      </trkpt>
      <trkpt lat="52.465810000" lon="13.421250000">
        <ele>44</ele>
        <time>2025-08-16T13:13:08Z</time>
      </trkpt>
      <trkpt lat="52.465770000" lon="13.421230000">
        <ele>44</ele>
        <time>2025-08-16T13:13:12Z</time>
      </trkpt>
      <trkpt lat="52.465710000" lon="13.421270000">
        <ele>44</ele>
        <time>2025-08-16T13:13:16Z</time>
      </trkpt>
      <trkpt lat="52.465670000" lon="13.421300000">
        <ele>44</ele>
        <time>2025-08-16T13:13:19Z</time>
      </trkpt>
      <trkpt lat="52.465620000" lon="13.421350000">
        <ele>44</ele>
        <time>2025-08-16T13:13:22Z</time>
      </trkpt>
      <trkpt lat="52.465560000" lon="13.421370000">
        <ele>44</ele>
        <time>2025-08-16T13:13:25Z</time>
      </trkpt>
      <trkpt lat="52.465510000" lon="13.421380000">
        <ele>44</ele>
        <time>2025-08-16T13:13:28Z</time>
      </trkpt>
      <trkpt lat="52.465470000" lon="13.421410000">
        <ele>44</ele>
        <time>2025-08-16T13:13:30Z</time>
      </trkpt>
      <trkpt lat="52.465430000" lon="13.421440000">
        <ele>44</ele>
        <time>2025-08-16T13:13:33Z</time>
      </trkpt>
      <trkpt lat="52.465370000" lon="13.421440000">
        <ele>44</ele>
        <time>2025-08-16T13:13:36Z</time>
      </trkpt>
      <trkpt lat="52.465320000" lon="13.421390000">
        <ele>44</ele>
        <time>2025-08-16T13:13:41Z</time>
      </trkpt>
      <trkpt lat="52.465300000" lon="13.421320000">
        <ele>44</ele>
        <time>2025-08-16T13:13:47Z</time>
      </trkpt>
      <trkpt lat="52.465250000" lon="13.421300000">
        <ele>44</ele>
        <time>2025-08-16T13:13:54Z</time>
      </trkpt>
      <trkpt lat="52.465210000" lon="13.421290000">
        <ele>44</ele>
        <time>2025-08-16T13:14:10Z</time>
      </trkpt>
      <trkpt lat="52.465160000" lon="13.421310000">
        <ele>44</ele>
        <time>2025-08-16T13:14:31Z</time>
      </trkpt>
      <trkpt lat="52.465110000" lon="13.421330000">
        <ele>44</ele>
        <time>2025-08-16T13:14:38Z</time>
      </trkpt>
      <trkpt lat="52.465060000" lon="13.421380000">
        <ele>44</ele>
        <time>2025-08-16T13:14:43Z</time>
      </trkpt>
      <trkpt lat="52.465010000" lon="13.421390000">
        <ele>44</ele>
        <time>2025-08-16T13:14:47Z</time>
      </trkpt>
      <trkpt lat="52.464950000" lon="13.421420000">
        <ele>44</ele>
        <time>2025-08-16T13:14:52Z</time>
      </trkpt>
      <trkpt lat="52.464910000" lon="13.421430000">
        <ele>43</ele>
        <time>2025-08-16T13:14:58Z</time>
      </trkpt>
      <trkpt lat="52.464850000" lon="13.421440000">
        <ele>43</ele>
        <time>2025-08-16T13:15:03Z</time>
      </trkpt>
      <trkpt lat="52.464800000" lon="13.421470000">
        <ele>43</ele>
        <time>2025-08-16T13:15:06Z</time>
      </trkpt>
      <trkpt lat="52.464750000" lon="13.421510000">
        <ele>43</ele>
        <time>2025-08-16T13:15:09Z</time>
      </trkpt>
      <trkpt lat="52.464710000" lon="13.421530000">
        <ele>43</ele>
        <time>2025-08-16T13:15:13Z</time>
      </trkpt>
      <trkpt lat="52.464650000" lon="13.421580000">
        <ele>43</ele>
        <time>2025-08-16T13:15:16Z</time>
      </trkpt>
      <trkpt lat="52.464610000" lon="13.421620000">
        <ele>43</ele>
        <time>2025-08-16T13:15:19Z</time>
      </trkpt>
      <trkpt lat="52.464570000" lon="13.421650000">
        <ele>43</ele>
        <time>2025-08-16T13:15:21Z</time>
      </trkpt>
      <trkpt lat="52.464510000" lon="13.421690000">
        <ele>43</ele>
        <time>2025-08-16T13:15:25Z</time>
      </trkpt>
      <trkpt lat="52.464460000" lon="13.421720000">
        <ele>43</ele>
        <time>2025-08-16T13:15:29Z</time>
      </trkpt>
      <trkpt lat="52.464410000" lon="13.421710000">
        <ele>43</ele>
        <time>2025-08-16T13:15:33Z</time>
      </trkpt>
      <trkpt lat="52.464360000" lon="13.421660000">
        <ele>43</ele>
        <time>2025-08-16T13:15:37Z</time>
      </trkpt>
      <trkpt lat="52.464320000" lon="13.421590000">
        <ele>43</ele>
        <time>2025-08-16T13:15:40Z</time>
      </trkpt>
      <trkpt lat="52.464280000" lon="13.421560000">
        <ele>43</ele>
        <time>2025-08-16T13:15:43Z</time>
      </trkpt>
      <trkpt lat="52.464210000" lon="13.421540000">
        <ele>43</ele>
        <time>2025-08-16T13:15:47Z</time>
      </trkpt>
      <trkpt lat="52.464150000" lon="13.421520000">
        <ele>43</ele>
        <time>2025-08-16T13:15:50Z</time>
      </trkpt>
      <trkpt lat="52.464100000" lon="13.421530000">
        <ele>43</ele>
        <time>2025-08-16T13:15:54Z</time>
      </trkpt>
      <trkpt lat="52.464050000" lon="13.421520000">
        <ele>43</ele>
        <time>2025-08-16T13:15:56Z</time>
      </trkpt>
      <trkpt lat="52.463990000" lon="13.421510000">
        <ele>43</ele>
        <time>2025-08-16T13:15:59Z</time>
      </trkpt>
      <trkpt lat="52.463950000" lon="13.421510000">
        <ele>43</ele>
        <time>2025-08-16T13:16:02Z</time>
      </trkpt>
      <trkpt lat="52.463900000" lon="13.421530000">
        <ele>43</ele>
        <time>2025-08-16T13:16:06Z</time>
      </trkpt>
      <trkpt lat="52.463850000" lon="13.421560000">
        <ele>43</ele>
        <time>2025-08-16T13:16:11Z</time>
      </trkpt>
      <trkpt lat="52.463800000" lon="13.421600000">
        <ele>43</ele>
        <time>2025-08-16T13:16:15Z</time>
      </trkpt>
      <trkpt lat="52.463760000" lon="13.421610000">
        <ele>43</ele>
        <time>2025-08-16T13:16:20Z</time>
      </trkpt>
      <trkpt lat="52.463710000" lon="13.421610000">
        <ele>43</ele>
        <time>2025-08-16T13:16:23Z</time>
      </trkpt>
      <trkpt lat="52.463650000" lon="13.421630000">
        <ele>43</ele>
        <time>2025-08-16T13:16:26Z</time>
      </trkpt>
      <trkpt lat="52.463610000" lon="13.421630000">
        <ele>43</ele>
        <time>2025-08-16T13:16:29Z</time>
      </trkpt>
      <trkpt lat="52.463560000" lon="13.421630000">
        <ele>43</ele>
        <time>2025-08-16T13:16:33Z</time>
      </trkpt>
      <trkpt lat="52.463500000" lon="13.421600000">
        <ele>43</ele>
        <time>2025-08-16T13:16:37Z</time>
      </trkpt>
      <trkpt lat="52.463460000" lon="13.421590000">
        <ele>43</ele>
        <time>2025-08-16T13:16:41Z</time>
      </trkpt>
      <trkpt lat="52.463410000" lon="13.421590000">
        <ele>43</ele>
        <time>2025-08-16T13:16:44Z</time>
      </trkpt>
      <trkpt lat="52.463360000" lon="13.421590000">
        <ele>43</ele>
        <time>2025-08-16T13:16:48Z</time>
      </trkpt>
      <trkpt lat="52.463300000" lon="13.421590000">
        <ele>43</ele>
        <time>2025-08-16T13:16:53Z</time>
      </trkpt>
      <trkpt lat="52.463150000" lon="13.421610000">
        <ele>43</ele>
        <time>2025-08-16T13:17:03Z</time>
      </trkpt>
      <trkpt lat="52.463110000" lon="13.421610000">
        <ele>43</ele>
        <time>2025-08-16T13:17:07Z</time>
      </trkpt>
      <trkpt lat="52.463050000" lon="13.421630000">
        <ele>43</ele>
        <time>2025-08-16T13:17:11Z</time>
      </trkpt>
      <trkpt lat="52.463000000" lon="13.421650000">
        <ele>42</ele>
        <time>2025-08-16T13:17:16Z</time>
      </trkpt>
      <trkpt lat="52.462950000" lon="13.421670000">
        <ele>42</ele>
        <time>2025-08-16T13:17:19Z</time>
      </trkpt>
      <trkpt lat="52.462900000" lon="13.421690000">
        <ele>42</ele>
        <time>2025-08-16T13:17:24Z</time>
      </trkpt>
      <trkpt lat="52.462850000" lon="13.421700000">
        <ele>42</ele>
        <time>2025-08-16T13:17:27Z</time>
      </trkpt>
      <trkpt lat="52.462810000" lon="13.421720000">
        <ele>42</ele>
        <time>2025-08-16T13:17:30Z</time>
      </trkpt>
      <trkpt lat="52.462760000" lon="13.421750000">
        <ele>42</ele>
        <time>2025-08-16T13:17:34Z</time>
      </trkpt>
      <trkpt lat="52.462710000" lon="13.421770000">
        <ele>42</ele>
        <time>2025-08-16T13:17:37Z</time>
      </trkpt>
      <trkpt lat="52.462650000" lon="13.421800000">
        <ele>42</ele>
        <time>2025-08-16T13:17:40Z</time>
      </trkpt>
      <trkpt lat="52.462600000" lon="13.421800000">
        <ele>42</ele>
        <time>2025-08-16T13:17:43Z</time>
      </trkpt>
      <trkpt lat="52.462550000" lon="13.421820000">
        <ele>42</ele>
        <time>2025-08-16T13:17:46Z</time>
      </trkpt>
      <trkpt lat="52.462520000" lon="13.421870000">
        <ele>42</ele>
        <time>2025-08-16T13:17:50Z</time>
      </trkpt>
      <trkpt lat="52.462470000" lon="13.421910000">
        <ele>42</ele>
        <time>2025-08-16T13:17:55Z</time>
      </trkpt>
      <trkpt lat="52.462420000" lon="13.421950000">
        <ele>42</ele>
        <time>2025-08-16T13:18:03Z</time>
      </trkpt>
      <trkpt lat="52.462370000" lon="13.421960000">
        <ele>42</ele>
        <time>2025-08-16T13:18:08Z</time>
      </trkpt>
      <trkpt lat="52.462320000" lon="13.421970000">
        <ele>42</ele>
        <time>2025-08-16T13:18:12Z</time>
      </trkpt>
      <trkpt lat="52.462270000" lon="13.421990000">
        <ele>42</ele>
        <time>2025-08-16T13:18:17Z</time>
      </trkpt>
      <trkpt lat="52.462220000" lon="13.421990000">
        <ele>42</ele>
        <time>2025-08-16T13:18:21Z</time>
      </trkpt>
      <trkpt lat="52.462170000" lon="13.421990000">
        <ele>42</ele>
        <time>2025-08-16T13:18:25Z</time>
      </trkpt>
      <trkpt lat="52.462120000" lon="13.421990000">
        <ele>42</ele>
        <time>2025-08-16T13:18:29Z</time>
      </trkpt>
      <trkpt lat="52.462070000" lon="13.422030000">
        <ele>42</ele>
        <time>2025-08-16T13:18:33Z</time>
      </trkpt>
      <trkpt lat="52.462020000" lon="13.422070000">
        <ele>43</ele>
        <time>2025-08-16T13:18:36Z</time>
      </trkpt>
      <trkpt lat="52.461980000" lon="13.422120000">
        <ele>43</ele>
        <time>2025-08-16T13:18:39Z</time>
      </trkpt>
      <trkpt lat="52.461930000" lon="13.422160000">
        <ele>43</ele>
        <time>2025-08-16T13:18:43Z</time>
      </trkpt>
      <trkpt lat="52.461890000" lon="13.422200000">
        <ele>43</ele>
        <time>2025-08-16T13:18:47Z</time>
      </trkpt>
      <trkpt lat="52.461840000" lon="13.422220000">
        <ele>42</ele>
        <time>2025-08-16T13:18:51Z</time>
      </trkpt>
      <trkpt lat="52.461790000" lon="13.422250000">
        <ele>42</ele>
        <time>2025-08-16T13:18:56Z</time>
      </trkpt>
      <trkpt lat="52.461750000" lon="13.422300000">
        <ele>42</ele>
        <time>2025-08-16T13:19:00Z</time>
      </trkpt>
      <trkpt lat="52.461700000" lon="13.422350000">
        <ele>42</ele>
        <time>2025-08-16T13:19:04Z</time>
      </trkpt>
      <trkpt lat="52.461670000" lon="13.422390000">
        <ele>42</ele>
        <time>2025-08-16T13:19:08Z</time>
      </trkpt>
      <trkpt lat="52.461630000" lon="13.422450000">
        <ele>42</ele>
        <time>2025-08-16T13:19:11Z</time>
      </trkpt>
      <trkpt lat="52.461590000" lon="13.422490000">
        <ele>42</ele>
        <time>2025-08-16T13:19:15Z</time>
      </trkpt>
      <trkpt lat="52.461560000" lon="13.422550000">
        <ele>42</ele>
        <time>2025-08-16T13:19:19Z</time>
      </trkpt>
      <trkpt lat="52.461520000" lon="13.422620000">
        <ele>42</ele>
        <time>2025-08-16T13:19:23Z</time>
      </trkpt>
      <trkpt lat="52.461490000" lon="13.422680000">
        <ele>42</ele>
        <time>2025-08-16T13:19:26Z</time>
      </trkpt>
      <trkpt lat="52.461460000" lon="13.422740000">
        <ele>42</ele>
        <time>2025-08-16T13:19:30Z</time>
      </trkpt>
      <trkpt lat="52.461440000" lon="13.422820000">
        <ele>42</ele>
        <time>2025-08-16T13:19:34Z</time>
      </trkpt>
      <trkpt lat="52.461410000" lon="13.423000000">
        <ele>42</ele>
        <time>2025-08-16T13:19:44Z</time>
      </trkpt>
      <trkpt lat="52.461390000" lon="13.423080000">
        <ele>42</ele>
        <time>2025-08-16T13:19:50Z</time>
      </trkpt>
      <trkpt lat="52.461390000" lon="13.423150000">
        <ele>42</ele>
        <time>2025-08-16T13:19:55Z</time>
      </trkpt>
      <trkpt lat="52.461370000" lon="13.423240000">
        <ele>42</ele>
        <time>2025-08-16T13:19:58Z</time>
      </trkpt>
      <trkpt lat="52.461380000" lon="13.423320000">
        <ele>42</ele>
        <time>2025-08-16T13:20:04Z</time>
      </trkpt>
      <trkpt lat="52.461380000" lon="13.423420000">
        <ele>42</ele>
        <time>2025-08-16T13:20:10Z</time>
      </trkpt>
      <trkpt lat="52.461380000" lon="13.423510000">
        <ele>42</ele>
        <time>2025-08-16T13:20:14Z</time>
      </trkpt>
      <trkpt lat="52.461380000" lon="13.423600000">
        <ele>42</ele>
        <time>2025-08-16T13:20:17Z</time>
      </trkpt>
      <trkpt lat="52.461380000" lon="13.423680000">
        <ele>42</ele>
        <time>2025-08-16T13:20:20Z</time>
      </trkpt>
      <trkpt lat="52.461370000" lon="13.423760000">
        <ele>42</ele>
        <time>2025-08-16T13:20:23Z</time>
      </trkpt>
      <trkpt lat="52.461370000" lon="13.423860000">
        <ele>42</ele>
        <time>2025-08-16T13:20:28Z</time>
      </trkpt>
      <trkpt lat="52.461390000" lon="13.423940000">
        <ele>42</ele>
        <time>2025-08-16T13:20:31Z</time>
      </trkpt>
      <trkpt lat="52.461400000" lon="13.424020000">
        <ele>42</ele>
        <time>2025-08-16T13:20:35Z</time>
      </trkpt>
      <trkpt lat="52.461410000" lon="13.424110000">
        <ele>42</ele>
        <time>2025-08-16T13:20:39Z</time>
      </trkpt>
      <trkpt lat="52.461410000" lon="13.424200000">
        <ele>42</ele>
        <time>2025-08-16T13:20:43Z</time>
      </trkpt>
      <trkpt lat="52.461430000" lon="13.424270000">
        <ele>42</ele>
        <time>2025-08-16T13:20:47Z</time>
      </trkpt>
      <trkpt lat="52.461440000" lon="13.424360000">
        <ele>42</ele>
        <time>2025-08-16T13:20:52Z</time>
      </trkpt>
      <trkpt lat="52.461450000" lon="13.424440000">
        <ele>42</ele>
        <time>2025-08-16T13:20:55Z</time>
      </trkpt>
      <trkpt lat="52.461450000" lon="13.424540000">
        <ele>42</ele>
        <time>2025-08-16T13:20:59Z</time>
      </trkpt>
      <trkpt lat="52.461450000" lon="13.424620000">
        <ele>42</ele>
        <time>2025-08-16T13:21:02Z</time>
      </trkpt>
      <trkpt lat="52.461460000" lon="13.424690000">
        <ele>41</ele>
        <time>2025-08-16T13:21:06Z</time>
      </trkpt>
      <trkpt lat="52.461470000" lon="13.424770000">
        <ele>41</ele>
        <time>2025-08-16T13:21:09Z</time>
      </trkpt>
      <trkpt lat="52.461480000" lon="13.424850000">
        <ele>41</ele>
        <time>2025-08-16T13:21:13Z</time>
      </trkpt>
      <trkpt lat="52.461500000" lon="13.424940000">
        <ele>41</ele>
        <time>2025-08-16T13:21:18Z</time>
      </trkpt>
      <trkpt lat="52.461500000" lon="13.425030000">
        <ele>41</ele>
        <time>2025-08-16T13:21:22Z</time>
      </trkpt>
      <trkpt lat="52.461510000" lon="13.425140000">
        <ele>41</ele>
        <time>2025-08-16T13:21:26Z</time>
      </trkpt>
      <trkpt lat="52.461520000" lon="13.425210000">
        <ele>41</ele>
        <time>2025-08-16T13:21:30Z</time>
      </trkpt>
      <trkpt lat="52.461530000" lon="13.425290000">
        <ele>41</ele>
        <time>2025-08-16T13:21:35Z</time>
      </trkpt>
      <trkpt lat="52.461540000" lon="13.425370000">
        <ele>41</ele>
        <time>2025-08-16T13:21:40Z</time>
      </trkpt>
      <trkpt lat="52.461550000" lon="13.425460000">
        <ele>41</ele>
        <time>2025-08-16T13:21:44Z</time>
      </trkpt>
      <trkpt lat="52.461560000" lon="13.425540000">
        <ele>41</ele>
        <time>2025-08-16T13:21:49Z</time>
      </trkpt>
      <trkpt lat="52.461570000" lon="13.425620000">
        <ele>41</ele>
        <time>2025-08-16T13:21:55Z</time>
      </trkpt>
      <trkpt lat="52.461560000" lon="13.425690000">
        <ele>41</ele>
        <time>2025-08-16T13:22:01Z</time>
      </trkpt>
      <trkpt lat="52.461570000" lon="13.425770000">
        <ele>41</ele>
        <time>2025-08-16T13:22:09Z</time>
      </trkpt>
      <trkpt lat="52.461580000" lon="13.425850000">
        <ele>41</ele>
        <time>2025-08-16T13:22:14Z</time>
      </trkpt>
      <trkpt lat="52.461580000" lon="13.425930000">
        <ele>41</ele>
        <time>2025-08-16T13:22:22Z</time>
      </trkpt>
      <trkpt lat="52.461590000" lon="13.426000000">
        <ele>41</ele>
        <time>2025-08-16T13:22:28Z</time>
      </trkpt>
      <trkpt lat="52.461600000" lon="13.426080000">
        <ele>41</ele>
        <time>2025-08-16T13:22:34Z</time>
      </trkpt>
      <trkpt lat="52.461620000" lon="13.426170000">
        <ele>41</ele>
        <time>2025-08-16T13:22:38Z</time>
      </trkpt>
      <trkpt lat="52.461590000" lon="13.426230000">
        <ele>41</ele>
        <time>2025-08-16T13:22:47Z</time>
      </trkpt>
      <trkpt lat="52.461620000" lon="13.426290000">
        <ele>41</ele>
        <time>2025-08-16T13:23:36Z</time>
      </trkpt>
      <trkpt lat="52.461630000" lon="13.426360000">
        <ele>41</ele>
        <time>2025-08-16T13:23:43Z</time>
      </trkpt>
      <trkpt lat="52.461660000" lon="13.426450000">
        <ele>41</ele>
        <time>2025-08-16T13:23:49Z</time>
      </trkpt>
      <trkpt lat="52.461700000" lon="13.426500000">
        <ele>41</ele>
        <time>2025-08-16T13:23:59Z</time>
      </trkpt>
      <trkpt lat="52.461710000" lon="13.426570000">
        <ele>41</ele>
        <time>2025-08-16T13:24:09Z</time>
      </trkpt>
      <trkpt lat="52.461710000" lon="13.426660000">
        <ele>41</ele>
        <time>2025-08-16T13:24:15Z</time>
      </trkpt>
      <trkpt lat="52.461710000" lon="13.426750000">
        <ele>41</ele>
        <time>2025-08-16T13:24:20Z</time>
      </trkpt>
      <trkpt lat="52.461690000" lon="13.426820000">
        <ele>41</ele>
        <time>2025-08-16T13:24:37Z</time>
      </trkpt>
      <trkpt lat="52.461710000" lon="13.426890000">
        <ele>42</ele>
        <time>2025-08-16T13:24:43Z</time>
      </trkpt>
      <trkpt lat="52.461720000" lon="13.426980000">
        <ele>42</ele>
        <time>2025-08-16T13:24:48Z</time>
      </trkpt>
      <trkpt lat="52.461730000" lon="13.427070000">
        <ele>42</ele>
        <time>2025-08-16T13:24:52Z</time>
      </trkpt>
      <trkpt lat="52.461740000" lon="13.427140000">
        <ele>42</ele>
        <time>2025-08-16T13:24:57Z</time>
      </trkpt>
      <trkpt lat="52.461750000" lon="13.427230000">
        <ele>41</ele>
        <time>2025-08-16T13:25:02Z</time>
      </trkpt>
      <trkpt lat="52.461760000" lon="13.427310000">
        <ele>41</ele>
        <time>2025-08-16T13:25:06Z</time>
      </trkpt>
      <trkpt lat="52.461770000" lon="13.427390000">
        <ele>41</ele>
        <time>2025-08-16T13:25:10Z</time>
      </trkpt>
      <trkpt lat="52.461780000" lon="13.427480000">
        <ele>41</ele>
        <time>2025-08-16T13:25:14Z</time>
      </trkpt>
      <trkpt lat="52.461780000" lon="13.427570000">
        <ele>41</ele>
        <time>2025-08-16T13:25:18Z</time>
      </trkpt>
      <trkpt lat="52.461780000" lon="13.427650000">
        <ele>41</ele>
        <time>2025-08-16T13:25:22Z</time>
      </trkpt>
      <trkpt lat="52.461800000" lon="13.427750000">
        <ele>41</ele>
        <time>2025-08-16T13:25:26Z</time>
      </trkpt>
      <trkpt lat="52.461800000" lon="13.427830000">
        <ele>41</ele>
        <time>2025-08-16T13:25:29Z</time>
      </trkpt>
      <trkpt lat="52.461820000" lon="13.427900000">
        <ele>41</ele>
        <time>2025-08-16T13:25:33Z</time>
      </trkpt>
      <trkpt lat="52.461830000" lon="13.427970000">
        <ele>41</ele>
        <time>2025-08-16T13:25:37Z</time>
      </trkpt>
      <trkpt lat="52.461850000" lon="13.428040000">
        <ele>41</ele>
        <time>2025-08-16T13:25:41Z</time>
      </trkpt>
      <trkpt lat="52.461850000" lon="13.428130000">
        <ele>41</ele>
        <time>2025-08-16T13:25:45Z</time>
      </trkpt>
      <trkpt lat="52.461860000" lon="13.428200000">
        <ele>40</ele>
        <time>2025-08-16T13:25:48Z</time>
      </trkpt>
      <trkpt lat="52.461880000" lon="13.428290000">
        <ele>40</ele>
        <time>2025-08-16T13:25:52Z</time>
      </trkpt>
      <trkpt lat="52.461900000" lon="13.428370000">
        <ele>40</ele>
        <time>2025-08-16T13:25:56Z</time>
      </trkpt>
      <trkpt lat="52.461910000" lon="13.428440000">
        <ele>40</ele>
        <time>2025-08-16T13:25:59Z</time>
      </trkpt>
      <trkpt lat="52.461920000" lon="13.428530000">
        <ele>41</ele>
        <time>2025-08-16T13:26:03Z</time>
      </trkpt>
      <trkpt lat="52.461930000" lon="13.428620000">
        <ele>41</ele>
        <time>2025-08-16T13:26:07Z</time>
      </trkpt>
      <trkpt lat="52.461930000" lon="13.428700000">
        <ele>41</ele>
        <time>2025-08-16T13:26:12Z</time>
      </trkpt>
      <trkpt lat="52.461950000" lon="13.428800000">
        <ele>41</ele>
        <time>2025-08-16T13:26:20Z</time>
      </trkpt>
      <trkpt lat="52.461950000" lon="13.428880000">
        <ele>40</ele>
        <time>2025-08-16T13:26:30Z</time>
      </trkpt>
      <trkpt lat="52.461940000" lon="13.428970000">
        <ele>40</ele>
        <time>2025-08-16T13:26:36Z</time>
      </trkpt>
      <trkpt lat="52.461890000" lon="13.429010000">
        <ele>40</ele>
        <time>2025-08-16T13:26:43Z</time>
      </trkpt>
      <trkpt lat="52.461860000" lon="13.429060000">
        <ele>40</ele>
        <time>2025-08-16T13:26:47Z</time>
      </trkpt>
      <trkpt lat="52.461810000" lon="13.429110000">
        <ele>40</ele>
        <time>2025-08-16T13:26:52Z</time>
      </trkpt>
      <trkpt lat="52.461750000" lon="13.429140000">
        <ele>40</ele>
        <time>2025-08-16T13:26:56Z</time>
      </trkpt>
      <trkpt lat="52.461710000" lon="13.429170000">
        <ele>40</ele>
        <time>2025-08-16T13:27:00Z</time>
      </trkpt>
      <trkpt lat="52.461660000" lon="13.429190000">
        <ele>40</ele>
        <time>2025-08-16T13:27:05Z</time>
      </trkpt>
      <trkpt lat="52.461560000" lon="13.429220000">
        <ele>40</ele>
        <time>2025-08-16T13:27:15Z</time>
      </trkpt>
      <trkpt lat="52.461510000" lon="13.429220000">
        <ele>40</ele>
        <time>2025-08-16T13:27:21Z</time>
      </trkpt>
      <trkpt lat="52.461460000" lon="13.429220000">
        <ele>40</ele>
        <time>2025-08-16T13:27:26Z</time>
      </trkpt>
      <trkpt lat="52.461410000" lon="13.429220000">
        <ele>40</ele>
        <time>2025-08-16T13:27:30Z</time>
      </trkpt>
      <trkpt lat="52.461370000" lon="13.429230000">
        <ele>39</ele>
        <time>2025-08-16T13:27:35Z</time>
      </trkpt>
      <trkpt lat="52.461320000" lon="13.429250000">
        <ele>39</ele>
        <time>2025-08-16T13:27:39Z</time>
      </trkpt>
      <trkpt lat="52.461260000" lon="13.429270000">
        <ele>39</ele>
        <time>2025-08-16T13:27:44Z</time>
      </trkpt>
      <trkpt lat="52.461210000" lon="13.429290000">
        <ele>39</ele>
        <time>2025-08-16T13:27:48Z</time>
      </trkpt>
      <trkpt lat="52.461160000" lon="13.429320000">
        <ele>38</ele>
        <time>2025-08-16T13:27:51Z</time>
      </trkpt>
      <trkpt lat="52.461110000" lon="13.429340000">
        <ele>38</ele>
        <time>2025-08-16T13:27:55Z</time>
      </trkpt>
      <trkpt lat="52.461060000" lon="13.429360000">
        <ele>38</ele>
        <time>2025-08-16T13:27:59Z</time>
      </trkpt>
      <trkpt lat="52.461010000" lon="13.429380000">
        <ele>38</ele>
        <time>2025-08-16T13:28:03Z</time>
      </trkpt>
      <trkpt lat="52.460960000" lon="13.429390000">
        <ele>38</ele>
        <time>2025-08-16T13:28:06Z</time>
      </trkpt>
      <trkpt lat="52.460910000" lon="13.429370000">
        <ele>38</ele>
        <time>2025-08-16T13:28:09Z</time>
      </trkpt>
      <trkpt lat="52.460860000" lon="13.429380000">
        <ele>38</ele>
        <time>2025-08-16T13:28:13Z</time>
      </trkpt>
      <trkpt lat="52.460810000" lon="13.429410000">
        <ele>38</ele>
        <time>2025-08-16T13:28:17Z</time>
      </trkpt>
      <trkpt lat="52.460770000" lon="13.429430000">
        <ele>38</ele>
        <time>2025-08-16T13:28:20Z</time>
      </trkpt>
      <trkpt lat="52.460720000" lon="13.429460000">
        <ele>38</ele>
        <time>2025-08-16T13:28:23Z</time>
      </trkpt>
      <trkpt lat="52.460670000" lon="13.429480000">
        <ele>38</ele>
        <time>2025-08-16T13:28:27Z</time>
      </trkpt>
      <trkpt lat="52.460630000" lon="13.429530000">
        <ele>38</ele>
        <time>2025-08-16T13:28:32Z</time>
      </trkpt>
      <trkpt lat="52.460580000" lon="13.429590000">
        <ele>38</ele>
        <time>2025-08-16T13:28:36Z</time>
      </trkpt>
      <trkpt lat="52.460530000" lon="13.429640000">
        <ele>38</ele>
        <time>2025-08-16T13:28:40Z</time>
      </trkpt>
      <trkpt lat="52.460490000" lon="13.429680000">
        <ele>38</ele>
        <time>2025-08-16T13:28:43Z</time>
      </trkpt>
      <trkpt lat="52.460450000" lon="13.429740000">
        <ele>38</ele>
        <time>2025-08-16T13:28:46Z</time>
      </trkpt>
      <trkpt lat="52.460390000" lon="13.429790000">
        <ele>37</ele>
        <time>2025-08-16T13:28:49Z</time>
      </trkpt>
      <trkpt lat="52.460340000" lon="13.429800000">
        <ele>37</ele>
        <time>2025-08-16T13:28:53Z</time>
      </trkpt>
      <trkpt lat="52.460270000" lon="13.429790000">
        <ele>37</ele>
        <time>2025-08-16T13:28:56Z</time>
      </trkpt>
      <trkpt lat="52.460230000" lon="13.429740000">
        <ele>37</ele>
        <time>2025-08-16T13:28:59Z</time>
      </trkpt>
      <trkpt lat="52.460180000" lon="13.429710000">
        <ele>37</ele>
        <time>2025-08-16T13:29:04Z</time>
      </trkpt>
      <trkpt lat="52.460130000" lon="13.429670000">
        <ele>37</ele>
        <time>2025-08-16T13:29:09Z</time>
      </trkpt>
      <trkpt lat="52.460090000" lon="13.429650000">
        <ele>37</ele>
        <time>2025-08-16T13:29:14Z</time>
      </trkpt>
      <trkpt lat="52.460070000" lon="13.429730000">
        <ele>37</ele>
        <time>2025-08-16T13:29:20Z</time>
      </trkpt>
      <trkpt lat="52.460090000" lon="13.429810000">
        <ele>37</ele>
        <time>2025-08-16T13:29:28Z</time>
      </trkpt>
      <trkpt lat="52.460100000" lon="13.429880000">
        <ele>37</ele>
        <time>2025-08-16T13:29:37Z</time>
      </trkpt>
      <trkpt lat="52.460070000" lon="13.429950000">
        <ele>36</ele>
        <time>2025-08-16T13:29:47Z</time>
      </trkpt>
      <trkpt lat="52.460020000" lon="13.429960000">
        <ele>36</ele>
        <time>2025-08-16T13:29:51Z</time>
      </trkpt>
      <trkpt lat="52.459970000" lon="13.429940000">
        <ele>36</ele>
        <time>2025-08-16T13:29:56Z</time>
      </trkpt>
      <trkpt lat="52.459820000" lon="13.429990000">
        <ele>36</ele>
        <time>2025-08-16T13:30:05Z</time>
      </trkpt>
      <trkpt lat="52.459770000" lon="13.430020000">
        <ele>37</ele>
        <time>2025-08-16T13:30:10Z</time>
      </trkpt>
      <trkpt lat="52.459720000" lon="13.430000000">
        <ele>37</ele>
        <time>2025-08-16T13:30:15Z</time>
      </trkpt>
      <trkpt lat="52.459570000" lon="13.429950000">
        <ele>37</ele>
        <time>2025-08-16T13:30:27Z</time>
      </trkpt>
      <trkpt lat="52.459520000" lon="13.429960000">
        <ele>37</ele>
        <time>2025-08-16T13:30:34Z</time>
      </trkpt>
      <trkpt lat="52.459480000" lon="13.429970000">
        <ele>36</ele>
        <time>2025-08-16T13:30:40Z</time>
      </trkpt>
      <trkpt lat="52.459430000" lon="13.429970000">
        <ele>36</ele>
        <time>2025-08-16T13:30:46Z</time>
      </trkpt>
      <trkpt lat="52.459380000" lon="13.429990000">
        <ele>36</ele>
        <time>2025-08-16T13:30:52Z</time>
      </trkpt>
      <trkpt lat="52.459330000" lon="13.430000000">
        <ele>36</ele>
        <time>2025-08-16T13:30:57Z</time>
      </trkpt>
      <trkpt lat="52.459280000" lon="13.430000000">
        <ele>36</ele>
        <time>2025-08-16T13:31:03Z</time>
      </trkpt>
      <trkpt lat="52.459240000" lon="13.429990000">
        <ele>36</ele>
        <time>2025-08-16T13:31:08Z</time>
      </trkpt>
      <trkpt lat="52.459180000" lon="13.430030000">
        <ele>36</ele>
        <time>2025-08-16T13:31:14Z</time>
      </trkpt>
      <trkpt lat="52.459130000" lon="13.430020000">
        <ele>36</ele>
        <time>2025-08-16T13:31:18Z</time>
      </trkpt>
      <trkpt lat="52.459080000" lon="13.430040000">
        <ele>36</ele>
        <time>2025-08-16T13:31:23Z</time>
      </trkpt>
      <trkpt lat="52.459030000" lon="13.430050000">
        <ele>36</ele>
        <time>2025-08-16T13:31:27Z</time>
      </trkpt>
      <trkpt lat="52.458980000" lon="13.430060000">
        <ele>36</ele>
        <time>2025-08-16T13:31:33Z</time>
      </trkpt>
      <trkpt lat="52.458930000" lon="13.430070000">
        <ele>36</ele>
        <time>2025-08-16T13:31:42Z</time>
      </trkpt>
      <trkpt lat="52.458890000" lon="13.430090000">
        <ele>36</ele>
        <time>2025-08-16T13:31:48Z</time>
      </trkpt>
      <trkpt lat="52.458840000" lon="13.430090000">
        <ele>36</ele>
        <time>2025-08-16T13:31:53Z</time>
      </trkpt>
      <trkpt lat="52.458790000" lon="13.430090000">
        <ele>36</ele>
        <time>2025-08-16T13:31:58Z</time>
      </trkpt>
      <trkpt lat="52.458740000" lon="13.430080000">
        <ele>36</ele>
        <time>2025-08-16T13:32:03Z</time>
      </trkpt>
      <trkpt lat="52.458690000" lon="13.430090000">
        <ele>36</ele>
        <time>2025-08-16T13:32:09Z</time>
      </trkpt>
      <trkpt lat="52.458630000" lon="13.430090000">
        <ele>35</ele>
        <time>2025-08-16T13:32:14Z</time>
      </trkpt>
      <trkpt lat="52.458580000" lon="13.430080000">
        <ele>35</ele>
        <time>2025-08-16T13:32:19Z</time>
      </trkpt>
      <trkpt lat="52.458530000" lon="13.430070000">
        <ele>35</ele>
        <time>2025-08-16T13:32:25Z</time>
      </trkpt>
      <trkpt lat="52.458480000" lon="13.430070000">
        <ele>35</ele>
        <time>2025-08-16T13:32:30Z</time>
      </trkpt>
      <trkpt lat="52.458430000" lon="13.430080000">
        <ele>35</ele>
        <time>2025-08-16T13:32:35Z</time>
      </trkpt>
      <trkpt lat="52.458380000" lon="13.430110000">
        <ele>35</ele>
        <time>2025-08-16T13:32:42Z</time>
      </trkpt>
      <trkpt lat="52.458330000" lon="13.430110000">
        <ele>35</ele>
        <time>2025-08-16T13:32:47Z</time>
      </trkpt>
      <trkpt lat="52.458290000" lon="13.430120000">
        <ele>34</ele>
        <time>2025-08-16T13:32:52Z</time>
      </trkpt>
      <trkpt lat="52.458240000" lon="13.430130000">
        <ele>34</ele>
        <time>2025-08-16T13:32:58Z</time>
      </trkpt>
      <trkpt lat="52.458180000" lon="13.430120000">
        <ele>34</ele>
        <time>2025-08-16T13:33:03Z</time>
      </trkpt>
      <trkpt lat="52.458130000" lon="13.430120000">
        <ele>34</ele>
        <time>2025-08-16T13:33:08Z</time>
      </trkpt>
      <trkpt lat="52.458090000" lon="13.430120000">
        <ele>34</ele>
        <time>2025-08-16T13:33:13Z</time>
      </trkpt>
      <trkpt lat="52.458040000" lon="13.430120000">
        <ele>34</ele>
        <time>2025-08-16T13:33:19Z</time>
      </trkpt>
      <trkpt lat="52.457990000" lon="13.430140000">
        <ele>34</ele>
        <time>2025-08-16T13:33:25Z</time>
      </trkpt>
      <trkpt lat="52.457940000" lon="13.430140000">
        <ele>34</ele>
        <time>2025-08-16T13:33:40Z</time>
      </trkpt>
      <trkpt lat="52.457900000" lon="13.430160000">
        <ele>34</ele>
        <time>2025-08-16T13:33:50Z</time>
      </trkpt>
      <trkpt lat="52.457850000" lon="13.430170000">
        <ele>33</ele>
        <time>2025-08-16T13:33:55Z</time>
      </trkpt>
      <trkpt lat="52.457800000" lon="13.430180000">
        <ele>33</ele>
        <time>2025-08-16T13:34:01Z</time>
      </trkpt>
      <trkpt lat="52.457750000" lon="13.430160000">
        <ele>33</ele>
        <time>2025-08-16T13:34:06Z</time>
      </trkpt>
      <trkpt lat="52.457710000" lon="13.430160000">
        <ele>33</ele>
        <time>2025-08-16T13:34:10Z</time>
      </trkpt>
      <trkpt lat="52.457660000" lon="13.430170000">
        <ele>33</ele>
        <time>2025-08-16T13:34:16Z</time>
      </trkpt>
      <trkpt lat="52.457610000" lon="13.430180000">
        <ele>33</ele>
        <time>2025-08-16T13:34:21Z</time>
      </trkpt>
      <trkpt lat="52.457580000" lon="13.430240000">
        <ele>33</ele>
        <time>2025-08-16T13:34:30Z</time>
      </trkpt>
      <trkpt lat="52.457560000" lon="13.430300000">
        <ele>32</ele>
        <time>2025-08-16T13:34:38Z</time>
      </trkpt>
      <trkpt lat="52.457540000" lon="13.430380000">
        <ele>32</ele>
        <time>2025-08-16T13:34:49Z</time>
      </trkpt>
      <trkpt lat="52.457550000" lon="13.430460000">
        <ele>32</ele>
        <time>2025-08-16T13:34:55Z</time>
      </trkpt>
      <trkpt lat="52.457530000" lon="13.430570000">
        <ele>32</ele>
        <time>2025-08-16T13:35:02Z</time>
      </trkpt>
      <trkpt lat="52.457520000" lon="13.430650000">
        <ele>32</ele>
        <time>2025-08-16T13:35:11Z</time>
      </trkpt>
      <trkpt lat="52.457540000" lon="13.430720000">
        <ele>32</ele>
        <time>2025-08-16T13:35:16Z</time>
      </trkpt>
      <trkpt lat="52.457570000" lon="13.430790000">
        <ele>32</ele>
        <time>2025-08-16T13:35:22Z</time>
      </trkpt>
      <trkpt lat="52.457610000" lon="13.430850000">
        <ele>32</ele>
        <time>2025-08-16T13:35:45Z</time>
      </trkpt>
      <trkpt lat="52.457630000" lon="13.430920000">
        <ele>33</ele>
        <time>2025-08-16T13:35:49Z</time>
      </trkpt>
      <trkpt lat="52.457650000" lon="13.430990000">
        <ele>33</ele>
        <time>2025-08-16T13:35:54Z</time>
      </trkpt>
      <trkpt lat="52.457680000" lon="13.431070000">
        <ele>33</ele>
        <time>2025-08-16T13:35:59Z</time>
      </trkpt>
      <trkpt lat="52.457690000" lon="13.431150000">
        <ele>33</ele>
        <time>2025-08-16T13:36:04Z</time>
      </trkpt>
      <trkpt lat="52.457710000" lon="13.431230000">
        <ele>33</ele>
        <time>2025-08-16T13:36:09Z</time>
      </trkpt>
      <trkpt lat="52.457730000" lon="13.431310000">
        <ele>33</ele>
        <time>2025-08-16T13:36:14Z</time>
      </trkpt>
      <trkpt lat="52.457760000" lon="13.431380000">
        <ele>33</ele>
        <time>2025-08-16T13:36:20Z</time>
      </trkpt>
      <trkpt lat="52.457780000" lon="13.431440000">
        <ele>33</ele>
        <time>2025-08-16T13:36:25Z</time>
      </trkpt>
      <trkpt lat="52.457800000" lon="13.431510000">
        <ele>33</ele>
        <time>2025-08-16T13:36:29Z</time>
      </trkpt>
      <trkpt lat="52.457830000" lon="13.431590000">
        <ele>33</ele>
        <time>2025-08-16T13:36:33Z</time>
      </trkpt>
      <trkpt lat="52.457840000" lon="13.431670000">
        <ele>33</ele>
        <time>2025-08-16T13:36:37Z</time>
      </trkpt>
      <trkpt lat="52.457850000" lon="13.431750000">
        <ele>33</ele>
        <time>2025-08-16T13:36:41Z</time>
      </trkpt>
      <trkpt lat="52.457880000" lon="13.431820000">
        <ele>32</ele>
        <time>2025-08-16T13:36:46Z</time>
      </trkpt>
      <trkpt lat="52.457910000" lon="13.431900000">
        <ele>32</ele>
        <time>2025-08-16T13:36:50Z</time>
      </trkpt>
      <trkpt lat="52.457930000" lon="13.431970000">
        <ele>32</ele>
        <time>2025-08-16T13:36:54Z</time>
      </trkpt>
      <trkpt lat="52.457950000" lon="13.432030000">
        <ele>32</ele>
        <time>2025-08-16T13:36:58Z</time>
      </trkpt>
      <trkpt lat="52.457980000" lon="13.432120000">
        <ele>33</ele>
        <time>2025-08-16T13:37:02Z</time>
      </trkpt>
      <trkpt lat="52.458000000" lon="13.432200000">
        <ele>33</ele>
        <time>2025-08-16T13:37:06Z</time>
      </trkpt>
      <trkpt lat="52.458010000" lon="13.432290000">
        <ele>33</ele>
        <time>2025-08-16T13:37:11Z</time>
      </trkpt>
      <trkpt lat="52.458040000" lon="13.432360000">
        <ele>33</ele>
        <time>2025-08-16T13:37:15Z</time>
      </trkpt>
      <trkpt lat="52.458050000" lon="13.432450000">
        <ele>33</ele>
        <time>2025-08-16T13:37:19Z</time>
      </trkpt>
      <trkpt lat="52.458070000" lon="13.432520000">
        <ele>33</ele>
        <time>2025-08-16T13:37:23Z</time>
      </trkpt>
      <trkpt lat="52.458090000" lon="13.432590000">
        <ele>33</ele>
        <time>2025-08-16T13:37:27Z</time>
      </trkpt>
      <trkpt lat="52.458110000" lon="13.432670000">
        <ele>33</ele>
        <time>2025-08-16T13:37:32Z</time>
      </trkpt>
      <trkpt lat="52.458130000" lon="13.432740000">
        <ele>33</ele>
        <time>2025-08-16T13:37:35Z</time>
      </trkpt>
      <trkpt lat="52.458150000" lon="13.432830000">
        <ele>32</ele>
        <time>2025-08-16T13:37:39Z</time>
      </trkpt>
      <trkpt lat="52.458160000" lon="13.432900000">
        <ele>32</ele>
        <time>2025-08-16T13:37:43Z</time>
      </trkpt>
      <trkpt lat="52.458180000" lon="13.432990000">
        <ele>32</ele>
        <time>2025-08-16T13:37:47Z</time>
      </trkpt>
      <trkpt lat="52.458190000" lon="13.433070000">
        <ele>32</ele>
        <time>2025-08-16T13:37:51Z</time>
      </trkpt>
      <trkpt lat="52.458200000" lon="13.433140000">
        <ele>32</ele>
        <time>2025-08-16T13:37:55Z</time>
      </trkpt>
      <trkpt lat="52.458210000" lon="13.433220000">
        <ele>32</ele>
        <time>2025-08-16T13:38:00Z</time>
      </trkpt>
      <trkpt lat="52.458210000" lon="13.433290000">
        <ele>32</ele>
        <time>2025-08-16T13:38:05Z</time>
      </trkpt>
      <trkpt lat="52.458230000" lon="13.433390000">
        <ele>33</ele>
        <time>2025-08-16T13:38:11Z</time>
      </trkpt>
      <trkpt lat="52.458250000" lon="13.433460000">
        <ele>33</ele>
        <time>2025-08-16T13:38:16Z</time>
      </trkpt>
      <trkpt lat="52.458270000" lon="13.433540000">
        <ele>33</ele>
        <time>2025-08-16T13:38:21Z</time>
      </trkpt>
      <trkpt lat="52.458270000" lon="13.433630000">
        <ele>33</ele>
        <time>2025-08-16T13:38:25Z</time>
      </trkpt>
      <trkpt lat="52.458280000" lon="13.433710000">
        <ele>33</ele>
        <time>2025-08-16T13:38:29Z</time>
      </trkpt>
      <trkpt lat="52.458290000" lon="13.433800000">
        <ele>33</ele>
        <time>2025-08-16T13:38:33Z</time>
      </trkpt>
      <trkpt lat="52.458310000" lon="13.433880000">
        <ele>33</ele>
        <time>2025-08-16T13:38:37Z</time>
      </trkpt>
      <trkpt lat="52.458320000" lon="13.433970000">
        <ele>33</ele>
        <time>2025-08-16T13:38:43Z</time>
      </trkpt>
      <trkpt lat="52.458330000" lon="13.434050000">
        <ele>33</ele>
        <time>2025-08-16T13:38:47Z</time>
      </trkpt>
      <trkpt lat="52.458340000" lon="13.434130000">
        <ele>33</ele>
        <time>2025-08-16T13:38:51Z</time>
      </trkpt>
      <trkpt lat="52.458350000" lon="13.434210000">
        <ele>33</ele>
        <time>2025-08-16T13:38:55Z</time>
      </trkpt>
      <trkpt lat="52.458360000" lon="13.434300000">
        <ele>33</ele>
        <time>2025-08-16T13:38:59Z</time>
      </trkpt>
      <trkpt lat="52.458370000" lon="13.434380000">
        <ele>33</ele>
        <time>2025-08-16T13:39:02Z</time>
      </trkpt>
      <trkpt lat="52.458390000" lon="13.434460000">
        <ele>33</ele>
        <time>2025-08-16T13:39:06Z</time>
      </trkpt>
      <trkpt lat="52.458390000" lon="13.434540000">
        <ele>33</ele>
        <time>2025-08-16T13:39:09Z</time>
      </trkpt>
      <trkpt lat="52.458410000" lon="13.434610000">
        <ele>33</ele>
        <time>2025-08-16T13:39:14Z</time>
      </trkpt>
      <trkpt lat="52.458430000" lon="13.434690000">
        <ele>33</ele>
        <time>2025-08-16T13:39:19Z</time>
      </trkpt>
      <trkpt lat="52.458440000" lon="13.434760000">
        <ele>33</ele>
        <time>2025-08-16T13:39:23Z</time>
      </trkpt>
      <trkpt lat="52.458460000" lon="13.434870000">
        <ele>33</ele>
        <time>2025-08-16T13:39:27Z</time>
      </trkpt>
      <trkpt lat="52.458460000" lon="13.434940000">
        <ele>33</ele>
        <time>2025-08-16T13:39:29Z</time>
      </trkpt>
      <trkpt lat="52.458460000" lon="13.435030000">
        <ele>33</ele>
        <time>2025-08-16T13:39:34Z</time>
      </trkpt>
      <trkpt lat="52.458460000" lon="13.435100000">
        <ele>33</ele>
        <time>2025-08-16T13:39:39Z</time>
      </trkpt>
      <trkpt lat="52.458460000" lon="13.435180000">
        <ele>33</ele>
        <time>2025-08-16T13:39:46Z</time>
      </trkpt>
      <trkpt lat="52.458470000" lon="13.435260000">
        <ele>33</ele>
        <time>2025-08-16T13:39:51Z</time>
      </trkpt>
      <trkpt lat="52.458490000" lon="13.435330000">
        <ele>33</ele>
        <time>2025-08-16T13:39:56Z</time>
      </trkpt>
      <trkpt lat="52.458510000" lon="13.435410000">
        <ele>33</ele>
        <time>2025-08-16T13:40:02Z</time>
      </trkpt>
      <trkpt lat="52.458510000" lon="13.435490000">
        <ele>33</ele>
        <time>2025-08-16T13:40:06Z</time>
      </trkpt>
      <trkpt lat="52.458500000" lon="13.435560000">
        <ele>33</ele>
        <time>2025-08-16T13:40:11Z</time>
      </trkpt>
      <trkpt lat="52.458500000" lon="13.435640000">
        <ele>33</ele>
        <time>2025-08-16T13:40:17Z</time>
      </trkpt>
      <trkpt lat="52.458500000" lon="13.435730000">
        <ele>34</ele>
        <time>2025-08-16T13:40:22Z</time>
      </trkpt>
      <trkpt lat="52.458500000" lon="13.435810000">
        <ele>34</ele>
        <time>2025-08-16T13:40:27Z</time>
      </trkpt>
      <trkpt lat="52.458490000" lon="13.435900000">
        <ele>34</ele>
        <time>2025-08-16T13:40:33Z</time>
      </trkpt>
      <trkpt lat="52.458500000" lon="13.435980000">
        <ele>34</ele>
        <time>2025-08-16T13:40:38Z</time>
      </trkpt>
      <trkpt lat="52.458520000" lon="13.436060000">
        <ele>33</ele>
        <time>2025-08-16T13:40:40Z</time>
      </trkpt>
      <trkpt lat="52.458540000" lon="13.436150000">
        <ele>33</ele>
        <time>2025-08-16T13:40:43Z</time>
      </trkpt>
      <trkpt lat="52.458540000" lon="13.436230000">
        <ele>33</ele>
        <time>2025-08-16T13:40:47Z</time>
      </trkpt>
      <trkpt lat="52.458500000" lon="13.436280000">
        <ele>34</ele>
        <time>2025-08-16T13:40:52Z</time>
      </trkpt>
      <trkpt lat="52.458510000" lon="13.436370000">
        <ele>34</ele>
        <time>2025-08-16T13:41:01Z</time>
      </trkpt>
      <trkpt lat="52.458540000" lon="13.436410000">
        <ele>34</ele>
        <time>2025-08-16T13:41:06Z</time>
      </trkpt>
      <trkpt lat="52.458550000" lon="13.436510000">
        <ele>34</ele>
        <time>2025-08-16T13:41:12Z</time>
      </trkpt>
      <trkpt lat="52.458570000" lon="13.436580000">
        <ele>33</ele>
        <time>2025-08-16T13:41:17Z</time>
      </trkpt>
      <trkpt lat="52.458600000" lon="13.436660000">
        <ele>33</ele>
        <time>2025-08-16T13:41:21Z</time>
      </trkpt>
      <trkpt lat="52.458630000" lon="13.436730000">
        <ele>33</ele>
        <time>2025-08-16T13:41:26Z</time>
      </trkpt>
      <trkpt lat="52.458630000" lon="13.436810000">
        <ele>33</ele>
        <time>2025-08-16T13:41:32Z</time>
      </trkpt>
      <trkpt lat="52.458620000" lon="13.436910000">
        <ele>32</ele>
        <time>2025-08-16T13:41:37Z</time>
      </trkpt>
      <trkpt lat="52.458620000" lon="13.436980000">
        <ele>32</ele>
        <time>2025-08-16T13:41:42Z</time>
      </trkpt>
      <trkpt lat="52.458610000" lon="13.437060000">
        <ele>32</ele>
        <time>2025-08-16T13:42:00Z</time>
      </trkpt>
      <trkpt lat="52.458610000" lon="13.437130000">
        <ele>32</ele>
        <time>2025-08-16T13:42:05Z</time>
      </trkpt>
      <trkpt lat="52.458620000" lon="13.437210000">
        <ele>32</ele>
        <time>2025-08-16T13:42:10Z</time>
      </trkpt>
      <trkpt lat="52.458620000" lon="13.437290000">
        <ele>32</ele>
        <time>2025-08-16T13:42:14Z</time>
      </trkpt>
      <trkpt lat="52.458630000" lon="13.437380000">
        <ele>32</ele>
        <time>2025-08-16T13:42:19Z</time>
      </trkpt>
      <trkpt lat="52.458640000" lon="13.437470000">
        <ele>32</ele>
        <time>2025-08-16T13:42:24Z</time>
      </trkpt>
      <trkpt lat="52.458650000" lon="13.437550000">
        <ele>31</ele>
        <time>2025-08-16T13:42:28Z</time>
      </trkpt>
      <trkpt lat="52.458650000" lon="13.437640000">
        <ele>31</ele>
        <time>2025-08-16T13:42:33Z</time>
      </trkpt>
      <trkpt lat="52.458670000" lon="13.437720000">
        <ele>31</ele>
        <time>2025-08-16T13:42:38Z</time>
      </trkpt>
      <trkpt lat="52.458680000" lon="13.437800000">
        <ele>31</ele>
        <time>2025-08-16T13:42:42Z</time>
      </trkpt>
      <trkpt lat="52.458680000" lon="13.437880000">
        <ele>30</ele>
        <time>2025-08-16T13:42:46Z</time>
      </trkpt>
      <trkpt lat="52.458690000" lon="13.437950000">
        <ele>30</ele>
        <time>2025-08-16T13:42:50Z</time>
      </trkpt>
      <trkpt lat="52.458690000" lon="13.438050000">
        <ele>30</ele>
        <time>2025-08-16T13:42:54Z</time>
      </trkpt>
      <trkpt lat="52.458700000" lon="13.438120000">
        <ele>30</ele>
        <time>2025-08-16T13:42:57Z</time>
      </trkpt>
      <trkpt lat="52.458700000" lon="13.438210000">
        <ele>29</ele>
        <time>2025-08-16T13:43:01Z</time>
      </trkpt>
      <trkpt lat="52.458700000" lon="13.438300000">
        <ele>29</ele>
        <time>2025-08-16T13:43:05Z</time>
      </trkpt>
      <trkpt lat="52.458710000" lon="13.438380000">
        <ele>29</ele>
        <time>2025-08-16T13:43:08Z</time>
      </trkpt>
      <trkpt lat="52.458710000" lon="13.438470000">
        <ele>29</ele>
        <time>2025-08-16T13:43:13Z</time>
      </trkpt>
      <trkpt lat="52.458710000" lon="13.438550000">
        <ele>29</ele>
        <time>2025-08-16T13:43:17Z</time>
      </trkpt>
      <trkpt lat="52.458710000" lon="13.438630000">
        <ele>29</ele>
        <time>2025-08-16T13:43:22Z</time>
      </trkpt>
      <trkpt lat="52.458720000" lon="13.438710000">
        <ele>29</ele>
        <time>2025-08-16T13:43:27Z</time>
      </trkpt>
      <trkpt lat="52.458720000" lon="13.438800000">
        <ele>29</ele>
        <time>2025-08-16T13:43:32Z</time>
      </trkpt>
      <trkpt lat="52.458720000" lon="13.438880000">
        <ele>29</ele>
        <time>2025-08-16T13:43:38Z</time>
      </trkpt>
      <trkpt lat="52.458730000" lon="13.438960000">
        <ele>29</ele>
        <time>2025-08-16T13:43:42Z</time>
      </trkpt>
      <trkpt lat="52.458740000" lon="13.439040000">
        <ele>29</ele>
        <time>2025-08-16T13:43:46Z</time>
      </trkpt>
      <trkpt lat="52.458740000" lon="13.439110000">
        <ele>29</ele>
        <time>2025-08-16T13:43:51Z</time>
      </trkpt>
      <trkpt lat="52.458750000" lon="13.439200000">
        <ele>29</ele>
        <time>2025-08-16T13:43:55Z</time>
      </trkpt>
      <trkpt lat="52.458750000" lon="13.439280000">
        <ele>29</ele>
        <time>2025-08-16T13:44:00Z</time>
      </trkpt>
      <trkpt lat="52.458750000" lon="13.439360000">
        <ele>29</ele>
        <time>2025-08-16T13:44:04Z</time>
      </trkpt>
      <trkpt lat="52.458760000" lon="13.439440000">
        <ele>29</ele>
        <time>2025-08-16T13:44:09Z</time>
      </trkpt>
      <trkpt lat="52.458740000" lon="13.439520000">
        <ele>29</ele>
        <time>2025-08-16T13:44:14Z</time>
      </trkpt>
      <trkpt lat="52.458740000" lon="13.439600000">
        <ele>29</ele>
        <time>2025-08-16T13:44:18Z</time>
      </trkpt>
      <trkpt lat="52.458730000" lon="13.439680000">
        <ele>29</ele>
        <time>2025-08-16T13:44:22Z</time>
      </trkpt>
      <trkpt lat="52.458730000" lon="13.439780000">
        <ele>29</ele>
        <time>2025-08-16T13:44:27Z</time>
      </trkpt>
      <trkpt lat="52.458730000" lon="13.439850000">
        <ele>29</ele>
        <time>2025-08-16T13:44:31Z</time>
      </trkpt>
      <trkpt lat="52.458730000" lon="13.439940000">
        <ele>29</ele>
        <time>2025-08-16T13:44:35Z</time>
      </trkpt>
      <trkpt lat="52.458740000" lon="13.440010000">
        <ele>29</ele>
        <time>2025-08-16T13:44:39Z</time>
      </trkpt>
      <trkpt lat="52.458740000" lon="13.440090000">
        <ele>29</ele>
        <time>2025-08-16T13:44:43Z</time>
      </trkpt>
      <trkpt lat="52.458760000" lon="13.440180000">
        <ele>29</ele>
        <time>2025-08-16T13:44:48Z</time>
      </trkpt>
      <trkpt lat="52.458780000" lon="13.440250000">
        <ele>29</ele>
        <time>2025-08-16T13:44:52Z</time>
      </trkpt>
      <trkpt lat="52.458800000" lon="13.440340000">
        <ele>29</ele>
        <time>2025-08-16T13:44:56Z</time>
      </trkpt>
      <trkpt lat="52.458800000" lon="13.440420000">
        <ele>29</ele>
        <time>2025-08-16T13:44:59Z</time>
      </trkpt>
      <trkpt lat="52.458810000" lon="13.440490000">
        <ele>29</ele>
        <time>2025-08-16T13:45:03Z</time>
      </trkpt>
      <trkpt lat="52.458820000" lon="13.440570000">
        <ele>29</ele>
        <time>2025-08-16T13:45:08Z</time>
      </trkpt>
      <trkpt lat="52.458830000" lon="13.440660000">
        <ele>29</ele>
        <time>2025-08-16T13:45:12Z</time>
      </trkpt>
      <trkpt lat="52.458830000" lon="13.440740000">
        <ele>29</ele>
        <time>2025-08-16T13:45:16Z</time>
      </trkpt>
      <trkpt lat="52.458840000" lon="13.440820000">
        <ele>29</ele>
        <time>2025-08-16T13:45:20Z</time>
      </trkpt>
      <trkpt lat="52.458860000" lon="13.440910000">
        <ele>30</ele>
        <time>2025-08-16T13:45:25Z</time>
      </trkpt>
      <trkpt lat="52.458880000" lon="13.440970000">
        <ele>30</ele>
        <time>2025-08-16T13:45:29Z</time>
      </trkpt>
      <trkpt lat="52.458900000" lon="13.441040000">
        <ele>30</ele>
        <time>2025-08-16T13:45:34Z</time>
      </trkpt>
      <trkpt lat="52.458910000" lon="13.441120000">
        <ele>30</ele>
        <time>2025-08-16T13:45:39Z</time>
      </trkpt>
      <trkpt lat="52.458920000" lon="13.441210000">
        <ele>31</ele>
        <time>2025-08-16T13:45:44Z</time>
      </trkpt>
      <trkpt lat="52.458930000" lon="13.441290000">
        <ele>31</ele>
        <time>2025-08-16T13:45:51Z</time>
      </trkpt>
      <trkpt lat="52.458920000" lon="13.441380000">
        <ele>31</ele>
        <time>2025-08-16T13:45:57Z</time>
      </trkpt>
      <trkpt lat="52.458910000" lon="13.441460000">
        <ele>31</ele>
        <time>2025-08-16T13:46:03Z</time>
      </trkpt>
      <trkpt lat="52.458880000" lon="13.441530000">
        <ele>32</ele>
        <time>2025-08-16T13:46:09Z</time>
      </trkpt>
      <trkpt lat="52.458830000" lon="13.441520000">
        <ele>32</ele>
        <time>2025-08-16T13:46:15Z</time>
      </trkpt>
      <trkpt lat="52.458790000" lon="13.441530000">
        <ele>32</ele>
        <time>2025-08-16T13:46:19Z</time>
      </trkpt>
      <trkpt lat="52.458740000" lon="13.441540000">
        <ele>32</ele>
        <time>2025-08-16T13:46:24Z</time>
      </trkpt>
      <trkpt lat="52.458690000" lon="13.441560000">
        <ele>33</ele>
        <time>2025-08-16T13:46:38Z</time>
      </trkpt>
      <trkpt lat="52.458640000" lon="13.441570000">
        <ele>33</ele>
        <time>2025-08-16T13:46:44Z</time>
      </trkpt>
      <trkpt lat="52.458600000" lon="13.441580000">
        <ele>33</ele>
        <time>2025-08-16T13:46:51Z</time>
      </trkpt>
      <trkpt lat="52.458560000" lon="13.441620000">
        <ele>33</ele>
        <time>2025-08-16T13:47:11Z</time>
      </trkpt>
      <trkpt lat="52.458510000" lon="13.441620000">
        <ele>32</ele>
        <time>2025-08-16T13:47:19Z</time>
      </trkpt>
      <trkpt lat="52.458460000" lon="13.441630000">
        <ele>32</ele>
        <time>2025-08-16T13:47:24Z</time>
      </trkpt>
      <trkpt lat="52.458410000" lon="13.441640000">
        <ele>32</ele>
        <time>2025-08-16T13:47:30Z</time>
      </trkpt>
      <trkpt lat="52.458360000" lon="13.441660000">
        <ele>32</ele>
        <time>2025-08-16T13:47:35Z</time>
      </trkpt>
      <trkpt lat="52.458330000" lon="13.441720000">
        <ele>32</ele>
        <time>2025-08-16T13:47:40Z</time>
      </trkpt>
      <trkpt lat="52.458320000" lon="13.441910000">
        <ele>32</ele>
        <time>2025-08-16T13:47:54Z</time>
      </trkpt>
      <trkpt lat="52.458340000" lon="13.441980000">
        <ele>32</ele>
        <time>2025-08-16T13:48:01Z</time>
      </trkpt>
      <trkpt lat="52.458350000" lon="13.442060000">
        <ele>31</ele>
        <time>2025-08-16T13:48:07Z</time>
      </trkpt>
      <trkpt lat="52.458370000" lon="13.442140000">
        <ele>31</ele>
        <time>2025-08-16T13:48:11Z</time>
      </trkpt>
      <trkpt lat="52.458380000" lon="13.442230000">
        <ele>31</ele>
        <time>2025-08-16T13:48:15Z</time>
      </trkpt>
      <trkpt lat="52.458390000" lon="13.442310000">
        <ele>31</ele>
        <time>2025-08-16T13:48:19Z</time>
      </trkpt>
      <trkpt lat="52.458430000" lon="13.442370000">
        <ele>31</ele>
        <time>2025-08-16T13:48:22Z</time>
      </trkpt>
      <trkpt lat="52.458450000" lon="13.442440000">
        <ele>31</ele>
        <time>2025-08-16T13:48:25Z</time>
      </trkpt>
      <trkpt lat="52.458450000" lon="13.442540000">
        <ele>31</ele>
        <time>2025-08-16T13:48:28Z</time>
      </trkpt>
      <trkpt lat="52.458450000" lon="13.442620000">
        <ele>31</ele>
        <time>2025-08-16T13:48:31Z</time>
      </trkpt>
      <trkpt lat="52.458450000" lon="13.442700000">
        <ele>30</ele>
        <time>2025-08-16T13:48:35Z</time>
      </trkpt>
      <trkpt lat="52.458460000" lon="13.442770000">
        <ele>30</ele>
        <time>2025-08-16T13:48:41Z</time>
      </trkpt>
      <trkpt lat="52.458470000" lon="13.442860000">
        <ele>30</ele>
        <time>2025-08-16T13:48:46Z</time>
      </trkpt>
      <trkpt lat="52.458490000" lon="13.442940000">
        <ele>30</ele>
        <time>2025-08-16T13:48:52Z</time>
      </trkpt>
      <trkpt lat="52.458510000" lon="13.443020000">
        <ele>30</ele>
        <time>2025-08-16T13:48:58Z</time>
      </trkpt>
      <trkpt lat="52.458530000" lon="13.443090000">
        <ele>30</ele>
        <time>2025-08-16T13:49:05Z</time>
      </trkpt>
      <trkpt lat="52.458540000" lon="13.443170000">
        <ele>30</ele>
        <time>2025-08-16T13:49:20Z</time>
      </trkpt>
      <trkpt lat="52.458560000" lon="13.443250000">
        <ele>30</ele>
        <time>2025-08-16T13:49:27Z</time>
      </trkpt>
      <trkpt lat="52.458570000" lon="13.443330000">
        <ele>30</ele>
        <time>2025-08-16T13:49:31Z</time>
      </trkpt>
      <trkpt lat="52.458580000" lon="13.443410000">
        <ele>30</ele>
        <time>2025-08-16T13:49:36Z</time>
      </trkpt>
      <trkpt lat="52.458600000" lon="13.443490000">
        <ele>30</ele>
        <time>2025-08-16T13:49:41Z</time>
      </trkpt>
      <trkpt lat="52.458610000" lon="13.443560000">
        <ele>30</ele>
        <time>2025-08-16T13:49:45Z</time>
      </trkpt>
      <trkpt lat="52.458600000" lon="13.443640000">
        <ele>30</ele>
        <time>2025-08-16T13:49:49Z</time>
      </trkpt>
      <trkpt lat="52.458600000" lon="13.443720000">
        <ele>30</ele>
        <time>2025-08-16T13:49:53Z</time>
      </trkpt>
      <trkpt lat="52.458610000" lon="13.443810000">
        <ele>30</ele>
        <time>2025-08-16T13:49:59Z</time>
      </trkpt>
      <trkpt lat="52.458620000" lon="13.443900000">
        <ele>30</ele>
        <time>2025-08-16T13:50:03Z</time>
      </trkpt>
      <trkpt lat="52.458630000" lon="13.443990000">
        <ele>30</ele>
        <time>2025-08-16T13:50:08Z</time>
      </trkpt>
      <trkpt lat="52.458640000" lon="13.444070000">
        <ele>30</ele>
        <time>2025-08-16T13:50:14Z</time>
      </trkpt>
      <trkpt lat="52.458640000" lon="13.444170000">
        <ele>30</ele>
        <time>2025-08-16T13:50:19Z</time>
      </trkpt>
      <trkpt lat="52.458660000" lon="13.444250000">
        <ele>30</ele>
        <time>2025-08-16T13:50:23Z</time>
      </trkpt>
      <trkpt lat="52.458660000" lon="13.444320000">
        <ele>30</ele>
        <time>2025-08-16T13:50:26Z</time>
      </trkpt>
      <trkpt lat="52.458670000" lon="13.444400000">
        <ele>30</ele>
        <time>2025-08-16T13:50:30Z</time>
      </trkpt>
      <trkpt lat="52.458690000" lon="13.444470000">
        <ele>30</ele>
        <time>2025-08-16T13:50:34Z</time>
      </trkpt>
      <trkpt lat="52.458700000" lon="13.444550000">
        <ele>30</ele>
        <time>2025-08-16T13:50:38Z</time>
      </trkpt>
      <trkpt lat="52.458720000" lon="13.444630000">
        <ele>30</ele>
        <time>2025-08-16T13:50:43Z</time>
      </trkpt>
      <trkpt lat="52.458740000" lon="13.444710000">
        <ele>30</ele>
        <time>2025-08-16T13:50:48Z</time>
      </trkpt>
      <trkpt lat="52.458750000" lon="13.444800000">
        <ele>30</ele>
        <time>2025-08-16T13:50:52Z</time>
      </trkpt>
      <trkpt lat="52.458750000" lon="13.444890000">
        <ele>30</ele>
        <time>2025-08-16T13:50:57Z</time>
      </trkpt>
      <trkpt lat="52.458760000" lon="13.444980000">
        <ele>30</ele>
        <time>2025-08-16T13:51:02Z</time>
      </trkpt>
      <trkpt lat="52.458770000" lon="13.445060000">
        <ele>30</ele>
        <time>2025-08-16T13:51:06Z</time>
      </trkpt>
      <trkpt lat="52.458820000" lon="13.445290000">
        <ele>30</ele>
        <time>2025-08-16T13:51:16Z</time>
      </trkpt>
      <trkpt lat="52.458830000" lon="13.445380000">
        <ele>30</ele>
        <time>2025-08-16T13:51:21Z</time>
      </trkpt>
      <trkpt lat="52.458830000" lon="13.445460000">
        <ele>30</ele>
        <time>2025-08-16T13:51:26Z</time>
      </trkpt>
      <trkpt lat="52.458840000" lon="13.445550000">
        <ele>30</ele>
        <time>2025-08-16T13:51:31Z</time>
      </trkpt>
      <trkpt lat="52.458850000" lon="13.445630000">
        <ele>30</ele>
        <time>2025-08-16T13:51:37Z</time>
      </trkpt>
      <trkpt lat="52.458870000" lon="13.445710000">
        <ele>30</ele>
        <time>2025-08-16T13:51:42Z</time>
      </trkpt>
      <trkpt lat="52.458880000" lon="13.445790000">
        <ele>30</ele>
        <time>2025-08-16T13:51:48Z</time>
      </trkpt>
      <trkpt lat="52.458890000" lon="13.445880000">
        <ele>30</ele>
        <time>2025-08-16T13:51:54Z</time>
      </trkpt>
      <trkpt lat="52.458900000" lon="13.445960000">
        <ele>30</ele>
        <time>2025-08-16T13:51:58Z</time>
      </trkpt>
      <trkpt lat="52.458890000" lon="13.446040000">
        <ele>30</ele>
        <time>2025-08-16T13:52:02Z</time>
      </trkpt>
      <trkpt lat="52.458920000" lon="13.446120000">
        <ele>30</ele>
        <time>2025-08-16T13:52:06Z</time>
      </trkpt>
      <trkpt lat="52.458930000" lon="13.446210000">
        <ele>30</ele>
        <time>2025-08-16T13:52:10Z</time>
      </trkpt>
      <trkpt lat="52.458930000" lon="13.446300000">
        <ele>30</ele>
        <time>2025-08-16T13:52:15Z</time>
      </trkpt>
      <trkpt lat="52.458910000" lon="13.446370000">
        <ele>30</ele>
        <time>2025-08-16T13:52:19Z</time>
      </trkpt>
      <trkpt lat="52.458900000" lon="13.446450000">
        <ele>30</ele>
        <time>2025-08-16T13:52:24Z</time>
      </trkpt>
      <trkpt lat="52.458900000" lon="13.446530000">
        <ele>30</ele>
        <time>2025-08-16T13:52:29Z</time>
      </trkpt>
      <trkpt lat="52.458890000" lon="13.446620000">
        <ele>30</ele>
        <time>2025-08-16T13:52:33Z</time>
      </trkpt>
      <trkpt lat="52.458890000" lon="13.446700000">
        <ele>30</ele>
        <time>2025-08-16T13:52:39Z</time>
      </trkpt>
      <trkpt lat="52.458910000" lon="13.446770000">
        <ele>30</ele>
        <time>2025-08-16T13:52:44Z</time>
      </trkpt>
      <trkpt lat="52.458930000" lon="13.446850000">
        <ele>29</ele>
        <time>2025-08-16T13:52:49Z</time>
      </trkpt>
      <trkpt lat="52.458950000" lon="13.446940000">
        <ele>29</ele>
        <time>2025-08-16T13:52:54Z</time>
      </trkpt>
      <trkpt lat="52.458960000" lon="13.447020000">
        <ele>29</ele>
        <time>2025-08-16T13:53:04Z</time>
      </trkpt>
      <trkpt lat="52.458980000" lon="13.447100000">
        <ele>29</ele>
        <time>2025-08-16T13:53:09Z</time>
      </trkpt>
      <trkpt lat="52.459000000" lon="13.447170000">
        <ele>30</ele>
        <time>2025-08-16T13:53:14Z</time>
      </trkpt>
      <trkpt lat="52.459020000" lon="13.447240000">
        <ele>30</ele>
        <time>2025-08-16T13:53:19Z</time>
      </trkpt>
      <trkpt lat="52.459040000" lon="13.447310000">
        <ele>30</ele>
        <time>2025-08-16T13:53:23Z</time>
      </trkpt>
      <trkpt lat="52.459060000" lon="13.447380000">
        <ele>30</ele>
        <time>2025-08-16T13:53:27Z</time>
      </trkpt>
      <trkpt lat="52.459070000" lon="13.447470000">
        <ele>30</ele>
        <time>2025-08-16T13:53:32Z</time>
      </trkpt>
      <trkpt lat="52.459080000" lon="13.447550000">
        <ele>30</ele>
        <time>2025-08-16T13:53:35Z</time>
      </trkpt>
      <trkpt lat="52.459090000" lon="13.447640000">
        <ele>30</ele>
        <time>2025-08-16T13:53:39Z</time>
      </trkpt>
      <trkpt lat="52.459090000" lon="13.447730000">
        <ele>30</ele>
        <time>2025-08-16T13:53:43Z</time>
      </trkpt>
      <trkpt lat="52.459090000" lon="13.447810000">
        <ele>30</ele>
        <time>2025-08-16T13:53:47Z</time>
      </trkpt>
      <trkpt lat="52.459100000" lon="13.447900000">
        <ele>30</ele>
        <time>2025-08-16T13:53:52Z</time>
      </trkpt>
      <trkpt lat="52.459100000" lon="13.447980000">
        <ele>30</ele>
        <time>2025-08-16T13:53:56Z</time>
      </trkpt>
      <trkpt lat="52.459110000" lon="13.448060000">
        <ele>30</ele>
        <time>2025-08-16T13:54:00Z</time>
      </trkpt>
      <trkpt lat="52.459140000" lon="13.448130000">
        <ele>29</ele>
        <time>2025-08-16T13:54:05Z</time>
      </trkpt>
      <trkpt lat="52.459170000" lon="13.448200000">
        <ele>29</ele>
        <time>2025-08-16T13:54:10Z</time>
      </trkpt>
      <trkpt lat="52.459200000" lon="13.448280000">
        <ele>29</ele>
        <time>2025-08-16T13:54:16Z</time>
      </trkpt>
      <trkpt lat="52.459220000" lon="13.448350000">
        <ele>29</ele>
        <time>2025-08-16T13:54:20Z</time>
      </trkpt>
      <trkpt lat="52.459230000" lon="13.448440000">
        <ele>28</ele>
        <time>2025-08-16T13:54:26Z</time>
      </trkpt>
      <trkpt lat="52.459250000" lon="13.448510000">
        <ele>28</ele>
        <time>2025-08-16T13:54:30Z</time>
      </trkpt>
      <trkpt lat="52.459260000" lon="13.448600000">
        <ele>28</ele>
        <time>2025-08-16T13:54:36Z</time>
      </trkpt>
      <trkpt lat="52.459270000" lon="13.448680000">
        <ele>28</ele>
        <time>2025-08-16T13:54:42Z</time>
      </trkpt>
      <trkpt lat="52.459290000" lon="13.448770000">
        <ele>28</ele>
        <time>2025-08-16T13:54:47Z</time>
      </trkpt>
      <trkpt lat="52.459300000" lon="13.448850000">
        <ele>28</ele>
        <time>2025-08-16T13:54:51Z</time>
      </trkpt>
      <trkpt lat="52.459300000" lon="13.448940000">
        <ele>28</ele>
        <time>2025-08-16T13:54:55Z</time>
      </trkpt>
      <trkpt lat="52.459310000" lon="13.449030000">
        <ele>28</ele>
        <time>2025-08-16T13:54:59Z</time>
      </trkpt>
      <trkpt lat="52.459320000" lon="13.449110000">
        <ele>27</ele>
        <time>2025-08-16T13:55:03Z</time>
      </trkpt>
      <trkpt lat="52.459330000" lon="13.449190000">
        <ele>27</ele>
        <time>2025-08-16T13:55:07Z</time>
      </trkpt>
      <trkpt lat="52.459350000" lon="13.449270000">
        <ele>27</ele>
        <time>2025-08-16T13:55:11Z</time>
      </trkpt>
      <trkpt lat="52.459360000" lon="13.449340000">
        <ele>27</ele>
        <time>2025-08-16T13:55:15Z</time>
      </trkpt>
      <trkpt lat="52.459350000" lon="13.449420000">
        <ele>27</ele>
        <time>2025-08-16T13:55:19Z</time>
      </trkpt>
      <trkpt lat="52.459360000" lon="13.449500000">
        <ele>27</ele>
        <time>2025-08-16T13:55:23Z</time>
      </trkpt>
      <trkpt lat="52.459360000" lon="13.449580000">
        <ele>27</ele>
        <time>2025-08-16T13:55:27Z</time>
      </trkpt>
      <trkpt lat="52.459360000" lon="13.449660000">
        <ele>27</ele>
        <time>2025-08-16T13:55:30Z</time>
      </trkpt>
      <trkpt lat="52.459370000" lon="13.449750000">
        <ele>26</ele>
        <time>2025-08-16T13:55:34Z</time>
      </trkpt>
      <trkpt lat="52.459370000" lon="13.449850000">
        <ele>26</ele>
        <time>2025-08-16T13:55:38Z</time>
      </trkpt>
      <trkpt lat="52.459370000" lon="13.449930000">
        <ele>26</ele>
        <time>2025-08-16T13:55:41Z</time>
      </trkpt>
      <trkpt lat="52.459370000" lon="13.450020000">
        <ele>26</ele>
        <time>2025-08-16T13:55:46Z</time>
      </trkpt>
      <trkpt lat="52.459350000" lon="13.450100000">
        <ele>26</ele>
        <time>2025-08-16T13:55:49Z</time>
      </trkpt>
      <trkpt lat="52.459360000" lon="13.450270000">
        <ele>26</ele>
        <time>2025-08-16T13:55:56Z</time>
      </trkpt>
      <trkpt lat="52.459360000" lon="13.450350000">
        <ele>26</ele>
        <time>2025-08-16T13:56:04Z</time>
      </trkpt>
      <trkpt lat="52.459380000" lon="13.450430000">
        <ele>26</ele>
        <time>2025-08-16T13:56:11Z</time>
      </trkpt>
      <trkpt lat="52.459370000" lon="13.450520000">
        <ele>26</ele>
        <time>2025-08-16T13:56:17Z</time>
      </trkpt>
      <trkpt lat="52.459360000" lon="13.450600000">
        <ele>26</ele>
        <time>2025-08-16T13:56:23Z</time>
      </trkpt>
      <trkpt lat="52.459360000" lon="13.450690000">
        <ele>26</ele>
        <time>2025-08-16T13:56:28Z</time>
      </trkpt>
      <trkpt lat="52.459360000" lon="13.450780000">
        <ele>26</ele>
        <time>2025-08-16T13:56:33Z</time>
      </trkpt>
      <trkpt lat="52.459360000" lon="13.450860000">
        <ele>26</ele>
        <time>2025-08-16T13:56:39Z</time>
      </trkpt>
      <trkpt lat="52.459370000" lon="13.450940000">
        <ele>26</ele>
        <time>2025-08-16T13:56:43Z</time>
      </trkpt>
      <trkpt lat="52.459370000" lon="13.451020000">
        <ele>26</ele>
        <time>2025-08-16T13:56:47Z</time>
      </trkpt>
      <trkpt lat="52.459370000" lon="13.451110000">
        <ele>26</ele>
        <time>2025-08-16T13:56:52Z</time>
      </trkpt>
      <trkpt lat="52.459380000" lon="13.451190000">
        <ele>26</ele>
        <time>2025-08-16T13:56:56Z</time>
      </trkpt>
      <trkpt lat="52.459380000" lon="13.451270000">
        <ele>26</ele>
        <time>2025-08-16T13:57:02Z</time>
      </trkpt>
      <trkpt lat="52.459380000" lon="13.451350000">
        <ele>26</ele>
        <time>2025-08-16T13:57:07Z</time>
      </trkpt>
      <trkpt lat="52.459380000" lon="13.451430000">
        <ele>26</ele>
        <time>2025-08-16T13:57:11Z</time>
      </trkpt>
      <trkpt lat="52.459390000" lon="13.451510000">
        <ele>26</ele>
        <time>2025-08-16T13:57:16Z</time>
      </trkpt>
      <trkpt lat="52.459400000" lon="13.451600000">
        <ele>26</ele>
        <time>2025-08-16T13:57:22Z</time>
      </trkpt>
      <trkpt lat="52.459400000" lon="13.451670000">
        <ele>26</ele>
        <time>2025-08-16T13:57:27Z</time>
      </trkpt>
      <trkpt lat="52.459400000" lon="13.451760000">
        <ele>26</ele>
        <time>2025-08-16T13:57:33Z</time>
      </trkpt>
      <trkpt lat="52.459410000" lon="13.451840000">
        <ele>25</ele>
        <time>2025-08-16T13:57:39Z</time>
      </trkpt>
      <trkpt lat="52.459400000" lon="13.451920000">
        <ele>25</ele>
        <time>2025-08-16T13:57:43Z</time>
      </trkpt>
      <trkpt lat="52.459400000" lon="13.452010000">
        <ele>25</ele>
        <time>2025-08-16T13:57:47Z</time>
      </trkpt>
      <trkpt lat="52.459400000" lon="13.452100000">
        <ele>25</ele>
        <time>2025-08-16T13:57:51Z</time>
      </trkpt>
      <trkpt lat="52.459380000" lon="13.452180000">
        <ele>26</ele>
        <time>2025-08-16T13:57:56Z</time>
      </trkpt>
      <trkpt lat="52.459370000" lon="13.452260000">
        <ele>26</ele>
        <time>2025-08-16T13:58:01Z</time>
      </trkpt>
      <trkpt lat="52.459380000" lon="13.452360000">
        <ele>26</ele>
        <time>2025-08-16T13:58:10Z</time>
      </trkpt>
      <trkpt lat="52.459360000" lon="13.452430000">
        <ele>26</ele>
        <time>2025-08-16T13:58:15Z</time>
      </trkpt>
      <trkpt lat="52.459340000" lon="13.452530000">
        <ele>25</ele>
        <time>2025-08-16T13:58:21Z</time>
      </trkpt>
      <trkpt lat="52.459320000" lon="13.452610000">
        <ele>25</ele>
        <time>2025-08-16T13:58:27Z</time>
      </trkpt>
      <trkpt lat="52.459300000" lon="13.452690000">
        <ele>25</ele>
        <time>2025-08-16T13:58:32Z</time>
      </trkpt>
      <trkpt lat="52.459290000" lon="13.452770000">
        <ele>25</ele>
        <time>2025-08-16T13:58:36Z</time>
      </trkpt>
      <trkpt lat="52.459280000" lon="13.452850000">
        <ele>25</ele>
        <time>2025-08-16T13:58:40Z</time>
      </trkpt>
      <trkpt lat="52.459280000" lon="13.452920000">
        <ele>25</ele>
        <time>2025-08-16T13:58:44Z</time>
      </trkpt>
      <trkpt lat="52.459260000" lon="13.453010000">
        <ele>25</ele>
        <time>2025-08-16T13:58:48Z</time>
      </trkpt>
      <trkpt lat="52.459250000" lon="13.453090000">
        <ele>25</ele>
        <time>2025-08-16T13:58:52Z</time>
      </trkpt>
      <trkpt lat="52.459230000" lon="13.453180000">
        <ele>25</ele>
        <time>2025-08-16T13:58:57Z</time>
      </trkpt>
    
      <trkpt lat="52.459150000" lon="13.453550000">
        <ele>25</ele>
        <time>2025-08-16T13:59:33Z</time>
      </trkpt>
     
      <trkpt lat="52.459110000" lon="13.453710000">
        <ele>26</ele>
        <time>2025-08-16T14:00:02Z</time>
      </trkpt>
      <trkpt lat="52.459090000" lon="13.453780000">
        <ele>26</ele>
        <time>2025-08-16T14:00:07Z</time>
      </trkpt>
      <trkpt lat="52.459070000" lon="13.453860000">
        <ele>26</ele>
        <time>2025-08-16T14:00:13Z</time>
      </trkpt>
      <trkpt lat="52.459050000" lon="13.453930000">
        <ele>26</ele>
        <time>2025-08-16T14:00:18Z</time>
      </trkpt>
      <trkpt lat="52.459030000" lon="13.454000000">
        <ele>25</ele>
        <time>2025-08-16T14:00:21Z</time>
      </trkpt>
      <trkpt lat="52.459000000" lon="13.454070000">
        <ele>25</ele>
        <time>2025-08-16T14:00:25Z</time>
      </trkpt>
      <trkpt lat="52.458970000" lon="13.454140000">
        <ele>25</ele>
        <time>2025-08-16T14:00:29Z</time>
      </trkpt>
      <trkpt lat="52.458950000" lon="13.454220000">
        <ele>25</ele>
        <time>2025-08-16T14:00:33Z</time>
      </trkpt>
      <trkpt lat="52.458940000" lon="13.454300000">
        <ele>25</ele>
        <time>2025-08-16T14:00:38Z</time>
      </trkpt>
      <trkpt lat="52.458910000" lon="13.454370000">
        <ele>25</ele>
        <time>2025-08-16T14:00:42Z</time>
      </trkpt>
      <trkpt lat="52.458890000" lon="13.454430000">
        <ele>25</ele>
        <time>2025-08-16T14:00:46Z</time>
      </trkpt>
      <trkpt lat="52.458870000" lon="13.454500000">
        <ele>25</ele>
        <time>2025-08-16T14:00:51Z</time>
      </trkpt>
      <trkpt lat="52.458850000" lon="13.454580000">
        <ele>25</ele>
        <time>2025-08-16T14:00:55Z</time>
      </trkpt>
      <trkpt lat="52.458830000" lon="13.454660000">
        <ele>25</ele>
        <time>2025-08-16T14:01:00Z</time>
      </trkpt>
      <trkpt lat="52.458800000" lon="13.454730000">
        <ele>25</ele>
        <time>2025-08-16T14:01:04Z</time>
      </trkpt>
      <trkpt lat="52.458780000" lon="13.454800000">
        <ele>25</ele>
        <time>2025-08-16T14:01:09Z</time>
      </trkpt>
      <trkpt lat="52.458760000" lon="13.454890000">
        <ele>25</ele>
        <time>2025-08-16T14:01:14Z</time>
      </trkpt>
      <trkpt lat="52.458740000" lon="13.454970000">
        <ele>25</ele>
        <time>2025-08-16T14:01:19Z</time>
      </trkpt>
      <trkpt lat="52.458700000" lon="13.455040000">
        <ele>25</ele>
        <time>2025-08-16T14:01:24Z</time>
      </trkpt>
      <trkpt lat="52.458680000" lon="13.455120000">
        <ele>25</ele>
        <time>2025-08-16T14:01:29Z</time>
      </trkpt>
      <trkpt lat="52.458650000" lon="13.455190000">
        <ele>25</ele>
        <time>2025-08-16T14:01:33Z</time>
      </trkpt>
      <trkpt lat="52.458620000" lon="13.455270000">
        <ele>25</ele>
        <time>2025-08-16T14:01:37Z</time>
      </trkpt>
      <trkpt lat="52.458580000" lon="13.455350000">
        <ele>25</ele>
        <time>2025-08-16T14:01:41Z</time>
      </trkpt>
      <trkpt lat="52.458550000" lon="13.455440000">
        <ele>25</ele>
        <time>2025-08-16T14:01:46Z</time>
      </trkpt>
      <trkpt lat="52.458520000" lon="13.455500000">
        <ele>25</ele>
        <time>2025-08-16T14:01:50Z</time>
      </trkpt>
      <trkpt lat="52.458490000" lon="13.455570000">
        <ele>25</ele>
        <time>2025-08-16T14:01:54Z</time>
      </trkpt>
      <trkpt lat="52.458460000" lon="13.455640000">
        <ele>25</ele>
        <time>2025-08-16T14:01:58Z</time>
      </trkpt>
      <trkpt lat="52.458430000" lon="13.455700000">
        <ele>25</ele>
        <time>2025-08-16T14:02:01Z</time>
      </trkpt>
      <trkpt lat="52.458400000" lon="13.455750000">
        <ele>25</ele>
        <time>2025-08-16T14:02:04Z</time>
      </trkpt>
      <trkpt lat="52.458370000" lon="13.455810000">
        <ele>25</ele>
        <time>2025-08-16T14:02:07Z</time>
      </trkpt>
      <trkpt lat="52.458330000" lon="13.455870000">
        <ele>25</ele>
        <time>2025-08-16T14:02:11Z</time>
      </trkpt>
      <trkpt lat="52.458300000" lon="13.455930000">
        <ele>25</ele>
        <time>2025-08-16T14:02:15Z</time>
      </trkpt>
      <trkpt lat="52.458260000" lon="13.455980000">
        <ele>25</ele>
        <time>2025-08-16T14:02:19Z</time>
      </trkpt>
      <trkpt lat="52.458220000" lon="13.456030000">
        <ele>25</ele>
        <time>2025-08-16T14:02:23Z</time>
      </trkpt>
      <trkpt lat="52.458190000" lon="13.456090000">
        <ele>25</ele>
        <time>2025-08-16T14:02:27Z</time>
      </trkpt>
      <trkpt lat="52.458150000" lon="13.456160000">
        <ele>25</ele>
        <time>2025-08-16T14:02:31Z</time>
      </trkpt>
      <trkpt lat="52.458120000" lon="13.456210000">
        <ele>25</ele>
        <time>2025-08-16T14:02:34Z</time>
      </trkpt>
      <trkpt lat="52.458090000" lon="13.456270000">
        <ele>25</ele>
        <time>2025-08-16T14:02:37Z</time>
      </trkpt>
      <trkpt lat="52.458040000" lon="13.456330000">
        <ele>25</ele>
        <time>2025-08-16T14:02:40Z</time>
      </trkpt>
      <trkpt lat="52.458010000" lon="13.456390000">
        <ele>25</ele>
        <time>2025-08-16T14:02:44Z</time>
      </trkpt>
      <trkpt lat="52.457970000" lon="13.456450000">
        <ele>25</ele>
        <time>2025-08-16T14:02:48Z</time>
      </trkpt>
      <trkpt lat="52.457930000" lon="13.456510000">
        <ele>25</ele>
        <time>2025-08-16T14:02:52Z</time>
      </trkpt>
      <trkpt lat="52.457900000" lon="13.456570000">
        <ele>25</ele>
        <time>2025-08-16T14:02:56Z</time>
      </trkpt>
      <trkpt lat="52.457870000" lon="13.456640000">
        <ele>25</ele>
        <time>2025-08-16T14:03:01Z</time>
      </trkpt>
      <trkpt lat="52.457840000" lon="13.456710000">
        <ele>25</ele>
        <time>2025-08-16T14:03:05Z</time>
      </trkpt>
      <trkpt lat="52.457810000" lon="13.456790000">
        <ele>26</ele>
        <time>2025-08-16T14:03:09Z</time>
      </trkpt>
      <trkpt lat="52.457790000" lon="13.456860000">
        <ele>26</ele>
        <time>2025-08-16T14:03:14Z</time>
      </trkpt>
      <trkpt lat="52.457760000" lon="13.456920000">
        <ele>26</ele>
        <time>2025-08-16T14:03:21Z</time>
      </trkpt>
      <trkpt lat="52.457730000" lon="13.456980000">
        <ele>26</ele>
        <time>2025-08-16T14:03:25Z</time>
      </trkpt>
      <trkpt lat="52.457690000" lon="13.457020000">
        <ele>25</ele>
        <time>2025-08-16T14:03:29Z</time>
      </trkpt>
      <trkpt lat="52.457650000" lon="13.457070000">
        <ele>25</ele>
        <time>2025-08-16T14:03:33Z</time>
      </trkpt>
      <trkpt lat="52.457610000" lon="13.457130000">
        <ele>25</ele>
        <time>2025-08-16T14:03:37Z</time>
      </trkpt>
      <trkpt lat="52.457570000" lon="13.457190000">
        <ele>25</ele>
        <time>2025-08-16T14:03:41Z</time>
      </trkpt>
      <trkpt lat="52.457530000" lon="13.457240000">
        <ele>26</ele>
        <time>2025-08-16T14:03:45Z</time>
      </trkpt>
      <trkpt lat="52.457490000" lon="13.457270000">
        <ele>26</ele>
        <time>2025-08-16T14:03:49Z</time>
      </trkpt>
      <trkpt lat="52.457440000" lon="13.457310000">
        <ele>26</ele>
        <time>2025-08-16T14:03:53Z</time>
      </trkpt>
      <trkpt lat="52.457390000" lon="13.457350000">
        <ele>26</ele>
        <time>2025-08-16T14:03:59Z</time>
      </trkpt>
      <trkpt lat="52.457340000" lon="13.457380000">
        <ele>26</ele>
        <time>2025-08-16T14:04:04Z</time>
      </trkpt>
      <trkpt lat="52.457290000" lon="13.457390000">
        <ele>26</ele>
        <time>2025-08-16T14:04:09Z</time>
      </trkpt>
      <trkpt lat="52.457240000" lon="13.457430000">
        <ele>26</ele>
        <time>2025-08-16T14:04:15Z</time>
      </trkpt>
      <trkpt lat="52.457200000" lon="13.457450000">
        <ele>26</ele>
        <time>2025-08-16T14:04:21Z</time>
      </trkpt>
      <trkpt lat="52.457150000" lon="13.457490000">
        <ele>26</ele>
        <time>2025-08-16T14:04:26Z</time>
      </trkpt>
      <trkpt lat="52.457100000" lon="13.457530000">
        <ele>26</ele>
        <time>2025-08-16T14:04:31Z</time>
      </trkpt>
      <trkpt lat="52.457060000" lon="13.457570000">
        <ele>26</ele>
        <time>2025-08-16T14:04:36Z</time>
      </trkpt>
      <trkpt lat="52.457010000" lon="13.457620000">
        <ele>26</ele>
        <time>2025-08-16T14:04:41Z</time>
      </trkpt>
      <trkpt lat="52.456970000" lon="13.457670000">
        <ele>26</ele>
        <time>2025-08-16T14:04:46Z</time>
      </trkpt>
      <trkpt lat="52.456930000" lon="13.457720000">
        <ele>26</ele>
        <time>2025-08-16T14:04:51Z</time>
      </trkpt>
      <trkpt lat="52.456890000" lon="13.457770000">
        <ele>26</ele>
        <time>2025-08-16T14:04:55Z</time>
      </trkpt>
      <trkpt lat="52.456850000" lon="13.457800000">
        <ele>26</ele>
        <time>2025-08-16T14:04:59Z</time>
      </trkpt>
      <trkpt lat="52.456810000" lon="13.457850000">
        <ele>26</ele>
        <time>2025-08-16T14:05:04Z</time>
      </trkpt>
      <trkpt lat="52.456770000" lon="13.457890000">
        <ele>26</ele>
        <time>2025-08-16T14:05:10Z</time>
      </trkpt>
      <trkpt lat="52.456720000" lon="13.457930000">
        <ele>26</ele>
        <time>2025-08-16T14:05:16Z</time>
      </trkpt>
      <trkpt lat="52.456670000" lon="13.457970000">
        <ele>26</ele>
        <time>2025-08-16T14:05:20Z</time>
      </trkpt>
      <trkpt lat="52.456630000" lon="13.458020000">
        <ele>26</ele>
        <time>2025-08-16T14:05:25Z</time>
      </trkpt>
      <trkpt lat="52.456580000" lon="13.458060000">
        <ele>26</ele>
        <time>2025-08-16T14:05:28Z</time>
      </trkpt>
      <trkpt lat="52.456540000" lon="13.458100000">
        <ele>26</ele>
        <time>2025-08-16T14:05:33Z</time>
      </trkpt>
      <trkpt lat="52.456490000" lon="13.458150000">
        <ele>26</ele>
        <time>2025-08-16T14:05:37Z</time>
      </trkpt>
      <trkpt lat="52.456450000" lon="13.458180000">
        <ele>26</ele>
        <time>2025-08-16T14:05:42Z</time>
      </trkpt>
      <trkpt lat="52.456400000" lon="13.458220000">
        <ele>26</ele>
        <time>2025-08-16T14:05:47Z</time>
      </trkpt>
      <trkpt lat="52.456360000" lon="13.458250000">
        <ele>26</ele>
        <time>2025-08-16T14:05:51Z</time>
      </trkpt>
      <trkpt lat="52.456310000" lon="13.458290000">
        <ele>26</ele>
        <time>2025-08-16T14:05:56Z</time>
      </trkpt>
      <trkpt lat="52.456270000" lon="13.458340000">
        <ele>25</ele>
        <time>2025-08-16T14:06:01Z</time>
      </trkpt>
      <trkpt lat="52.456230000" lon="13.458370000">
        <ele>25</ele>
        <time>2025-08-16T14:06:06Z</time>
      </trkpt>
      <trkpt lat="52.456180000" lon="13.458390000">
        <ele>25</ele>
        <time>2025-08-16T14:06:12Z</time>
      </trkpt>
      <trkpt lat="52.456140000" lon="13.458430000">
        <ele>25</ele>
        <time>2025-08-16T14:06:18Z</time>
      </trkpt>
      <trkpt lat="52.456100000" lon="13.458470000">
        <ele>25</ele>
        <time>2025-08-16T14:06:23Z</time>
      </trkpt>
      <trkpt lat="52.456060000" lon="13.458530000">
        <ele>25</ele>
        <time>2025-08-16T14:06:28Z</time>
      </trkpt>
      <trkpt lat="52.456020000" lon="13.458570000">
        <ele>25</ele>
        <time>2025-08-16T14:06:33Z</time>
      </trkpt>
      <trkpt lat="52.455970000" lon="13.458610000">
        <ele>25</ele>
        <time>2025-08-16T14:06:39Z</time>
      </trkpt>
      <trkpt lat="52.455930000" lon="13.458650000">
        <ele>25</ele>
        <time>2025-08-16T14:06:43Z</time>
      </trkpt>
      <trkpt lat="52.455890000" lon="13.458680000">
        <ele>25</ele>
        <time>2025-08-16T14:06:46Z</time>
      </trkpt>
      <trkpt lat="52.455840000" lon="13.458730000">
        <ele>25</ele>
        <time>2025-08-16T14:06:50Z</time>
      </trkpt>
      <trkpt lat="52.455790000" lon="13.458750000">
        <ele>25</ele>
        <time>2025-08-16T14:06:54Z</time>
      </trkpt>
      <trkpt lat="52.455730000" lon="13.458780000">
        <ele>24</ele>
        <time>2025-08-16T14:06:59Z</time>
      </trkpt>
      <trkpt lat="52.455680000" lon="13.458820000">
        <ele>24</ele>
        <time>2025-08-16T14:07:04Z</time>
      </trkpt>
      <trkpt lat="52.455640000" lon="13.458850000">
        <ele>24</ele>
        <time>2025-08-16T14:07:08Z</time>
      </trkpt>
      <trkpt lat="52.455590000" lon="13.458860000">
        <ele>24</ele>
        <time>2025-08-16T14:07:14Z</time>
      </trkpt>
      <trkpt lat="52.455550000" lon="13.458900000">
        <ele>24</ele>
        <time>2025-08-16T14:07:18Z</time>
      </trkpt>
      <trkpt lat="52.455500000" lon="13.458930000">
        <ele>24</ele>
        <time>2025-08-16T14:07:22Z</time>
      </trkpt>
      <trkpt lat="52.455450000" lon="13.458970000">
        <ele>24</ele>
        <time>2025-08-16T14:07:27Z</time>
      </trkpt>
      <trkpt lat="52.455400000" lon="13.459000000">
        <ele>24</ele>
        <time>2025-08-16T14:07:32Z</time>
      </trkpt>
      <trkpt lat="52.455360000" lon="13.459050000">
        <ele>24</ele>
        <time>2025-08-16T14:07:37Z</time>
      </trkpt>
      <trkpt lat="52.455310000" lon="13.459080000">
        <ele>24</ele>
        <time>2025-08-16T14:07:41Z</time>
      </trkpt>
      <trkpt lat="52.455260000" lon="13.459120000">
        <ele>24</ele>
        <time>2025-08-16T14:07:46Z</time>
      </trkpt>
      <trkpt lat="52.455210000" lon="13.459170000">
        <ele>24</ele>
        <time>2025-08-16T14:07:51Z</time>
      </trkpt>
      <trkpt lat="52.455160000" lon="13.459200000">
        <ele>24</ele>
        <time>2025-08-16T14:07:54Z</time>
      </trkpt>
      <trkpt lat="52.455120000" lon="13.459230000">
        <ele>24</ele>
        <time>2025-08-16T14:07:57Z</time>
      </trkpt>
      <trkpt lat="52.455080000" lon="13.459270000">
        <ele>24</ele>
        <time>2025-08-16T14:08:01Z</time>
      </trkpt>
      <trkpt lat="52.455030000" lon="13.459300000">
        <ele>24</ele>
        <time>2025-08-16T14:08:06Z</time>
      </trkpt>
      <trkpt lat="52.454990000" lon="13.459320000">
        <ele>24</ele>
        <time>2025-08-16T14:08:10Z</time>
      </trkpt>
      <trkpt lat="52.454940000" lon="13.459340000">
        <ele>24</ele>
        <time>2025-08-16T14:08:14Z</time>
      </trkpt>
      <trkpt lat="52.454890000" lon="13.459380000">
        <ele>24</ele>
        <time>2025-08-16T14:08:19Z</time>
      </trkpt>
      <trkpt lat="52.454850000" lon="13.459410000">
        <ele>24</ele>
        <time>2025-08-16T14:08:24Z</time>
      </trkpt>
      <trkpt lat="52.454790000" lon="13.459450000">
        <ele>24</ele>
        <time>2025-08-16T14:08:30Z</time>
      </trkpt>
      <trkpt lat="52.454740000" lon="13.459480000">
        <ele>24</ele>
        <time>2025-08-16T14:08:35Z</time>
      </trkpt>
      <trkpt lat="52.454690000" lon="13.459520000">
        <ele>24</ele>
        <time>2025-08-16T14:08:40Z</time>
      </trkpt>
      <trkpt lat="52.454640000" lon="13.459560000">
        <ele>24</ele>
        <time>2025-08-16T14:08:43Z</time>
      </trkpt>
      <trkpt lat="52.454600000" lon="13.459600000">
        <ele>24</ele>
        <time>2025-08-16T14:08:47Z</time>
      </trkpt>
      <trkpt lat="52.454560000" lon="13.459640000">
        <ele>24</ele>
        <time>2025-08-16T14:09:00Z</time>
      </trkpt>
      <trkpt lat="52.454510000" lon="13.459680000">
        <ele>24</ele>
        <time>2025-08-16T14:09:03Z</time>
      </trkpt>
      <trkpt lat="52.454470000" lon="13.459720000">
        <ele>24</ele>
        <time>2025-08-16T14:09:07Z</time>
      </trkpt>
      <trkpt lat="52.454420000" lon="13.459750000">
        <ele>24</ele>
        <time>2025-08-16T14:09:11Z</time>
      </trkpt>
      <trkpt lat="52.454370000" lon="13.459780000">
        <ele>25</ele>
        <time>2025-08-16T14:09:15Z</time>
      </trkpt>
      <trkpt lat="52.454330000" lon="13.459820000">
        <ele>25</ele>
        <time>2025-08-16T14:09:18Z</time>
      </trkpt>
      <trkpt lat="52.454280000" lon="13.459820000">
        <ele>25</ele>
        <time>2025-08-16T14:09:22Z</time>
      </trkpt>
      <trkpt lat="52.454250000" lon="13.459770000">
        <ele>25</ele>
        <time>2025-08-16T14:09:27Z</time>
      </trkpt>
      <trkpt lat="52.454220000" lon="13.459700000">
        <ele>24</ele>
        <time>2025-08-16T14:09:32Z</time>
      </trkpt>
      <trkpt lat="52.454210000" lon="13.459630000">
        <ele>24</ele>
        <time>2025-08-16T14:09:36Z</time>
      </trkpt>
      <trkpt lat="52.454180000" lon="13.459550000">
        <ele>24</ele>
        <time>2025-08-16T14:09:41Z</time>
      </trkpt>
      <trkpt lat="52.454160000" lon="13.459490000">
        <ele>24</ele>
        <time>2025-08-16T14:09:46Z</time>
      </trkpt>
      <trkpt lat="52.454130000" lon="13.459420000">
        <ele>25</ele>
        <time>2025-08-16T14:09:50Z</time>
      </trkpt>
      <trkpt lat="52.454110000" lon="13.459340000">
        <ele>25</ele>
        <time>2025-08-16T14:09:54Z</time>
      </trkpt>
      <trkpt lat="52.454090000" lon="13.459280000">
        <ele>25</ele>
        <time>2025-08-16T14:09:57Z</time>
      </trkpt>
      <trkpt lat="52.454070000" lon="13.459190000">
        <ele>25</ele>
        <time>2025-08-16T14:10:01Z</time>
      </trkpt>
      <trkpt lat="52.454040000" lon="13.459110000">
        <ele>25</ele>
        <time>2025-08-16T14:10:05Z</time>
      </trkpt>
      <trkpt lat="52.454020000" lon="13.459020000">
        <ele>25</ele>
        <time>2025-08-16T14:10:09Z</time>
      </trkpt>
      <trkpt lat="52.453990000" lon="13.458940000">
        <ele>25</ele>
        <time>2025-08-16T14:10:13Z</time>
      </trkpt>
      <trkpt lat="52.453970000" lon="13.458860000">
        <ele>25</ele>
        <time>2025-08-16T14:10:18Z</time>
      </trkpt>
      <trkpt lat="52.453940000" lon="13.458780000">
        <ele>25</ele>
        <time>2025-08-16T14:10:23Z</time>
      </trkpt>
      <trkpt lat="52.453920000" lon="13.458700000">
        <ele>25</ele>
        <time>2025-08-16T14:10:28Z</time>
      </trkpt>
      <trkpt lat="52.453900000" lon="13.458630000">
        <ele>25</ele>
        <time>2025-08-16T14:10:32Z</time>
      </trkpt>
      <trkpt lat="52.453880000" lon="13.458550000">
        <ele>25</ele>
        <time>2025-08-16T14:10:37Z</time>
      </trkpt>
      <trkpt lat="52.453860000" lon="13.458470000">
        <ele>25</ele>
        <time>2025-08-16T14:10:41Z</time>
      </trkpt>
      <trkpt lat="52.453800000" lon="13.458460000">
        <ele>25</ele>
        <time>2025-08-16T14:10:48Z</time>
      </trkpt>
      <trkpt lat="52.453810000" lon="13.458540000">
        <ele>26</ele>
        <time>2025-08-16T14:10:53Z</time>
      </trkpt>
      <trkpt lat="52.453830000" lon="13.458620000">
        <ele>26</ele>
        <time>2025-08-16T14:10:57Z</time>
      </trkpt>
      <trkpt lat="52.453850000" lon="13.458700000">
        <ele>26</ele>
        <time>2025-08-16T14:11:01Z</time>
      </trkpt>
      <trkpt lat="52.453880000" lon="13.458790000">
        <ele>26</ele>
        <time>2025-08-16T14:11:05Z</time>
      </trkpt>
      <trkpt lat="52.453890000" lon="13.458860000">
        <ele>27</ele>
        <time>2025-08-16T14:11:09Z</time>
      </trkpt>
      <trkpt lat="52.453910000" lon="13.458940000">
        <ele>27</ele>
        <time>2025-08-16T14:11:13Z</time>
      </trkpt>
      <trkpt lat="52.453930000" lon="13.459020000">
        <ele>27</ele>
        <time>2025-08-16T14:11:17Z</time>
      </trkpt>
      <trkpt lat="52.453950000" lon="13.459100000">
        <ele>27</ele>
        <time>2025-08-16T14:11:21Z</time>
      </trkpt>
      <trkpt lat="52.453970000" lon="13.459190000">
        <ele>28</ele>
        <time>2025-08-16T14:11:25Z</time>
      </trkpt>
      <trkpt lat="52.453980000" lon="13.459280000">
        <ele>28</ele>
        <time>2025-08-16T14:11:30Z</time>
      </trkpt>
      <trkpt lat="52.454000000" lon="13.459360000">
        <ele>28</ele>
        <time>2025-08-16T14:11:34Z</time>
      </trkpt>
      <trkpt lat="52.454020000" lon="13.459430000">
        <ele>28</ele>
        <time>2025-08-16T14:11:37Z</time>
      </trkpt>
      <trkpt lat="52.454040000" lon="13.459500000">
        <ele>29</ele>
        <time>2025-08-16T14:11:41Z</time>
      </trkpt>
      <trkpt lat="52.454060000" lon="13.459570000">
        <ele>29</ele>
        <time>2025-08-16T14:11:45Z</time>
      </trkpt>
      <trkpt lat="52.454080000" lon="13.459650000">
        <ele>29</ele>
        <time>2025-08-16T14:11:52Z</time>
      </trkpt>
      <trkpt lat="52.454110000" lon="13.459710000">
        <ele>29</ele>
        <time>2025-08-16T14:11:56Z</time>
      </trkpt>
      <trkpt lat="52.454120000" lon="13.459790000">
        <ele>30</ele>
        <time>2025-08-16T14:12:00Z</time>
      </trkpt>
      <trkpt lat="52.454140000" lon="13.459860000">
        <ele>30</ele>
        <time>2025-08-16T14:12:04Z</time>
      </trkpt>
      <trkpt lat="52.454160000" lon="13.459930000">
        <ele>30</ele>
        <time>2025-08-16T14:12:08Z</time>
      </trkpt>
      <trkpt lat="52.454170000" lon="13.460000000">
        <ele>30</ele>
        <time>2025-08-16T14:12:11Z</time>
      </trkpt>
      <trkpt lat="52.454190000" lon="13.460100000">
        <ele>30</ele>
        <time>2025-08-16T14:12:15Z</time>
      </trkpt>
      <trkpt lat="52.454210000" lon="13.460190000">
        <ele>30</ele>
        <time>2025-08-16T14:12:19Z</time>
      </trkpt>
      <trkpt lat="52.454230000" lon="13.460270000">
        <ele>30</ele>
        <time>2025-08-16T14:12:23Z</time>
      </trkpt>
      <trkpt lat="52.454240000" lon="13.460350000">
        <ele>30</ele>
        <time>2025-08-16T14:12:27Z</time>
      </trkpt>
      <trkpt lat="52.454260000" lon="13.460420000">
        <ele>31</ele>
        <time>2025-08-16T14:12:30Z</time>
      </trkpt>
      <trkpt lat="52.454280000" lon="13.460510000">
        <ele>31</ele>
        <time>2025-08-16T14:12:34Z</time>
      </trkpt>
      <trkpt lat="52.454300000" lon="13.460580000">
        <ele>31</ele>
        <time>2025-08-16T14:12:38Z</time>
      </trkpt>
      <trkpt lat="52.454320000" lon="13.460670000">
        <ele>31</ele>
        <time>2025-08-16T14:12:42Z</time>
      </trkpt>
      <trkpt lat="52.454340000" lon="13.460730000">
        <ele>31</ele>
        <time>2025-08-16T14:12:46Z</time>
      </trkpt>
      <trkpt lat="52.454380000" lon="13.460790000">
        <ele>31</ele>
        <time>2025-08-16T14:12:52Z</time>
      </trkpt>
      <trkpt lat="52.454420000" lon="13.460780000">
        <ele>31</ele>
        <time>2025-08-16T14:12:57Z</time>
      </trkpt>
      <trkpt lat="52.454470000" lon="13.460760000">
        <ele>31</ele>
        <time>2025-08-16T14:13:02Z</time>
      </trkpt>
      <trkpt lat="52.454520000" lon="13.460730000">
        <ele>30</ele>
        <time>2025-08-16T14:13:07Z</time>
      </trkpt>
      <trkpt lat="52.454570000" lon="13.460710000">
        <ele>30</ele>
        <time>2025-08-16T14:13:12Z</time>
      </trkpt>
      <trkpt lat="52.454620000" lon="13.460670000">
        <ele>30</ele>
        <time>2025-08-16T14:13:17Z</time>
      </trkpt>
      <trkpt lat="52.454660000" lon="13.460640000">
        <ele>30</ele>
        <time>2025-08-16T14:13:21Z</time>
      </trkpt>
      <trkpt lat="52.454710000" lon="13.460610000">
        <ele>30</ele>
        <time>2025-08-16T14:13:25Z</time>
      </trkpt>
      <trkpt lat="52.454760000" lon="13.460570000">
        <ele>30</ele>
        <time>2025-08-16T14:13:29Z</time>
      </trkpt>
      <trkpt lat="52.454810000" lon="13.460530000">
        <ele>30</ele>
        <time>2025-08-16T14:13:33Z</time>
      </trkpt>
      <trkpt lat="52.454860000" lon="13.460490000">
        <ele>30</ele>
        <time>2025-08-16T14:13:37Z</time>
      </trkpt>
      <trkpt lat="52.454910000" lon="13.460450000">
        <ele>28</ele>
        <time>2025-08-16T14:13:41Z</time>
      </trkpt>
      <trkpt lat="52.454970000" lon="13.460420000">
        <ele>28</ele>
        <time>2025-08-16T14:13:45Z</time>
      </trkpt>
      <trkpt lat="52.455020000" lon="13.460380000">
        <ele>28</ele>
        <time>2025-08-16T14:13:49Z</time>
      </trkpt>
      <trkpt lat="52.455070000" lon="13.460320000">
        <ele>28</ele>
        <time>2025-08-16T14:13:53Z</time>
      </trkpt>
      <trkpt lat="52.455110000" lon="13.460300000">
        <ele>27</ele>
        <time>2025-08-16T14:13:57Z</time>
      </trkpt>
      <trkpt lat="52.455160000" lon="13.460280000">
        <ele>27</ele>
        <time>2025-08-16T14:14:01Z</time>
      </trkpt>
      <trkpt lat="52.455210000" lon="13.460240000">
        <ele>27</ele>
        <time>2025-08-16T14:14:05Z</time>
      </trkpt>
      <trkpt lat="52.455250000" lon="13.460200000">
        <ele>27</ele>
        <time>2025-08-16T14:14:08Z</time>
      </trkpt>
      <trkpt lat="52.455290000" lon="13.460180000">
        <ele>27</ele>
        <time>2025-08-16T14:14:11Z</time>
      </trkpt>
      <trkpt lat="52.455330000" lon="13.460160000">
        <ele>27</ele>
        <time>2025-08-16T14:14:15Z</time>
      </trkpt>
      <trkpt lat="52.455380000" lon="13.460110000">
        <ele>27</ele>
        <time>2025-08-16T14:14:19Z</time>
      </trkpt>
      <trkpt lat="52.455430000" lon="13.460050000">
        <ele>27</ele>
        <time>2025-08-16T14:14:23Z</time>
      </trkpt>
      <trkpt lat="52.455480000" lon="13.460010000">
        <ele>26</ele>
        <time>2025-08-16T14:14:27Z</time>
      </trkpt>
      <trkpt lat="52.455530000" lon="13.459960000">
        <ele>26</ele>
        <time>2025-08-16T14:14:31Z</time>
      </trkpt>
      <trkpt lat="52.455580000" lon="13.459950000">
        <ele>26</ele>
        <time>2025-08-16T14:14:34Z</time>
      </trkpt>
      <trkpt lat="52.455630000" lon="13.459920000">
        <ele>26</ele>
        <time>2025-08-16T14:14:38Z</time>
      </trkpt>
      <trkpt lat="52.455680000" lon="13.459900000">
        <ele>26</ele>
        <time>2025-08-16T14:14:42Z</time>
      </trkpt>
      <trkpt lat="52.455720000" lon="13.459870000">
        <ele>26</ele>
        <time>2025-08-16T14:14:47Z</time>
      </trkpt>
      <trkpt lat="52.455760000" lon="13.459830000">
        <ele>26</ele>
        <time>2025-08-16T14:14:51Z</time>
      </trkpt>
      <trkpt lat="52.455800000" lon="13.459780000">
        <ele>26</ele>
        <time>2025-08-16T14:14:56Z</time>
      </trkpt>
      <trkpt lat="52.455840000" lon="13.459720000">
        <ele>25</ele>
        <time>2025-08-16T14:15:01Z</time>
      </trkpt>
      <trkpt lat="52.455870000" lon="13.459660000">
        <ele>25</ele>
        <time>2025-08-16T14:15:05Z</time>
      </trkpt>
      <trkpt lat="52.455900000" lon="13.459600000">
        <ele>25</ele>
        <time>2025-08-16T14:15:09Z</time>
      </trkpt>
      <trkpt lat="52.455960000" lon="13.459590000">
        <ele>25</ele>
        <time>2025-08-16T14:15:13Z</time>
      </trkpt>
      <trkpt lat="52.456000000" lon="13.459570000">
        <ele>25</ele>
        <time>2025-08-16T14:15:17Z</time>
      </trkpt>
      <trkpt lat="52.456050000" lon="13.459540000">
        <ele>25</ele>
        <time>2025-08-16T14:15:21Z</time>
      </trkpt>
      <trkpt lat="52.456100000" lon="13.459520000">
        <ele>25</ele>
        <time>2025-08-16T14:15:28Z</time>
      </trkpt>
      <trkpt lat="52.456140000" lon="13.459480000">
        <ele>25</ele>
        <time>2025-08-16T14:15:33Z</time>
      </trkpt>
      <trkpt lat="52.456190000" lon="13.459450000">
        <ele>24</ele>
        <time>2025-08-16T14:15:37Z</time>
      </trkpt>
      <trkpt lat="52.456240000" lon="13.459420000">
        <ele>24</ele>
        <time>2025-08-16T14:15:41Z</time>
      </trkpt>
      <trkpt lat="52.456290000" lon="13.459390000">
        <ele>24</ele>
        <time>2025-08-16T14:15:46Z</time>
      </trkpt>
      <trkpt lat="52.456340000" lon="13.459350000">
        <ele>24</ele>
        <time>2025-08-16T14:15:50Z</time>
      </trkpt>
      <trkpt lat="52.456390000" lon="13.459310000">
        <ele>24</ele>
        <time>2025-08-16T14:15:54Z</time>
      </trkpt>
      <trkpt lat="52.456430000" lon="13.459270000">
        <ele>24</ele>
        <time>2025-08-16T14:15:58Z</time>
      </trkpt>
      <trkpt lat="52.456480000" lon="13.459240000">
        <ele>24</ele>
        <time>2025-08-16T14:16:02Z</time>
      </trkpt>
      <trkpt lat="52.456520000" lon="13.459210000">
        <ele>24</ele>
        <time>2025-08-16T14:16:06Z</time>
      </trkpt>
      <trkpt lat="52.456570000" lon="13.459160000">
        <ele>24</ele>
        <time>2025-08-16T14:16:10Z</time>
      </trkpt>
      <trkpt lat="52.456610000" lon="13.459140000">
        <ele>24</ele>
        <time>2025-08-16T14:16:13Z</time>
      </trkpt>
      <trkpt lat="52.456650000" lon="13.459120000">
        <ele>24</ele>
        <time>2025-08-16T14:16:17Z</time>
      </trkpt>
      <trkpt lat="52.456700000" lon="13.459090000">
        <ele>24</ele>
        <time>2025-08-16T14:16:21Z</time>
      </trkpt>
      <trkpt lat="52.456750000" lon="13.459050000">
        <ele>24</ele>
        <time>2025-08-16T14:16:24Z</time>
      </trkpt>
      <trkpt lat="52.456790000" lon="13.459030000">
        <ele>24</ele>
        <time>2025-08-16T14:16:28Z</time>
      </trkpt>
      <trkpt lat="52.456840000" lon="13.458990000">
        <ele>24</ele>
        <time>2025-08-16T14:16:31Z</time>
      </trkpt>
      <trkpt lat="52.456890000" lon="13.458960000">
        <ele>24</ele>
        <time>2025-08-16T14:16:35Z</time>
      </trkpt>
      <trkpt lat="52.456940000" lon="13.458910000">
        <ele>25</ele>
        <time>2025-08-16T14:16:39Z</time>
      </trkpt>
      <trkpt lat="52.456980000" lon="13.458870000">
        <ele>25</ele>
        <time>2025-08-16T14:16:43Z</time>
      </trkpt>
      <trkpt lat="52.457030000" lon="13.458840000">
        <ele>25</ele>
        <time>2025-08-16T14:16:47Z</time>
      </trkpt>
      <trkpt lat="52.457080000" lon="13.458790000">
        <ele>25</ele>
        <time>2025-08-16T14:16:51Z</time>
      </trkpt>
      <trkpt lat="52.457120000" lon="13.458740000">
        <ele>25</ele>
        <time>2025-08-16T14:16:55Z</time>
      </trkpt>
      <trkpt lat="52.457150000" lon="13.458690000">
        <ele>25</ele>
        <time>2025-08-16T14:16:59Z</time>
      </trkpt>
      <trkpt lat="52.457200000" lon="13.458640000">
        <ele>25</ele>
        <time>2025-08-16T14:17:04Z</time>
      </trkpt>
      <trkpt lat="52.457250000" lon="13.458590000">
        <ele>25</ele>
        <time>2025-08-16T14:17:10Z</time>
      </trkpt>
      <trkpt lat="52.457290000" lon="13.458550000">
        <ele>26</ele>
        <time>2025-08-16T14:17:15Z</time>
      </trkpt>
      <trkpt lat="52.457330000" lon="13.458530000">
        <ele>26</ele>
        <time>2025-08-16T14:17:19Z</time>
      </trkpt>
      <trkpt lat="52.457390000" lon="13.458500000">
        <ele>26</ele>
        <time>2025-08-16T14:17:23Z</time>
      </trkpt>
      <trkpt lat="52.457430000" lon="13.458460000">
        <ele>26</ele>
        <time>2025-08-16T14:17:26Z</time>
      </trkpt>
      <trkpt lat="52.457480000" lon="13.458420000">
        <ele>25</ele>
        <time>2025-08-16T14:17:30Z</time>
      </trkpt>
      <trkpt lat="52.457520000" lon="13.458390000">
        <ele>25</ele>
        <time>2025-08-16T14:17:34Z</time>
      </trkpt>
      <trkpt lat="52.457580000" lon="13.458350000">
        <ele>25</ele>
        <time>2025-08-16T14:17:38Z</time>
      </trkpt>
      <trkpt lat="52.457630000" lon="13.458310000">
        <ele>25</ele>
        <time>2025-08-16T14:17:42Z</time>
      </trkpt>
      <trkpt lat="52.457690000" lon="13.458280000">
        <ele>26</ele>
        <time>2025-08-16T14:17:46Z</time>
      </trkpt>
      <trkpt lat="52.457730000" lon="13.458250000">
        <ele>26</ele>
        <time>2025-08-16T14:17:50Z</time>
      </trkpt>
      <trkpt lat="52.457780000" lon="13.458200000">
        <ele>26</ele>
        <time>2025-08-16T14:17:54Z</time>
      </trkpt>
      <trkpt lat="52.457830000" lon="13.458160000">
        <ele>26</ele>
        <time>2025-08-16T14:17:58Z</time>
      </trkpt>
      <trkpt lat="52.457870000" lon="13.458120000">
        <ele>26</ele>
        <time>2025-08-16T14:18:02Z</time>
      </trkpt>
      <trkpt lat="52.457910000" lon="13.458090000">
        <ele>26</ele>
        <time>2025-08-16T14:18:05Z</time>
      </trkpt>
      <trkpt lat="52.457960000" lon="13.458060000">
        <ele>26</ele>
        <time>2025-08-16T14:18:09Z</time>
      </trkpt>
      <trkpt lat="52.458010000" lon="13.458020000">
        <ele>26</ele>
        <time>2025-08-16T14:18:13Z</time>
      </trkpt>
      <trkpt lat="52.458050000" lon="13.457990000">
        <ele>26</ele>
        <time>2025-08-16T14:18:17Z</time>
      </trkpt>
      <trkpt lat="52.458090000" lon="13.457960000">
        <ele>26</ele>
        <time>2025-08-16T14:18:21Z</time>
      </trkpt>
      <trkpt lat="52.458140000" lon="13.457920000">
        <ele>26</ele>
        <time>2025-08-16T14:18:25Z</time>
      </trkpt>
      <trkpt lat="52.458190000" lon="13.457890000">
        <ele>26</ele>
        <time>2025-08-16T14:18:29Z</time>
      </trkpt>
      <trkpt lat="52.458240000" lon="13.457850000">
        <ele>26</ele>
        <time>2025-08-16T14:18:33Z</time>
      </trkpt>
      <trkpt lat="52.458290000" lon="13.457820000">
        <ele>26</ele>
        <time>2025-08-16T14:18:37Z</time>
      </trkpt>
      <trkpt lat="52.458330000" lon="13.457780000">
        <ele>26</ele>
        <time>2025-08-16T14:18:41Z</time>
      </trkpt>
      <trkpt lat="52.458380000" lon="13.457730000">
        <ele>26</ele>
        <time>2025-08-16T14:18:45Z</time>
      </trkpt>
      <trkpt lat="52.458430000" lon="13.457700000">
        <ele>26</ele>
        <time>2025-08-16T14:18:49Z</time>
      </trkpt>
      <trkpt lat="52.458480000" lon="13.457680000">
        <ele>26</ele>
        <time>2025-08-16T14:18:53Z</time>
      </trkpt>
      <trkpt lat="52.458530000" lon="13.457650000">
        <ele>26</ele>
        <time>2025-08-16T14:18:57Z</time>
      </trkpt>
      <trkpt lat="52.458580000" lon="13.457640000">
        <ele>26</ele>
        <time>2025-08-16T14:19:01Z</time>
      </trkpt>
      <trkpt lat="52.458620000" lon="13.457610000">
        <ele>26</ele>
        <time>2025-08-16T14:19:05Z</time>
      </trkpt>
      <trkpt lat="52.458670000" lon="13.457580000">
        <ele>26</ele>
        <time>2025-08-16T14:19:09Z</time>
      </trkpt>
      <trkpt lat="52.458720000" lon="13.457580000">
        <ele>26</ele>
        <time>2025-08-16T14:19:13Z</time>
      </trkpt>
      <trkpt lat="52.458770000" lon="13.457580000">
        <ele>26</ele>
        <time>2025-08-16T14:19:17Z</time>
      </trkpt>
      <trkpt lat="52.458820000" lon="13.457590000">
        <ele>26</ele>
        <time>2025-08-16T14:19:22Z</time>
      </trkpt>
      <trkpt lat="52.458860000" lon="13.457620000">
        <ele>26</ele>
        <time>2025-08-16T14:19:26Z</time>
      </trkpt>
      <trkpt lat="52.458910000" lon="13.457660000">
        <ele>26</ele>
        <time>2025-08-16T14:19:31Z</time>
      </trkpt>
      <trkpt lat="52.458950000" lon="13.457720000">
        <ele>26</ele>
        <time>2025-08-16T14:19:36Z</time>
      </trkpt>
      <trkpt lat="52.458970000" lon="13.457800000">
        <ele>26</ele>
        <time>2025-08-16T14:19:40Z</time>
      </trkpt>
      <trkpt lat="52.459010000" lon="13.457890000">
        <ele>25</ele>
        <time>2025-08-16T14:19:43Z</time>
      </trkpt>
      <trkpt lat="52.459060000" lon="13.457940000">
        <ele>25</ele>
        <time>2025-08-16T14:19:45Z</time>
      </trkpt>
      <trkpt lat="52.459080000" lon="13.458000000">
        <ele>25</ele>
        <time>2025-08-16T14:19:47Z</time>
      </trkpt>
      <trkpt lat="52.459130000" lon="13.458030000">
        <ele>25</ele>
        <time>2025-08-16T14:19:49Z</time>
      </trkpt>
      <trkpt lat="52.459170000" lon="13.458100000">
        <ele>25</ele>
        <time>2025-08-16T14:19:52Z</time>
      </trkpt>
      <trkpt lat="52.459180000" lon="13.458190000">
        <ele>25</ele>
        <time>2025-08-16T14:20:00Z</time>
      </trkpt>
      <trkpt lat="52.459200000" lon="13.458260000">
        <ele>25</ele>
        <time>2025-08-16T14:20:05Z</time>
      </trkpt>
      <trkpt lat="52.459210000" lon="13.458330000">
        <ele>25</ele>
        <time>2025-08-16T14:20:10Z</time>
      </trkpt>
      <trkpt lat="52.459220000" lon="13.458410000">
        <ele>25</ele>
        <time>2025-08-16T14:20:16Z</time>
      </trkpt>
      <trkpt lat="52.459230000" lon="13.458490000">
        <ele>25</ele>
        <time>2025-08-16T14:20:21Z</time>
      </trkpt>
      <trkpt lat="52.459250000" lon="13.458560000">
        <ele>25</ele>
        <time>2025-08-16T14:20:25Z</time>
      </trkpt>
      <trkpt lat="52.459260000" lon="13.458650000">
        <ele>25</ele>
        <time>2025-08-16T14:20:29Z</time>
      </trkpt>
      <trkpt lat="52.459260000" lon="13.458730000">
        <ele>25</ele>
        <time>2025-08-16T14:20:33Z</time>
      </trkpt>
      <trkpt lat="52.459270000" lon="13.458820000">
        <ele>25</ele>
        <time>2025-08-16T14:20:37Z</time>
      </trkpt>
      <trkpt lat="52.459270000" lon="13.458900000">
        <ele>25</ele>
        <time>2025-08-16T14:20:41Z</time>
      </trkpt>
      <trkpt lat="52.459290000" lon="13.458970000">
        <ele>25</ele>
        <time>2025-08-16T14:20:46Z</time>
      </trkpt>
      <trkpt lat="52.459300000" lon="13.459050000">
        <ele>25</ele>
        <time>2025-08-16T14:20:51Z</time>
      </trkpt>
      <trkpt lat="52.459310000" lon="13.459130000">
        <ele>25</ele>
        <time>2025-08-16T14:20:56Z</time>
      </trkpt>
      <trkpt lat="52.459300000" lon="13.459220000">
        <ele>25</ele>
        <time>2025-08-16T14:21:01Z</time>
      </trkpt>
      <trkpt lat="52.459310000" lon="13.459310000">
        <ele>25</ele>
        <time>2025-08-16T14:21:06Z</time>
      </trkpt>
      <trkpt lat="52.459310000" lon="13.459390000">
        <ele>25</ele>
        <time>2025-08-16T14:21:11Z</time>
      </trkpt>
      <trkpt lat="52.459310000" lon="13.459480000">
        <ele>25</ele>
        <time>2025-08-16T14:21:17Z</time>
      </trkpt>
      <trkpt lat="52.459320000" lon="13.459550000">
        <ele>25</ele>
        <time>2025-08-16T14:21:23Z</time>
      </trkpt>
      <trkpt lat="52.459310000" lon="13.459640000">
        <ele>25</ele>
        <time>2025-08-16T14:21:30Z</time>
      </trkpt>
      <trkpt lat="52.459310000" lon="13.459710000">
        <ele>25</ele>
        <time>2025-08-16T14:21:38Z</time>
      </trkpt>
      <trkpt lat="52.459280000" lon="13.459780000">
        <ele>25</ele>
        <time>2025-08-16T14:21:44Z</time>
      </trkpt>
      <trkpt lat="52.459240000" lon="13.459830000">
        <ele>25</ele>
        <time>2025-08-16T14:21:49Z</time>
      </trkpt>
      <trkpt lat="52.459210000" lon="13.459890000">
        <ele>25</ele>
        <time>2025-08-16T14:21:55Z</time>
      </trkpt>
      <trkpt lat="52.459180000" lon="13.459950000">
        <ele>25</ele>
        <time>2025-08-16T14:22:00Z</time>
      </trkpt>
      <trkpt lat="52.459140000" lon="13.460020000">
        <ele>25</ele>
        <time>2025-08-16T14:22:06Z</time>
      </trkpt>
      <trkpt lat="52.459120000" lon="13.460090000">
        <ele>25</ele>
        <time>2025-08-16T14:22:15Z</time>
      </trkpt>
      <trkpt lat="52.459100000" lon="13.460160000">
        <ele>25</ele>
        <time>2025-08-16T14:22:23Z</time>
      </trkpt>
      <trkpt lat="52.459090000" lon="13.460240000">
        <ele>25</ele>
        <time>2025-08-16T14:22:29Z</time>
      </trkpt>
      <trkpt lat="52.459080000" lon="13.460320000">
        <ele>25</ele>
        <time>2025-08-16T14:22:34Z</time>
      </trkpt>
      <trkpt lat="52.459080000" lon="13.460400000">
        <ele>25</ele>
        <time>2025-08-16T14:22:39Z</time>
      </trkpt>
      <trkpt lat="52.459080000" lon="13.460480000">
        <ele>25</ele>
        <time>2025-08-16T14:22:43Z</time>
      </trkpt>
      <trkpt lat="52.459080000" lon="13.460570000">
        <ele>25</ele>
        <time>2025-08-16T14:22:48Z</time>
      </trkpt>
      <trkpt lat="52.459080000" lon="13.460650000">
        <ele>25</ele>
        <time>2025-08-16T14:22:52Z</time>
      </trkpt>
      <trkpt lat="52.459080000" lon="13.460730000">
        <ele>25</ele>
        <time>2025-08-16T14:22:56Z</time>
      </trkpt>
      <trkpt lat="52.459080000" lon="13.460810000">
        <ele>25</ele>
        <time>2025-08-16T14:23:00Z</time>
      </trkpt>
      <trkpt lat="52.459070000" lon="13.460880000">
        <ele>25</ele>
        <time>2025-08-16T14:23:04Z</time>
      </trkpt>
      <trkpt lat="52.459060000" lon="13.460950000">
        <ele>25</ele>
        <time>2025-08-16T14:23:08Z</time>
      </trkpt>
      <trkpt lat="52.459070000" lon="13.461040000">
        <ele>25</ele>
        <time>2025-08-16T14:23:14Z</time>
      </trkpt>
      <trkpt lat="52.459060000" lon="13.461140000">
        <ele>25</ele>
        <time>2025-08-16T14:23:19Z</time>
      </trkpt>
      <trkpt lat="52.459050000" lon="13.461220000">
        <ele>25</ele>
        <time>2025-08-16T14:23:24Z</time>
      </trkpt>
      <trkpt lat="52.459040000" lon="13.461290000">
        <ele>25</ele>
        <time>2025-08-16T14:23:30Z</time>
      </trkpt>
      <trkpt lat="52.459030000" lon="13.461370000">
        <ele>25</ele>
        <time>2025-08-16T14:23:37Z</time>
      </trkpt>
      <trkpt lat="52.459030000" lon="13.461450000">
        <ele>25</ele>
        <time>2025-08-16T14:23:42Z</time>
      </trkpt>
      <trkpt lat="52.459020000" lon="13.461540000">
        <ele>25</ele>
        <time>2025-08-16T14:23:47Z</time>
      </trkpt>
      <trkpt lat="52.459010000" lon="13.461620000">
        <ele>25</ele>
        <time>2025-08-16T14:23:52Z</time>
      </trkpt>
      <trkpt lat="52.459010000" lon="13.461710000">
        <ele>25</ele>
        <time>2025-08-16T14:23:57Z</time>
      </trkpt>
      <trkpt lat="52.459010000" lon="13.461800000">
        <ele>25</ele>
        <time>2025-08-16T14:24:02Z</time>
      </trkpt>
      <trkpt lat="52.459010000" lon="13.461890000">
        <ele>25</ele>
        <time>2025-08-16T14:24:07Z</time>
      </trkpt>
      <trkpt lat="52.459010000" lon="13.461970000">
        <ele>25</ele>
        <time>2025-08-16T14:24:11Z</time>
      </trkpt>
      <trkpt lat="52.459010000" lon="13.462060000">
        <ele>25</ele>
        <time>2025-08-16T14:24:16Z</time>
      </trkpt>
      <trkpt lat="52.459010000" lon="13.462140000">
        <ele>25</ele>
        <time>2025-08-16T14:24:20Z</time>
      </trkpt>
      <trkpt lat="52.458990000" lon="13.462220000">
        <ele>26</ele>
        <time>2025-08-16T14:24:27Z</time>
      </trkpt>
      <trkpt lat="52.458980000" lon="13.462290000">
        <ele>26</ele>
        <time>2025-08-16T14:24:32Z</time>
      </trkpt>
      <trkpt lat="52.458980000" lon="13.462380000">
        <ele>26</ele>
        <time>2025-08-16T14:24:38Z</time>
      </trkpt>
      <trkpt lat="52.458980000" lon="13.462450000">
        <ele>26</ele>
        <time>2025-08-16T14:24:44Z</time>
      </trkpt>
      <trkpt lat="52.458980000" lon="13.462540000">
        <ele>26</ele>
        <time>2025-08-16T14:24:49Z</time>
      </trkpt>
      <trkpt lat="52.458970000" lon="13.462630000">
        <ele>26</ele>
        <time>2025-08-16T14:24:54Z</time>
      </trkpt>
      <trkpt lat="52.458980000" lon="13.462710000">
        <ele>26</ele>
        <time>2025-08-16T14:24:59Z</time>
      </trkpt>
      <trkpt lat="52.458980000" lon="13.462790000">
        <ele>26</ele>
        <time>2025-08-16T14:25:04Z</time>
      </trkpt>
      <trkpt lat="52.458970000" lon="13.462870000">
        <ele>26</ele>
        <time>2025-08-16T14:25:09Z</time>
      </trkpt>
      <trkpt lat="52.458970000" lon="13.462950000">
        <ele>26</ele>
        <time>2025-08-16T14:25:14Z</time>
      </trkpt>
      <trkpt lat="52.458970000" lon="13.463040000">
        <ele>26</ele>
        <time>2025-08-16T14:25:20Z</time>
      </trkpt>
      <trkpt lat="52.458970000" lon="13.463110000">
        <ele>26</ele>
        <time>2025-08-16T14:25:27Z</time>
      </trkpt>
      <trkpt lat="52.458960000" lon="13.463190000">
        <ele>26</ele>
        <time>2025-08-16T14:25:33Z</time>
      </trkpt>
      <trkpt lat="52.458960000" lon="13.463280000">
        <ele>26</ele>
        <time>2025-08-16T14:25:40Z</time>
      </trkpt>
      <trkpt lat="52.458960000" lon="13.463370000">
        <ele>26</ele>
        <time>2025-08-16T14:25:46Z</time>
      </trkpt>
      <trkpt lat="52.458960000" lon="13.463460000">
        <ele>26</ele>
        <time>2025-08-16T14:25:51Z</time>
      </trkpt>
      <trkpt lat="52.458960000" lon="13.463540000">
        <ele>26</ele>
        <time>2025-08-16T14:25:55Z</time>
      </trkpt>
      <trkpt lat="52.458970000" lon="13.463630000">
        <ele>26</ele>
        <time>2025-08-16T14:26:00Z</time>
      </trkpt>
      <trkpt lat="52.458970000" lon="13.463720000">
        <ele>26</ele>
        <time>2025-08-16T14:26:05Z</time>
      </trkpt>
      <trkpt lat="52.458960000" lon="13.463800000">
        <ele>26</ele>
        <time>2025-08-16T14:26:10Z</time>
      </trkpt>
      <trkpt lat="52.458960000" lon="13.463890000">
        <ele>26</ele>
        <time>2025-08-16T14:26:15Z</time>
      </trkpt>
      <trkpt lat="52.458950000" lon="13.463980000">
        <ele>26</ele>
        <time>2025-08-16T14:26:20Z</time>
      </trkpt>
      <trkpt lat="52.458940000" lon="13.464050000">
        <ele>26</ele>
        <time>2025-08-16T14:26:24Z</time>
      </trkpt>
      <trkpt lat="52.458930000" lon="13.464130000">
        <ele>26</ele>
        <time>2025-08-16T14:26:28Z</time>
      </trkpt>
      <trkpt lat="52.458940000" lon="13.464220000">
        <ele>26</ele>
        <time>2025-08-16T14:26:32Z</time>
      </trkpt>
      <trkpt lat="52.458940000" lon="13.464300000">
        <ele>26</ele>
        <time>2025-08-16T14:26:37Z</time>
      </trkpt>
      <trkpt lat="52.458940000" lon="13.464390000">
        <ele>26</ele>
        <time>2025-08-16T14:26:43Z</time>
      </trkpt>
      <trkpt lat="52.458930000" lon="13.464470000">
        <ele>26</ele>
        <time>2025-08-16T14:26:49Z</time>
      </trkpt>
      <trkpt lat="52.458920000" lon="13.464560000">
        <ele>26</ele>
        <time>2025-08-16T14:26:55Z</time>
      </trkpt>
      <trkpt lat="52.458920000" lon="13.464650000">
        <ele>26</ele>
        <time>2025-08-16T14:27:00Z</time>
      </trkpt>
      <trkpt lat="52.458920000" lon="13.464740000">
        <ele>26</ele>
        <time>2025-08-16T14:27:05Z</time>
      </trkpt>
      <trkpt lat="52.458930000" lon="13.464830000">
        <ele>26</ele>
        <time>2025-08-16T14:27:10Z</time>
      </trkpt>
      <trkpt lat="52.458930000" lon="13.464920000">
        <ele>27</ele>
        <time>2025-08-16T14:27:15Z</time>
      </trkpt>
      <trkpt lat="52.458930000" lon="13.465000000">
        <ele>27</ele>
        <time>2025-08-16T14:27:20Z</time>
      </trkpt>
      <trkpt lat="52.458930000" lon="13.465080000">
        <ele>27</ele>
        <time>2025-08-16T14:27:24Z</time>
      </trkpt>
      <trkpt lat="52.458930000" lon="13.465150000">
        <ele>27</ele>
        <time>2025-08-16T14:27:28Z</time>
      </trkpt>
      <trkpt lat="52.458930000" lon="13.465230000">
        <ele>27</ele>
        <time>2025-08-16T14:27:33Z</time>
      </trkpt>
      <trkpt lat="52.458930000" lon="13.465320000">
        <ele>27</ele>
        <time>2025-08-16T14:27:38Z</time>
      </trkpt>
      <trkpt lat="52.458930000" lon="13.465400000">
        <ele>27</ele>
        <time>2025-08-16T14:27:43Z</time>
      </trkpt>
      <trkpt lat="52.458920000" lon="13.465480000">
        <ele>27</ele>
        <time>2025-08-16T14:27:47Z</time>
      </trkpt>
      <trkpt lat="52.458920000" lon="13.465560000">
        <ele>27</ele>
        <time>2025-08-16T14:27:52Z</time>
      </trkpt>
      <trkpt lat="52.458920000" lon="13.465640000">
        <ele>27</ele>
        <time>2025-08-16T14:27:56Z</time>
      </trkpt>
      <trkpt lat="52.458920000" lon="13.465710000">
        <ele>27</ele>
        <time>2025-08-16T14:28:01Z</time>
      </trkpt>
      <trkpt lat="52.458930000" lon="13.465790000">
        <ele>27</ele>
        <time>2025-08-16T14:28:07Z</time>
      </trkpt>
      <trkpt lat="52.458940000" lon="13.465870000">
        <ele>26</ele>
        <time>2025-08-16T14:28:12Z</time>
      </trkpt>
      <trkpt lat="52.458940000" lon="13.465950000">
        <ele>26</ele>
        <time>2025-08-16T14:28:27Z</time>
      </trkpt>
      <trkpt lat="52.458940000" lon="13.466020000">
        <ele>26</ele>
        <time>2025-08-16T14:28:39Z</time>
      </trkpt>
      <trkpt lat="52.458940000" lon="13.466110000">
        <ele>26</ele>
        <time>2025-08-16T14:28:47Z</time>
      </trkpt>
      <trkpt lat="52.458930000" lon="13.466200000">
        <ele>26</ele>
        <time>2025-08-16T14:28:54Z</time>
      </trkpt>
      <trkpt lat="52.458910000" lon="13.466260000">
        <ele>26</ele>
        <time>2025-08-16T14:28:58Z</time>
      </trkpt>
      <trkpt lat="52.458910000" lon="13.466340000">
        <ele>26</ele>
        <time>2025-08-16T14:29:03Z</time>
      </trkpt>
      <trkpt lat="52.458900000" lon="13.466410000">
        <ele>26</ele>
        <time>2025-08-16T14:29:07Z</time>
      </trkpt>
      <trkpt lat="52.458900000" lon="13.466490000">
        <ele>25</ele>
        <time>2025-08-16T14:29:12Z</time>
      </trkpt>
      <trkpt lat="52.458890000" lon="13.466570000">
        <ele>25</ele>
        <time>2025-08-16T14:29:17Z</time>
      </trkpt>
      <trkpt lat="52.458890000" lon="13.466650000">
        <ele>25</ele>
        <time>2025-08-16T14:29:21Z</time>
      </trkpt>
      <trkpt lat="52.458890000" lon="13.466720000">
        <ele>25</ele>
        <time>2025-08-16T14:29:25Z</time>
      </trkpt>
      <trkpt lat="52.458890000" lon="13.466800000">
        <ele>25</ele>
        <time>2025-08-16T14:29:29Z</time>
      </trkpt>
      <trkpt lat="52.458890000" lon="13.466880000">
        <ele>25</ele>
        <time>2025-08-16T14:29:33Z</time>
      </trkpt>
      <trkpt lat="52.458890000" lon="13.466960000">
        <ele>25</ele>
        <time>2025-08-16T14:29:37Z</time>
      </trkpt>
      <trkpt lat="52.458880000" lon="13.467040000">
        <ele>25</ele>
        <time>2025-08-16T14:29:41Z</time>
      </trkpt>
      <trkpt lat="52.458880000" lon="13.467130000">
        <ele>25</ele>
        <time>2025-08-16T14:29:45Z</time>
      </trkpt>
      <trkpt lat="52.458890000" lon="13.467200000">
        <ele>25</ele>
        <time>2025-08-16T14:29:49Z</time>
      </trkpt>
      <trkpt lat="52.458890000" lon="13.467290000">
        <ele>25</ele>
        <time>2025-08-16T14:29:53Z</time>
      </trkpt>
      <trkpt lat="52.458880000" lon="13.467380000">
        <ele>25</ele>
        <time>2025-08-16T14:29:57Z</time>
      </trkpt>
      <trkpt lat="52.458880000" lon="13.467470000">
        <ele>25</ele>
        <time>2025-08-16T14:30:02Z</time>
      </trkpt>
      <trkpt lat="52.458880000" lon="13.467550000">
        <ele>25</ele>
        <time>2025-08-16T14:30:06Z</time>
      </trkpt>
      <trkpt lat="52.458890000" lon="13.467630000">
        <ele>25</ele>
        <time>2025-08-16T14:30:10Z</time>
      </trkpt>
      <trkpt lat="52.458880000" lon="13.467730000">
        <ele>25</ele>
        <time>2025-08-16T14:30:14Z</time>
      </trkpt>
      <trkpt lat="52.458880000" lon="13.467800000">
        <ele>25</ele>
        <time>2025-08-16T14:30:18Z</time>
      </trkpt>
      <trkpt lat="52.458880000" lon="13.467900000">
        <ele>25</ele>
        <time>2025-08-16T14:30:23Z</time>
      </trkpt>
      <trkpt lat="52.458880000" lon="13.468000000">
        <ele>25</ele>
        <time>2025-08-16T14:30:27Z</time>
      </trkpt>
      <trkpt lat="52.458880000" lon="13.468100000">
        <ele>25</ele>
        <time>2025-08-16T14:30:31Z</time>
      </trkpt>
      <trkpt lat="52.458880000" lon="13.468180000">
        <ele>25</ele>
        <time>2025-08-16T14:30:35Z</time>
      </trkpt>
      <trkpt lat="52.458870000" lon="13.468260000">
        <ele>25</ele>
        <time>2025-08-16T14:30:40Z</time>
      </trkpt>
      <trkpt lat="52.458860000" lon="13.468330000">
        <ele>25</ele>
        <time>2025-08-16T14:30:44Z</time>
      </trkpt>
      <trkpt lat="52.458860000" lon="13.468410000">
        <ele>25</ele>
        <time>2025-08-16T14:30:48Z</time>
      </trkpt>
      <trkpt lat="52.458860000" lon="13.468490000">
        <ele>25</ele>
        <time>2025-08-16T14:30:53Z</time>
      </trkpt>
      <trkpt lat="52.458860000" lon="13.468580000">
        <ele>25</ele>
        <time>2025-08-16T14:30:57Z</time>
      </trkpt>
      <trkpt lat="52.458860000" lon="13.468670000">
        <ele>25</ele>
        <time>2025-08-16T14:31:01Z</time>
      </trkpt>
      <trkpt lat="52.458850000" lon="13.468740000">
        <ele>25</ele>
        <time>2025-08-16T14:31:05Z</time>
      </trkpt>
      <trkpt lat="52.458850000" lon="13.468820000">
        <ele>25</ele>
        <time>2025-08-16T14:31:10Z</time>
      </trkpt>
      <trkpt lat="52.458850000" lon="13.468900000">
        <ele>25</ele>
        <time>2025-08-16T14:31:15Z</time>
      </trkpt>
      <trkpt lat="52.458840000" lon="13.468980000">
        <ele>25</ele>
        <time>2025-08-16T14:31:19Z</time>
      </trkpt>
      <trkpt lat="52.458850000" lon="13.469060000">
        <ele>25</ele>
        <time>2025-08-16T14:31:24Z</time>
      </trkpt>
      <trkpt lat="52.458840000" lon="13.469150000">
        <ele>25</ele>
        <time>2025-08-16T14:31:28Z</time>
      </trkpt>
      <trkpt lat="52.458850000" lon="13.469240000">
        <ele>24</ele>
        <time>2025-08-16T14:31:32Z</time>
      </trkpt>
      <trkpt lat="52.458840000" lon="13.469320000">
        <ele>24</ele>
        <time>2025-08-16T14:31:36Z</time>
      </trkpt>
      <trkpt lat="52.458840000" lon="13.469430000">
        <ele>24</ele>
        <time>2025-08-16T14:31:40Z</time>
      </trkpt>
      <trkpt lat="52.458840000" lon="13.469520000">
        <ele>24</ele>
        <time>2025-08-16T14:31:44Z</time>
      </trkpt>
      <trkpt lat="52.458830000" lon="13.469600000">
        <ele>24</ele>
        <time>2025-08-16T14:31:48Z</time>
      </trkpt>
      <trkpt lat="52.458830000" lon="13.469680000">
        <ele>24</ele>
        <time>2025-08-16T14:31:52Z</time>
      </trkpt>
      <trkpt lat="52.458830000" lon="13.469750000">
        <ele>24</ele>
        <time>2025-08-16T14:31:55Z</time>
      </trkpt>
      <trkpt lat="52.458840000" lon="13.469840000">
        <ele>24</ele>
        <time>2025-08-16T14:32:00Z</time>
      </trkpt>
      <trkpt lat="52.458850000" lon="13.469920000">
        <ele>24</ele>
        <time>2025-08-16T14:32:03Z</time>
      </trkpt>
      <trkpt lat="52.458850000" lon="13.470010000">
        <ele>24</ele>
        <time>2025-08-16T14:32:08Z</time>
      </trkpt>
      <trkpt lat="52.458850000" lon="13.470100000">
        <ele>24</ele>
        <time>2025-08-16T14:32:13Z</time>
      </trkpt>
      <trkpt lat="52.458840000" lon="13.470180000">
        <ele>24</ele>
        <time>2025-08-16T14:32:17Z</time>
      </trkpt>
      <trkpt lat="52.458850000" lon="13.470270000">
        <ele>24</ele>
        <time>2025-08-16T14:32:21Z</time>
      </trkpt>
      <trkpt lat="52.458830000" lon="13.470360000">
        <ele>24</ele>
        <time>2025-08-16T14:32:26Z</time>
      </trkpt>
      <trkpt lat="52.458840000" lon="13.470440000">
        <ele>24</ele>
        <time>2025-08-16T14:32:30Z</time>
      </trkpt>
      <trkpt lat="52.458860000" lon="13.470520000">
        <ele>24</ele>
        <time>2025-08-16T14:32:33Z</time>
      </trkpt>
      <trkpt lat="52.458860000" lon="13.470600000">
        <ele>24</ele>
        <time>2025-08-16T14:32:37Z</time>
      </trkpt>
      <trkpt lat="52.458850000" lon="13.470710000">
        <ele>24</ele>
        <time>2025-08-16T14:32:42Z</time>
      </trkpt>
      <trkpt lat="52.458830000" lon="13.470820000">
        <ele>24</ele>
        <time>2025-08-16T14:32:46Z</time>
      </trkpt>
      <trkpt lat="52.458800000" lon="13.470920000">
        <ele>24</ele>
        <time>2025-08-16T14:32:51Z</time>
      </trkpt>
      <trkpt lat="52.458800000" lon="13.471010000">
        <ele>24</ele>
        <time>2025-08-16T14:32:55Z</time>
      </trkpt>
      <trkpt lat="52.458800000" lon="13.471090000">
        <ele>24</ele>
        <time>2025-08-16T14:32:58Z</time>
      </trkpt>
      <trkpt lat="52.458790000" lon="13.471180000">
        <ele>24</ele>
        <time>2025-08-16T14:33:02Z</time>
      </trkpt>
      <trkpt lat="52.458790000" lon="13.471290000">
        <ele>24</ele>
        <time>2025-08-16T14:33:07Z</time>
      </trkpt>
      <trkpt lat="52.458790000" lon="13.471370000">
        <ele>24</ele>
        <time>2025-08-16T14:33:11Z</time>
      </trkpt>
      <trkpt lat="52.458790000" lon="13.471440000">
        <ele>24</ele>
        <time>2025-08-16T14:33:14Z</time>
      </trkpt>
      <trkpt lat="52.458790000" lon="13.471530000">
        <ele>24</ele>
        <time>2025-08-16T14:33:18Z</time>
      </trkpt>
      <trkpt lat="52.458780000" lon="13.471620000">
        <ele>24</ele>
        <time>2025-08-16T14:33:22Z</time>
      </trkpt>
      <trkpt lat="52.458780000" lon="13.471700000">
        <ele>24</ele>
        <time>2025-08-16T14:33:26Z</time>
      </trkpt>
      <trkpt lat="52.458790000" lon="13.471770000">
        <ele>24</ele>
        <time>2025-08-16T14:33:30Z</time>
      </trkpt>
      <trkpt lat="52.458790000" lon="13.471850000">
        <ele>24</ele>
        <time>2025-08-16T14:33:36Z</time>
      </trkpt>
      <trkpt lat="52.458780000" lon="13.471940000">
        <ele>24</ele>
        <time>2025-08-16T14:33:43Z</time>
      </trkpt>
      <trkpt lat="52.458800000" lon="13.472030000">
        <ele>25</ele>
        <time>2025-08-16T14:33:51Z</time>
      </trkpt>
      <trkpt lat="52.458840000" lon="13.472090000">
        <ele>25</ele>
        <time>2025-08-16T14:33:56Z</time>
      </trkpt>
      <trkpt lat="52.458880000" lon="13.472100000">
        <ele>25</ele>
        <time>2025-08-16T14:34:01Z</time>
      </trkpt>
      <trkpt lat="52.458930000" lon="13.472090000">
        <ele>28</ele>
        <time>2025-08-16T14:34:06Z</time>
      </trkpt>
      <trkpt lat="52.458980000" lon="13.472090000">
        <ele>28</ele>
        <time>2025-08-16T14:34:11Z</time>
      </trkpt>
      <trkpt lat="52.459020000" lon="13.472100000">
        <ele>28</ele>
        <time>2025-08-16T14:34:15Z</time>
      </trkpt>
   
      <trkpt lat="52.459040000" lon="13.472090000">
        <ele>28</ele>
        <time>2025-08-16T14:34:32Z</time>
      </trkpt>
      <trkpt lat="52.459100000" lon="13.472070000">
        <ele>29</ele>
        <time>2025-08-16T14:34:37Z</time>
      </trkpt>
      <trkpt lat="52.459150000" lon="13.472070000">
        <ele>29</ele>
        <time>2025-08-16T14:34:42Z</time>
      </trkpt>
      <trkpt lat="52.459200000" lon="13.472080000">
        <ele>29</ele>
        <time>2025-08-16T14:34:46Z</time>
      </trkpt>
      <trkpt lat="52.459250000" lon="13.472080000">
        <ele>29</ele>
        <time>2025-08-16T14:34:51Z</time>
      </trkpt>
      <trkpt lat="52.459300000" lon="13.472120000">
        <ele>29</ele>
        <time>2025-08-16T14:34:56Z</time>
      </trkpt>
      <trkpt lat="52.459260000" lon="13.472160000">
        <ele>29</ele>
        <time>2025-08-16T14:35:11Z</time>
      </trkpt>
      <trkpt lat="52.459240000" lon="13.472240000">
        <ele>29</ele>
        <time>2025-08-16T14:35:20Z</time>
      </trkpt>
      <trkpt lat="52.459250000" lon="13.472330000">
        <ele>29</ele>
        <time>2025-08-16T14:35:24Z</time>
      </trkpt>
      <trkpt lat="52.459250000" lon="13.472420000">
        <ele>24</ele>
        <time>2025-08-16T14:35:29Z</time>
      </trkpt>
      <trkpt lat="52.459240000" lon="13.472500000">
        <ele>24</ele>
        <time>2025-08-16T14:35:34Z</time>
      </trkpt>
      <trkpt lat="52.459240000" lon="13.472580000">
        <ele>24</ele>
        <time>2025-08-16T14:35:40Z</time>
      </trkpt>
      <trkpt lat="52.459240000" lon="13.472670000">
        <ele>24</ele>
        <time>2025-08-16T14:35:45Z</time>
      </trkpt>
      <trkpt lat="52.459230000" lon="13.472760000">
        <ele>24</ele>
        <time>2025-08-16T14:35:50Z</time>
      </trkpt>
      <trkpt lat="52.459220000" lon="13.472840000">
        <ele>24</ele>
        <time>2025-08-16T14:35:55Z</time>
      </trkpt>
      <trkpt lat="52.459220000" lon="13.472920000">
        <ele>24</ele>
        <time>2025-08-16T14:35:59Z</time>
      </trkpt>
      <trkpt lat="52.459230000" lon="13.473000000">
        <ele>24</ele>
        <time>2025-08-16T14:36:04Z</time>
      </trkpt>
      <trkpt lat="52.459240000" lon="13.473080000">
        <ele>24</ele>
        <time>2025-08-16T14:36:09Z</time>
      </trkpt>
      <trkpt lat="52.459240000" lon="13.473160000">
        <ele>24</ele>
        <time>2025-08-16T14:36:13Z</time>
      </trkpt>
      <trkpt lat="52.459240000" lon="13.473240000">
        <ele>24</ele>
        <time>2025-08-16T14:36:18Z</time>
      </trkpt>
      <trkpt lat="52.459240000" lon="13.473320000">
        <ele>24</ele>
        <time>2025-08-16T14:36:23Z</time>
      </trkpt>
      <trkpt lat="52.459230000" lon="13.473420000">
        <ele>24</ele>
        <time>2025-08-16T14:36:29Z</time>
      </trkpt>
      <trkpt lat="52.459230000" lon="13.473520000">
        <ele>24</ele>
        <time>2025-08-16T14:36:34Z</time>
      </trkpt>
      <trkpt lat="52.459230000" lon="13.473610000">
        <ele>24</ele>
        <time>2025-08-16T14:36:38Z</time>
      </trkpt>
      <trkpt lat="52.459230000" lon="13.473690000">
        <ele>24</ele>
        <time>2025-08-16T14:36:42Z</time>
      </trkpt>
      <trkpt lat="52.459230000" lon="13.473760000">
        <ele>23</ele>
        <time>2025-08-16T14:36:45Z</time>
      </trkpt>
      <trkpt lat="52.459220000" lon="13.473850000">
        <ele>23</ele>
        <time>2025-08-16T14:36:49Z</time>
      </trkpt>
      <trkpt lat="52.459210000" lon="13.473930000">
        <ele>23</ele>
        <time>2025-08-16T14:36:53Z</time>
      </trkpt>
      <trkpt lat="52.459210000" lon="13.474030000">
        <ele>23</ele>
        <time>2025-08-16T14:36:57Z</time>
      </trkpt>
      <trkpt lat="52.459200000" lon="13.474120000">
        <ele>24</ele>
        <time>2025-08-16T14:37:01Z</time>
      </trkpt>
      <trkpt lat="52.459210000" lon="13.474200000">
        <ele>24</ele>
        <time>2025-08-16T14:37:05Z</time>
      </trkpt>
      <trkpt lat="52.459200000" lon="13.474280000">
        <ele>24</ele>
        <time>2025-08-16T14:37:09Z</time>
      </trkpt>
      <trkpt lat="52.459200000" lon="13.474360000">
        <ele>24</ele>
        <time>2025-08-16T14:37:13Z</time>
      </trkpt>
      <trkpt lat="52.459200000" lon="13.474450000">
        <ele>23</ele>
        <time>2025-08-16T14:37:18Z</time>
      </trkpt>
      <trkpt lat="52.459200000" lon="13.474540000">
        <ele>23</ele>
        <time>2025-08-16T14:37:22Z</time>
      </trkpt>
      <trkpt lat="52.459200000" lon="13.474620000">
        <ele>23</ele>
        <time>2025-08-16T14:37:27Z</time>
      </trkpt>
      <trkpt lat="52.459200000" lon="13.474700000">
        <ele>23</ele>
        <time>2025-08-16T14:37:31Z</time>
      </trkpt>
      <trkpt lat="52.459180000" lon="13.474780000">
        <ele>23</ele>
        <time>2025-08-16T14:37:34Z</time>
      </trkpt>
      <trkpt lat="52.459170000" lon="13.474860000">
        <ele>23</ele>
        <time>2025-08-16T14:37:38Z</time>
      </trkpt>
      <trkpt lat="52.459170000" lon="13.474950000">
        <ele>23</ele>
        <time>2025-08-16T14:37:42Z</time>
      </trkpt>
      <trkpt lat="52.459170000" lon="13.475030000">
        <ele>23</ele>
        <time>2025-08-16T14:37:46Z</time>
      </trkpt>
      <trkpt lat="52.459180000" lon="13.475110000">
        <ele>23</ele>
        <time>2025-08-16T14:37:50Z</time>
      </trkpt>
      <trkpt lat="52.459180000" lon="13.475190000">
        <ele>23</ele>
        <time>2025-08-16T14:37:55Z</time>
      </trkpt>
      <trkpt lat="52.459200000" lon="13.475250000">
        <ele>23</ele>
        <time>2025-08-16T14:38:14Z</time>
      </trkpt>
    
      <trkpt lat="52.459210000" lon="13.475250000">
        <ele>23</ele>
        <time>2025-08-16T14:38:21Z</time>
      </trkpt>
      <trkpt lat="52.459260000" lon="13.475290000">
        <ele>24</ele>
        <time>2025-08-16T14:38:26Z</time>
      </trkpt>
      <trkpt lat="52.459280000" lon="13.475350000">
        <ele>24</ele>
        <time>2025-08-16T14:38:30Z</time>
      </trkpt>
      <trkpt lat="52.459290000" lon="13.475430000">
        <ele>24</ele>
        <time>2025-08-16T14:38:35Z</time>
      </trkpt>
      <trkpt lat="52.459280000" lon="13.475520000">
        <ele>24</ele>
        <time>2025-08-16T14:38:40Z</time>
      </trkpt>
      <trkpt lat="52.459270000" lon="13.475610000">
        <ele>23</ele>
        <time>2025-08-16T14:38:45Z</time>
      </trkpt>
      <trkpt lat="52.459260000" lon="13.475690000">
        <ele>23</ele>
        <time>2025-08-16T14:38:49Z</time>
      </trkpt>
      <trkpt lat="52.459250000" lon="13.475760000">
        <ele>23</ele>
        <time>2025-08-16T14:38:53Z</time>
      </trkpt>
      <trkpt lat="52.459230000" lon="13.475860000">
        <ele>23</ele>
        <time>2025-08-16T14:38:58Z</time>
      </trkpt>
      <trkpt lat="52.459220000" lon="13.475940000">
        <ele>23</ele>
        <time>2025-08-16T14:39:02Z</time>
      </trkpt>
      <trkpt lat="52.459210000" lon="13.476010000">
        <ele>23</ele>
        <time>2025-08-16T14:39:07Z</time>
      </trkpt>
      <trkpt lat="52.459200000" lon="13.476100000">
        <ele>23</ele>
        <time>2025-08-16T14:39:11Z</time>
      </trkpt>
      <trkpt lat="52.459200000" lon="13.476180000">
        <ele>23</ele>
        <time>2025-08-16T14:39:15Z</time>
      </trkpt>
      <trkpt lat="52.459190000" lon="13.476270000">
        <ele>23</ele>
        <time>2025-08-16T14:39:19Z</time>
      </trkpt>
      <trkpt lat="52.459180000" lon="13.476350000">
        <ele>23</ele>
        <time>2025-08-16T14:39:22Z</time>
      </trkpt>
      <trkpt lat="52.459160000" lon="13.476440000">
        <ele>23</ele>
        <time>2025-08-16T14:39:27Z</time>
      </trkpt>
      <trkpt lat="52.459160000" lon="13.476510000">
        <ele>23</ele>
        <time>2025-08-16T14:39:31Z</time>
      </trkpt>
      <trkpt lat="52.459150000" lon="13.476590000">
        <ele>24</ele>
        <time>2025-08-16T14:39:36Z</time>
      </trkpt>
      <trkpt lat="52.459150000" lon="13.476680000">
        <ele>24</ele>
        <time>2025-08-16T14:39:40Z</time>
      </trkpt>
      <trkpt lat="52.459140000" lon="13.476760000">
        <ele>24</ele>
        <time>2025-08-16T14:39:44Z</time>
      </trkpt>
      <trkpt lat="52.459140000" lon="13.476830000">
        <ele>24</ele>
        <time>2025-08-16T14:39:48Z</time>
      </trkpt>
      <trkpt lat="52.459130000" lon="13.476920000">
        <ele>24</ele>
        <time>2025-08-16T14:39:52Z</time>
      </trkpt>
      <trkpt lat="52.459130000" lon="13.477000000">
        <ele>24</ele>
        <time>2025-08-16T14:39:56Z</time>
      </trkpt>
      <trkpt lat="52.459130000" lon="13.477100000">
        <ele>24</ele>
        <time>2025-08-16T14:40:00Z</time>
      </trkpt>
      <trkpt lat="52.459120000" lon="13.477180000">
        <ele>24</ele>
        <time>2025-08-16T14:40:05Z</time>
      </trkpt>
      <trkpt lat="52.459120000" lon="13.477250000">
        <ele>23</ele>
        <time>2025-08-16T14:40:09Z</time>
      </trkpt>
      <trkpt lat="52.459120000" lon="13.477340000">
        <ele>23</ele>
        <time>2025-08-16T14:40:14Z</time>
      </trkpt>
      <trkpt lat="52.459130000" lon="13.477420000">
        <ele>23</ele>
        <time>2025-08-16T14:40:18Z</time>
      </trkpt>
      <trkpt lat="52.459120000" lon="13.477500000">
        <ele>23</ele>
        <time>2025-08-16T14:40:22Z</time>
      </trkpt>
      <trkpt lat="52.459090000" lon="13.477580000">
        <ele>23</ele>
        <time>2025-08-16T14:40:26Z</time>
      </trkpt>
      <trkpt lat="52.459090000" lon="13.477660000">
        <ele>23</ele>
        <time>2025-08-16T14:40:30Z</time>
      </trkpt>
      <trkpt lat="52.459080000" lon="13.477740000">
        <ele>23</ele>
        <time>2025-08-16T14:40:34Z</time>
      </trkpt>
      <trkpt lat="52.459070000" lon="13.477820000">
        <ele>23</ele>
        <time>2025-08-16T14:40:37Z</time>
      </trkpt>
      <trkpt lat="52.459060000" lon="13.477900000">
        <ele>23</ele>
        <time>2025-08-16T14:40:41Z</time>
      </trkpt>
      <trkpt lat="52.459060000" lon="13.477980000">
        <ele>23</ele>
        <time>2025-08-16T14:40:45Z</time>
      </trkpt>
      <trkpt lat="52.459050000" lon="13.478070000">
        <ele>23</ele>
        <time>2025-08-16T14:40:50Z</time>
      </trkpt>
      <trkpt lat="52.459050000" lon="13.478160000">
        <ele>23</ele>
        <time>2025-08-16T14:40:55Z</time>
      </trkpt>
      <trkpt lat="52.459050000" lon="13.478230000">
        <ele>23</ele>
        <time>2025-08-16T14:40:58Z</time>
      </trkpt>
      <trkpt lat="52.459050000" lon="13.478320000">
        <ele>23</ele>
        <time>2025-08-16T14:41:03Z</time>
      </trkpt>
      <trkpt lat="52.459040000" lon="13.478400000">
        <ele>23</ele>
        <time>2025-08-16T14:41:07Z</time>
      </trkpt>
      <trkpt lat="52.459030000" lon="13.478480000">
        <ele>23</ele>
        <time>2025-08-16T14:41:11Z</time>
      </trkpt>
      <trkpt lat="52.459030000" lon="13.478560000">
        <ele>23</ele>
        <time>2025-08-16T14:41:15Z</time>
      </trkpt>
      <trkpt lat="52.459020000" lon="13.478640000">
        <ele>23</ele>
        <time>2025-08-16T14:41:19Z</time>
      </trkpt>
      <trkpt lat="52.459020000" lon="13.478710000">
        <ele>23</ele>
        <time>2025-08-16T14:41:25Z</time>
      </trkpt>
      <trkpt lat="52.459010000" lon="13.478790000">
        <ele>23</ele>
        <time>2025-08-16T14:41:30Z</time>
      </trkpt>
      <trkpt lat="52.459010000" lon="13.478870000">
        <ele>23</ele>
        <time>2025-08-16T14:41:36Z</time>
      </trkpt>
      <trkpt lat="52.459010000" lon="13.478950000">
        <ele>23</ele>
        <time>2025-08-16T14:41:45Z</time>
      </trkpt>
      <trkpt lat="52.459020000" lon="13.479030000">
        <ele>23</ele>
        <time>2025-08-16T14:41:50Z</time>
      </trkpt>
      <trkpt lat="52.459020000" lon="13.479160000">
        <ele>23</ele>
        <time>2025-08-16T14:41:56Z</time>
      </trkpt>
      <trkpt lat="52.459000000" lon="13.479240000">
        <ele>23</ele>
        <time>2025-08-16T14:41:59Z</time>
      </trkpt>
      <trkpt lat="52.459010000" lon="13.479310000">
        <ele>23</ele>
        <time>2025-08-16T14:42:02Z</time>
      </trkpt>
      <trkpt lat="52.459030000" lon="13.479390000">
        <ele>23</ele>
        <time>2025-08-16T14:42:06Z</time>
      </trkpt>
      <trkpt lat="52.459050000" lon="13.479470000">
        <ele>23</ele>
        <time>2025-08-16T14:42:11Z</time>
      </trkpt>
      <trkpt lat="52.459060000" lon="13.479540000">
        <ele>23</ele>
        <time>2025-08-16T14:42:15Z</time>
      </trkpt>
      <trkpt lat="52.459080000" lon="13.479610000">
        <ele>23</ele>
        <time>2025-08-16T14:42:19Z</time>
      </trkpt>
      <trkpt lat="52.459080000" lon="13.479700000">
        <ele>23</ele>
        <time>2025-08-16T14:42:23Z</time>
      </trkpt>
      <trkpt lat="52.459070000" lon="13.479770000">
        <ele>23</ele>
        <time>2025-08-16T14:42:27Z</time>
      </trkpt>
      <trkpt lat="52.459060000" lon="13.479860000">
        <ele>23</ele>
        <time>2025-08-16T14:42:32Z</time>
      </trkpt>
      <trkpt lat="52.459070000" lon="13.479940000">
        <ele>23</ele>
        <time>2025-08-16T14:42:37Z</time>
      </trkpt>
      <trkpt lat="52.459070000" lon="13.480030000">
        <ele>23</ele>
        <time>2025-08-16T14:42:42Z</time>
      </trkpt>
      <trkpt lat="52.459080000" lon="13.480110000">
        <ele>23</ele>
        <time>2025-08-16T14:42:47Z</time>
      </trkpt>
      <trkpt lat="52.459080000" lon="13.480200000">
        <ele>23</ele>
        <time>2025-08-16T14:42:51Z</time>
      </trkpt>
      <trkpt lat="52.459090000" lon="13.480280000">
        <ele>23</ele>
        <time>2025-08-16T14:42:56Z</time>
      </trkpt>
      <trkpt lat="52.459080000" lon="13.480370000">
        <ele>23</ele>
        <time>2025-08-16T14:43:00Z</time>
      </trkpt>
      <trkpt lat="52.459070000" lon="13.480440000">
        <ele>23</ele>
        <time>2025-08-16T14:43:05Z</time>
      </trkpt>
      <trkpt lat="52.459070000" lon="13.480520000">
        <ele>23</ele>
        <time>2025-08-16T14:43:09Z</time>
      </trkpt>
      <trkpt lat="52.459080000" lon="13.480600000">
        <ele>23</ele>
        <time>2025-08-16T14:43:13Z</time>
      </trkpt>
      <trkpt lat="52.459090000" lon="13.480680000">
        <ele>23</ele>
        <time>2025-08-16T14:43:18Z</time>
      </trkpt>
      <trkpt lat="52.459090000" lon="13.480770000">
        <ele>23</ele>
        <time>2025-08-16T14:43:23Z</time>
      </trkpt>
      <trkpt lat="52.459100000" lon="13.480850000">
        <ele>23</ele>
        <time>2025-08-16T14:43:28Z</time>
      </trkpt>
      <trkpt lat="52.459100000" lon="13.480940000">
        <ele>23</ele>
        <time>2025-08-16T14:43:33Z</time>
      </trkpt>
      <trkpt lat="52.459110000" lon="13.481040000">
        <ele>23</ele>
        <time>2025-08-16T14:43:38Z</time>
      </trkpt>
      <trkpt lat="52.459110000" lon="13.481130000">
        <ele>23</ele>
        <time>2025-08-16T14:43:42Z</time>
      </trkpt>
      <trkpt lat="52.459120000" lon="13.481210000">
        <ele>23</ele>
        <time>2025-08-16T14:43:46Z</time>
      </trkpt>
      <trkpt lat="52.459130000" lon="13.481280000">
        <ele>23</ele>
        <time>2025-08-16T14:43:50Z</time>
      </trkpt>
      <trkpt lat="52.459140000" lon="13.481370000">
        <ele>23</ele>
        <time>2025-08-16T14:43:56Z</time>
      </trkpt>
      <trkpt lat="52.459160000" lon="13.481440000">
        <ele>23</ele>
        <time>2025-08-16T14:44:01Z</time>
      </trkpt>
      <trkpt lat="52.459170000" lon="13.481520000">
        <ele>23</ele>
        <time>2025-08-16T14:44:06Z</time>
      </trkpt>
      <trkpt lat="52.459190000" lon="13.481590000">
        <ele>23</ele>
        <time>2025-08-16T14:44:10Z</time>
      </trkpt>
      <trkpt lat="52.459220000" lon="13.481660000">
        <ele>23</ele>
        <time>2025-08-16T14:44:14Z</time>
      </trkpt>
      <trkpt lat="52.459230000" lon="13.481740000">
        <ele>23</ele>
        <time>2025-08-16T14:44:18Z</time>
      </trkpt>
      <trkpt lat="52.459250000" lon="13.481830000">
        <ele>23</ele>
        <time>2025-08-16T14:44:22Z</time>
      </trkpt>
      <trkpt lat="52.459250000" lon="13.481910000">
        <ele>23</ele>
        <time>2025-08-16T14:44:27Z</time>
      </trkpt>
      <trkpt lat="52.459270000" lon="13.481990000">
        <ele>23</ele>
        <time>2025-08-16T14:44:36Z</time>
      </trkpt>
      <trkpt lat="52.459280000" lon="13.482060000">
        <ele>23</ele>
        <time>2025-08-16T14:44:47Z</time>
      </trkpt>
      <trkpt lat="52.459300000" lon="13.482140000">
        <ele>24</ele>
        <time>2025-08-16T14:44:52Z</time>
      </trkpt>
      <trkpt lat="52.459310000" lon="13.482220000">
        <ele>24</ele>
        <time>2025-08-16T14:44:57Z</time>
      </trkpt>
      <trkpt lat="52.459320000" lon="13.482310000">
        <ele>24</ele>
        <time>2025-08-16T14:45:02Z</time>
      </trkpt>
      <trkpt lat="52.459330000" lon="13.482390000">
        <ele>24</ele>
        <time>2025-08-16T14:45:07Z</time>
      </trkpt>
      <trkpt lat="52.459340000" lon="13.482460000">
        <ele>24</ele>
        <time>2025-08-16T14:45:12Z</time>
      </trkpt>
      <trkpt lat="52.459350000" lon="13.482550000">
        <ele>24</ele>
        <time>2025-08-16T14:45:17Z</time>
      </trkpt>
      <trkpt lat="52.459350000" lon="13.482630000">
        <ele>24</ele>
        <time>2025-08-16T14:45:21Z</time>
      </trkpt>
      <trkpt lat="52.459360000" lon="13.482720000">
        <ele>24</ele>
        <time>2025-08-16T14:45:26Z</time>
      </trkpt>
      <trkpt lat="52.459370000" lon="13.482800000">
        <ele>23</ele>
        <time>2025-08-16T14:45:31Z</time>
      </trkpt>
      <trkpt lat="52.459380000" lon="13.482890000">
        <ele>23</ele>
        <time>2025-08-16T14:45:36Z</time>
      </trkpt>
      <trkpt lat="52.459390000" lon="13.482970000">
        <ele>23</ele>
        <time>2025-08-16T14:45:41Z</time>
      </trkpt>
      <trkpt lat="52.459400000" lon="13.483040000">
        <ele>23</ele>
        <time>2025-08-16T14:45:52Z</time>
      </trkpt>
      <trkpt lat="52.459420000" lon="13.483120000">
        <ele>23</ele>
        <time>2025-08-16T14:45:57Z</time>
      </trkpt>
      <trkpt lat="52.459440000" lon="13.483210000">
        <ele>23</ele>
        <time>2025-08-16T14:46:02Z</time>
      </trkpt>
      <trkpt lat="52.459450000" lon="13.483280000">
        <ele>23</ele>
        <time>2025-08-16T14:46:06Z</time>
      </trkpt>
      <trkpt lat="52.459470000" lon="13.483360000">
        <ele>23</ele>
        <time>2025-08-16T14:46:10Z</time>
      </trkpt>
      <trkpt lat="52.459470000" lon="13.483430000">
        <ele>23</ele>
        <time>2025-08-16T14:46:14Z</time>
      </trkpt>
      <trkpt lat="52.459490000" lon="13.483510000">
        <ele>23</ele>
        <time>2025-08-16T14:46:18Z</time>
      </trkpt>
      <trkpt lat="52.459500000" lon="13.483600000">
        <ele>23</ele>
        <time>2025-08-16T14:46:22Z</time>
      </trkpt>
      <trkpt lat="52.459510000" lon="13.483680000">
        <ele>23</ele>
        <time>2025-08-16T14:46:26Z</time>
      </trkpt>
      <trkpt lat="52.459520000" lon="13.483760000">
        <ele>23</ele>
        <time>2025-08-16T14:46:30Z</time>
      </trkpt>
      <trkpt lat="52.459540000" lon="13.483840000">
        <ele>23</ele>
        <time>2025-08-16T14:46:34Z</time>
      </trkpt>
      <trkpt lat="52.459540000" lon="13.483920000">
        <ele>23</ele>
        <time>2025-08-16T14:46:39Z</time>
      </trkpt>
      <trkpt lat="52.459560000" lon="13.483990000">
        <ele>23</ele>
        <time>2025-08-16T14:46:42Z</time>
      </trkpt>
      <trkpt lat="52.459570000" lon="13.484070000">
        <ele>23</ele>
        <time>2025-08-16T14:46:46Z</time>
      </trkpt>
      <trkpt lat="52.459590000" lon="13.484170000">
        <ele>23</ele>
        <time>2025-08-16T14:46:50Z</time>
      </trkpt>
      <trkpt lat="52.459590000" lon="13.484240000">
        <ele>23</ele>
        <time>2025-08-16T14:46:54Z</time>
      </trkpt>
      <trkpt lat="52.459610000" lon="13.484320000">
        <ele>23</ele>
        <time>2025-08-16T14:47:00Z</time>
      </trkpt>
      <trkpt lat="52.459620000" lon="13.484400000">
        <ele>23</ele>
        <time>2025-08-16T14:47:04Z</time>
      </trkpt>
      <trkpt lat="52.459630000" lon="13.484480000">
        <ele>23</ele>
        <time>2025-08-16T14:47:10Z</time>
      </trkpt>
      <trkpt lat="52.459640000" lon="13.484560000">
        <ele>23</ele>
        <time>2025-08-16T14:47:15Z</time>
      </trkpt>
      <trkpt lat="52.459650000" lon="13.484640000">
        <ele>23</ele>
        <time>2025-08-16T14:47:19Z</time>
      </trkpt>
      <trkpt lat="52.459670000" lon="13.484710000">
        <ele>22</ele>
        <time>2025-08-16T14:47:24Z</time>
      </trkpt>
      <trkpt lat="52.459680000" lon="13.484780000">
        <ele>22</ele>
        <time>2025-08-16T14:47:30Z</time>
      </trkpt>
      <trkpt lat="52.459700000" lon="13.484860000">
        <ele>22</ele>
        <time>2025-08-16T14:47:35Z</time>
      </trkpt>
      <trkpt lat="52.459730000" lon="13.484950000">
        <ele>22</ele>
        <time>2025-08-16T14:47:39Z</time>
      </trkpt>
      <trkpt lat="52.459760000" lon="13.485020000">
        <ele>22</ele>
        <time>2025-08-16T14:47:44Z</time>
      </trkpt>
     


      <trkpt lat="52.459800000" lon="13.485170000">
        <ele>33</ele>
        <time>2026-08-18T15:59:19Z</time>
      </trkpt>
      <trkpt lat="52.459840000" lon="13.485130000">
        <ele>33</ele>
        <time>2026-08-18T15:59:28Z</time>
      </trkpt>
      <trkpt lat="52.459890000" lon="13.485100000">
        <ele>38</ele>
        <time>2026-08-18T15:59:57Z</time>
      </trkpt>
      <trkpt lat="52.459890000" lon="13.485190000">
        <ele>38</ele>
        <time>2026-08-18T16:00:03Z</time>
      </trkpt>
      <trkpt lat="52.459870000" lon="13.485270000">
        <ele>38</ele>
        <time>2026-08-18T16:00:07Z</time>
      </trkpt>
      <trkpt lat="52.459840000" lon="13.485350000">
        <ele>39</ele>
        <time>2026-08-18T16:00:11Z</time>
      </trkpt>
      <trkpt lat="52.459820000" lon="13.485430000">
        <ele>39</ele>
        <time>2026-08-18T16:00:15Z</time>
      </trkpt>
      <trkpt lat="52.459810000" lon="13.485500000">
        <ele>39</ele>
        <time>2026-08-18T16:00:18Z</time>
      </trkpt>
      <trkpt lat="52.459790000" lon="13.485590000">
        <ele>39</ele>
        <time>2026-08-18T16:00:23Z</time>
      </trkpt>
      <trkpt lat="52.459770000" lon="13.485670000">
        <ele>39</ele>
        <time>2026-08-18T16:00:27Z</time>
      </trkpt>
      <trkpt lat="52.459750000" lon="13.485750000">
        <ele>39</ele>
        <time>2026-08-18T16:00:31Z</time>
      </trkpt>
      <trkpt lat="52.459730000" lon="13.485820000">
        <ele>39</ele>
        <time>2026-08-18T16:00:35Z</time>
      </trkpt>
      <trkpt lat="52.459710000" lon="13.485910000">
        <ele>39</ele>
        <time>2026-08-18T16:00:39Z</time>
      </trkpt>
      <trkpt lat="52.459680000" lon="13.485980000">
        <ele>39</ele>
        <time>2026-08-18T16:00:43Z</time>
      </trkpt>
      <trkpt lat="52.459660000" lon="13.486060000">
        <ele>39</ele>
        <time>2026-08-18T16:00:47Z</time>
      </trkpt>
      <trkpt lat="52.459640000" lon="13.486140000">
        <ele>39</ele>
        <time>2026-08-18T16:00:51Z</time>
      </trkpt>
      <trkpt lat="52.459610000" lon="13.486220000">
        <ele>39</ele>
        <time>2026-08-18T16:00:55Z</time>
      </trkpt>
      <trkpt lat="52.459590000" lon="13.486310000">
        <ele>39</ele>
        <time>2026-08-18T16:00:59Z</time>
      </trkpt>
      <trkpt lat="52.459570000" lon="13.486370000">
        <ele>39</ele>
        <time>2026-08-18T16:01:03Z</time>
      </trkpt>
      <trkpt lat="52.459540000" lon="13.486450000">
        <ele>39</ele>
        <time>2026-08-18T16:01:07Z</time>
      </trkpt>
      <trkpt lat="52.459520000" lon="13.486520000">
        <ele>39</ele>
        <time>2026-08-18T16:01:10Z</time>
      </trkpt>
      <trkpt lat="52.459500000" lon="13.486610000">
        <ele>38</ele>
        <time>2026-08-18T16:01:14Z</time>
      </trkpt>
      <trkpt lat="52.459480000" lon="13.486690000">
        <ele>38</ele>
        <time>2026-08-18T16:01:17Z</time>
      </trkpt>
      <trkpt lat="52.459450000" lon="13.486760000">
        <ele>38</ele>
        <time>2026-08-18T16:01:20Z</time>
      </trkpt>
      <trkpt lat="52.459440000" lon="13.486830000">
        <ele>38</ele>
        <time>2026-08-18T16:01:23Z</time>
      </trkpt>
      <trkpt lat="52.459420000" lon="13.486900000">
        <ele>38</ele>
        <time>2026-08-18T16:01:26Z</time>
      </trkpt>
      <trkpt lat="52.459400000" lon="13.486960000">
        <ele>38</ele>
        <time>2026-08-18T16:01:29Z</time>
      </trkpt>
      <trkpt lat="52.459380000" lon="13.487030000">
        <ele>37</ele>
        <time>2026-08-18T16:01:33Z</time>
      </trkpt>
      <trkpt lat="52.459350000" lon="13.486970000">
        <ele>37</ele>
        <time>2026-08-18T16:01:39Z</time>
      </trkpt>
      <trkpt lat="52.459350000" lon="13.486890000">
        <ele>37</ele>
        <time>2026-08-18T16:01:42Z</time>
      </trkpt>
      <trkpt lat="52.459360000" lon="13.486800000">
        <ele>36</ele>
        <time>2026-08-18T16:01:46Z</time>
      </trkpt>
      <trkpt lat="52.459360000" lon="13.486710000">
        <ele>36</ele>
        <time>2026-08-18T16:01:50Z</time>
      </trkpt>
      <trkpt lat="52.459370000" lon="13.486620000">
        <ele>35</ele>
        <time>2026-08-18T16:01:54Z</time>
      </trkpt>
      <trkpt lat="52.459380000" lon="13.486540000">
        <ele>34</ele>
        <time>2026-08-18T16:01:58Z</time>
      </trkpt>
      <trkpt lat="52.459420000" lon="13.486490000">
        <ele>34</ele>
        <time>2026-08-18T16:02:02Z</time>
      </trkpt>
      <trkpt lat="52.459430000" lon="13.486410000">
        <ele>34</ele>
        <time>2026-08-18T16:02:06Z</time>
      </trkpt>
      <trkpt lat="52.459450000" lon="13.486340000">
        <ele>34</ele>
        <time>2026-08-18T16:02:10Z</time>
      </trkpt>
      <trkpt lat="52.459480000" lon="13.486270000">
        <ele>34</ele>
        <time>2026-08-18T16:02:15Z</time>
      </trkpt>
      <trkpt lat="52.459780000" lon="13.486280000">
        <ele>33</ele>
        <time>2026-08-18T16:02:40Z</time>
      </trkpt>
      <trkpt lat="52.459790000" lon="13.486370000">
        <ele>33</ele>
        <time>2026-08-18T16:02:43Z</time>
      </trkpt>
      <trkpt lat="52.459790000" lon="13.486450000">
        <ele>33</ele>
        <time>2026-08-18T16:02:45Z</time>
      </trkpt>
      <trkpt lat="52.459800000" lon="13.486540000">
        <ele>33</ele>
        <time>2026-08-18T16:02:49Z</time>
      </trkpt>
      <trkpt lat="52.459820000" lon="13.486600000">
        <ele>33</ele>
        <time>2026-08-18T16:02:54Z</time>
      </trkpt>
      <trkpt lat="52.459840000" lon="13.486680000">
        <ele>33</ele>
        <time>2026-08-18T16:02:58Z</time>
      </trkpt>
      <trkpt lat="52.459880000" lon="13.486750000">
        <ele>33</ele>
        <time>2026-08-18T16:03:02Z</time>
      </trkpt>
      <trkpt lat="52.459910000" lon="13.486820000">
        <ele>33</ele>
        <time>2026-08-18T16:03:06Z</time>
      </trkpt>
      <trkpt lat="52.459950000" lon="13.486890000">
        <ele>33</ele>
        <time>2026-08-18T16:03:10Z</time>
      </trkpt>
      <trkpt lat="52.459970000" lon="13.486960000">
        <ele>33</ele>
        <time>2026-08-18T16:03:13Z</time>
      </trkpt>
      <trkpt lat="52.459990000" lon="13.487040000">
        <ele>33</ele>
        <time>2026-08-18T16:03:18Z</time>
      </trkpt>
      <trkpt lat="52.460010000" lon="13.487110000">
        <ele>33</ele>
        <time>2026-08-18T16:03:21Z</time>
      </trkpt>
      <trkpt lat="52.460040000" lon="13.487170000">
        <ele>33</ele>
        <time>2026-08-18T16:03:24Z</time>
      </trkpt>
      <trkpt lat="52.460060000" lon="13.487240000">
        <ele>33</ele>
        <time>2026-08-18T16:03:27Z</time>
      </trkpt>
      <trkpt lat="52.460090000" lon="13.487300000">
        <ele>33</ele>
        <time>2026-08-18T16:03:31Z</time>
      </trkpt>
      <trkpt lat="52.460120000" lon="13.487390000">
        <ele>33</ele>
        <time>2026-08-18T16:03:35Z</time>
      </trkpt>
      <trkpt lat="52.460150000" lon="13.487460000">
        <ele>33</ele>
        <time>2026-08-18T16:03:39Z</time>
      </trkpt>
      <trkpt lat="52.460170000" lon="13.487540000">
        <ele>33</ele>
        <time>2026-08-18T16:03:42Z</time>
      </trkpt>
      <trkpt lat="52.460190000" lon="13.487610000">
        <ele>33</ele>
        <time>2026-08-18T16:03:46Z</time>
      </trkpt>
      <trkpt lat="52.460210000" lon="13.487690000">
        <ele>33</ele>
        <time>2026-08-18T16:03:50Z</time>
      </trkpt>
      <trkpt lat="52.460240000" lon="13.487740000">
        <ele>33</ele>
        <time>2026-08-18T16:03:53Z</time>
      </trkpt>
      <trkpt lat="52.460270000" lon="13.487810000">
        <ele>34</ele>
        <time>2026-08-18T16:03:57Z</time>
      </trkpt>
      <trkpt lat="52.460290000" lon="13.487880000">
        <ele>33</ele>
        <time>2026-08-18T16:04:02Z</time>
      </trkpt>
      <trkpt lat="52.460330000" lon="13.487950000">
        <ele>33</ele>
        <time>2026-08-18T16:04:07Z</time>
      </trkpt>
      <trkpt lat="52.460350000" lon="13.488030000">
        <ele>34</ele>
        <time>2026-08-18T16:04:11Z</time>
      </trkpt>
      <trkpt lat="52.460380000" lon="13.488100000">
        <ele>34</ele>
        <time>2026-08-18T16:04:15Z</time>
      </trkpt>
      <trkpt lat="52.460410000" lon="13.488170000">
        <ele>34</ele>
        <time>2026-08-18T16:04:20Z</time>
      </trkpt>
      <trkpt lat="52.460440000" lon="13.488220000">
        <ele>34</ele>
        <time>2026-08-18T16:04:24Z</time>
      </trkpt>
      <trkpt lat="52.460480000" lon="13.488290000">
        <ele>34</ele>
        <time>2026-08-18T16:04:28Z</time>
      </trkpt>
      <trkpt lat="52.460510000" lon="13.488360000">
        <ele>34</ele>
        <time>2026-08-18T16:04:33Z</time>
      </trkpt>
      <trkpt lat="52.460540000" lon="13.488430000">
        <ele>34</ele>
        <time>2026-08-18T16:04:37Z</time>
      </trkpt>
      <trkpt lat="52.460570000" lon="13.488500000">
        <ele>34</ele>
        <time>2026-08-18T16:04:42Z</time>
      </trkpt>
      <trkpt lat="52.460600000" lon="13.488570000">
        <ele>34</ele>
        <time>2026-08-18T16:04:46Z</time>
      </trkpt>
      <trkpt lat="52.460630000" lon="13.488640000">
        <ele>34</ele>
        <time>2026-08-18T16:04:51Z</time>
      </trkpt>
      <trkpt lat="52.460660000" lon="13.488710000">
        <ele>34</ele>
        <time>2026-08-18T16:04:55Z</time>
      </trkpt>
      <trkpt lat="52.460690000" lon="13.488760000">
        <ele>34</ele>
        <time>2026-08-18T16:04:59Z</time>
      </trkpt>
      <trkpt lat="52.460720000" lon="13.488840000">
        <ele>34</ele>
        <time>2026-08-18T16:05:04Z</time>
      </trkpt>
      <trkpt lat="52.460750000" lon="13.488910000">
        <ele>34</ele>
        <time>2026-08-18T16:05:09Z</time>
      </trkpt>
      <trkpt lat="52.460780000" lon="13.488970000">
        <ele>34</ele>
        <time>2026-08-18T16:05:13Z</time>
      </trkpt>
      <trkpt lat="52.460820000" lon="13.489050000">
        <ele>34</ele>
        <time>2026-08-18T16:05:18Z</time>
      </trkpt>
      <trkpt lat="52.460850000" lon="13.489110000">
        <ele>34</ele>
        <time>2026-08-18T16:05:22Z</time>
      </trkpt>
      <trkpt lat="52.460890000" lon="13.489170000">
        <ele>34</ele>
        <time>2026-08-18T16:05:27Z</time>
      </trkpt>
      <trkpt lat="52.460920000" lon="13.489220000">
        <ele>34</ele>
        <time>2026-08-18T16:05:31Z</time>
      </trkpt>
      <trkpt lat="52.460950000" lon="13.489280000">
        <ele>34</ele>
        <time>2026-08-18T16:05:35Z</time>
      </trkpt>
      <trkpt lat="52.460990000" lon="13.489360000">
        <ele>34</ele>
        <time>2026-08-18T16:05:40Z</time>
      </trkpt>
      <trkpt lat="52.461020000" lon="13.489420000">
        <ele>34</ele>
        <time>2026-08-18T16:05:45Z</time>
      </trkpt>
      <trkpt lat="52.461060000" lon="13.489490000">
        <ele>34</ele>
        <time>2026-08-18T16:05:50Z</time>
      </trkpt>
      <trkpt lat="52.461100000" lon="13.489540000">
        <ele>34</ele>
        <time>2026-08-18T16:05:55Z</time>
      </trkpt>
      <trkpt lat="52.461120000" lon="13.489600000">
        <ele>34</ele>
        <time>2026-08-18T16:05:59Z</time>
      </trkpt>
      <trkpt lat="52.461160000" lon="13.489650000">
        <ele>34</ele>
        <time>2026-08-18T16:06:04Z</time>
      </trkpt>
      <trkpt lat="52.461200000" lon="13.489710000">
        <ele>34</ele>
        <time>2026-08-18T16:06:08Z</time>
      </trkpt>
      <trkpt lat="52.461240000" lon="13.489770000">
        <ele>34</ele>
        <time>2026-08-18T16:06:12Z</time>
      </trkpt>
      <trkpt lat="52.461270000" lon="13.489830000">
        <ele>34</ele>
        <time>2026-08-18T16:06:17Z</time>
      </trkpt>
      <trkpt lat="52.461310000" lon="13.489890000">
        <ele>34</ele>
        <time>2026-08-18T16:06:21Z</time>
      </trkpt>
      <trkpt lat="52.461340000" lon="13.489960000">
        <ele>34</ele>
        <time>2026-08-18T16:06:28Z</time>
      </trkpt>
      <trkpt lat="52.461380000" lon="13.490020000">
        <ele>34</ele>
        <time>2026-08-18T16:06:33Z</time>
      </trkpt>
      <trkpt lat="52.461420000" lon="13.490070000">
        <ele>34</ele>
        <time>2026-08-18T16:06:38Z</time>
      </trkpt>
      <trkpt lat="52.461450000" lon="13.490130000">
        <ele>35</ele>
        <time>2026-08-18T16:06:42Z</time>
      </trkpt>
      <trkpt lat="52.461480000" lon="13.490200000">
        <ele>34</ele>
        <time>2026-08-18T16:06:47Z</time>
      </trkpt>
      <trkpt lat="52.461520000" lon="13.490250000">
        <ele>34</ele>
        <time>2026-08-18T16:06:51Z</time>
      </trkpt>
      <trkpt lat="52.461560000" lon="13.490300000">
        <ele>34</ele>
        <time>2026-08-18T16:06:54Z</time>
      </trkpt>
      <trkpt lat="52.461600000" lon="13.490350000">
        <ele>34</ele>
        <time>2026-08-18T16:06:57Z</time>
      </trkpt>
      <trkpt lat="52.461640000" lon="13.490410000">
        <ele>34</ele>
        <time>2026-08-18T16:07:02Z</time>
      </trkpt>
      <trkpt lat="52.461680000" lon="13.490460000">
        <ele>34</ele>
        <time>2026-08-18T16:07:07Z</time>
      </trkpt>
      <trkpt lat="52.461710000" lon="13.490510000">
        <ele>34</ele>
        <time>2026-08-18T16:07:11Z</time>
      </trkpt>
      <trkpt lat="52.461750000" lon="13.490560000">
        <ele>34</ele>
        <time>2026-08-18T16:07:15Z</time>
      </trkpt>
      <trkpt lat="52.461790000" lon="13.490620000">
        <ele>34</ele>
        <time>2026-08-18T16:07:19Z</time>
      </trkpt>
      <trkpt lat="52.461820000" lon="13.490670000">
        <ele>34</ele>
        <time>2026-08-18T16:07:23Z</time>
      </trkpt>
      <trkpt lat="52.461860000" lon="13.490730000">
        <ele>34</ele>
        <time>2026-08-18T16:07:28Z</time>
      </trkpt>
      <trkpt lat="52.461900000" lon="13.490790000">
        <ele>34</ele>
        <time>2026-08-18T16:07:33Z</time>
      </trkpt>
      <trkpt lat="52.461950000" lon="13.490830000">
        <ele>34</ele>
        <time>2026-08-18T16:07:43Z</time>
      </trkpt>
      <trkpt lat="52.461990000" lon="13.490880000">
        <ele>34</ele>
        <time>2026-08-18T16:07:47Z</time>
      </trkpt>
      <trkpt lat="52.462030000" lon="13.490920000">
        <ele>34</ele>
        <time>2026-08-18T16:07:51Z</time>
      </trkpt>
      <trkpt lat="52.462070000" lon="13.490980000">
        <ele>34</ele>
        <time>2026-08-18T16:07:54Z</time>
      </trkpt>
      <trkpt lat="52.462100000" lon="13.491030000">
        <ele>34</ele>
        <time>2026-08-18T16:07:57Z</time>
      </trkpt>
      <trkpt lat="52.462150000" lon="13.491060000">
        <ele>34</ele>
        <time>2026-08-18T16:08:03Z</time>
      </trkpt>
      <trkpt lat="52.462200000" lon="13.491100000">
        <ele>34</ele>
        <time>2026-08-18T16:08:07Z</time>
      </trkpt>
      <trkpt lat="52.462240000" lon="13.491070000">
        <ele>34</ele>
        <time>2026-08-18T16:08:21Z</time>
      </trkpt>
      <trkpt lat="52.462290000" lon="13.491130000">
        <ele>34</ele>
        <time>2026-08-18T16:08:24Z</time>
      </trkpt>
      <trkpt lat="52.462330000" lon="13.491190000">
        <ele>34</ele>
        <time>2026-08-18T16:08:27Z</time>
      </trkpt>
      <trkpt lat="52.462380000" lon="13.491250000">
        <ele>34</ele>
        <time>2026-08-18T16:08:34Z</time>
      </trkpt>
      <trkpt lat="52.462430000" lon="13.491280000">
        <ele>34</ele>
        <time>2026-08-18T16:08:38Z</time>
      </trkpt>
      <trkpt lat="52.462660000" lon="13.491410000">
        <ele>34</ele>
        <time>2026-08-18T16:08:51Z</time>
      </trkpt>
      <trkpt lat="52.462620000" lon="13.491510000">
        <ele>34</ele>
        <time>2026-08-18T16:08:55Z</time>
      </trkpt>
      <trkpt lat="52.462590000" lon="13.491570000">
        <ele>34</ele>
        <time>2026-08-18T16:08:57Z</time>
      </trkpt>
      <trkpt lat="52.462550000" lon="13.491610000">
        <ele>35</ele>
        <time>2026-08-18T16:09:00Z</time>
      </trkpt>
      <trkpt lat="52.462510000" lon="13.491650000">
        <ele>36</ele>
        <time>2026-08-18T16:09:04Z</time>
      </trkpt>
      <trkpt lat="52.462460000" lon="13.491680000">
        <ele>37</ele>
        <time>2026-08-18T16:09:08Z</time>
      </trkpt>
      <trkpt lat="52.462420000" lon="13.491730000">
        <ele>37</ele>
        <time>2026-08-18T16:09:12Z</time>
      </trkpt>
      <trkpt lat="52.462430000" lon="13.491640000">
        <ele>38</ele>
        <time>2026-08-18T16:09:22Z</time>
      </trkpt>
      <trkpt lat="52.462450000" lon="13.491580000">
        <ele>38</ele>
        <time>2026-08-18T16:09:26Z</time>
      </trkpt>
      <trkpt lat="52.462490000" lon="13.491530000">
        <ele>38</ele>
        <time>2026-08-18T16:09:30Z</time>
      </trkpt>
      <trkpt lat="52.462540000" lon="13.491490000">
        <ele>38</ele>
        <time>2026-08-18T16:09:34Z</time>
      </trkpt>
      <trkpt lat="52.462570000" lon="13.491420000">
        <ele>39</ele>
        <time>2026-08-18T16:09:39Z</time>
      </trkpt>
      <trkpt lat="52.462610000" lon="13.491360000">
        <ele>39</ele>
        <time>2026-08-18T16:09:44Z</time>
      </trkpt>
      <trkpt lat="52.462640000" lon="13.491300000">
        <ele>39</ele>
        <time>2026-08-18T16:09:48Z</time>
      </trkpt>
      <trkpt lat="52.462680000" lon="13.491250000">
        <ele>39</ele>
        <time>2026-08-18T16:09:52Z</time>
      </trkpt>
      <trkpt lat="52.462730000" lon="13.491200000">
        <ele>38</ele>
        <time>2026-08-18T16:09:56Z</time>
      </trkpt>
      <trkpt lat="52.462760000" lon="13.491130000">
        <ele>38</ele>
        <time>2026-08-18T16:10:00Z</time>
      </trkpt>
      <trkpt lat="52.462790000" lon="13.491080000">
        <ele>38</ele>
        <time>2026-08-18T16:10:04Z</time>
      </trkpt>
      <trkpt lat="52.462830000" lon="13.491010000">
        <ele>38</ele>
        <time>2026-08-18T16:10:08Z</time>
      </trkpt>
      <trkpt lat="52.462880000" lon="13.490970000">
        <ele>38</ele>
        <time>2026-08-18T16:10:12Z</time>
      </trkpt>
      <trkpt lat="52.462920000" lon="13.490910000">
        <ele>38</ele>
        <time>2026-08-18T16:10:17Z</time>
      </trkpt>
      <trkpt lat="52.462960000" lon="13.490860000">
        <ele>38</ele>
        <time>2026-08-18T16:10:21Z</time>
      </trkpt>
      <trkpt lat="52.463010000" lon="13.490800000">
        <ele>38</ele>
        <time>2026-08-18T16:10:25Z</time>
      </trkpt>
      <trkpt lat="52.463050000" lon="13.490770000">
        <ele>38</ele>
        <time>2026-08-18T16:10:29Z</time>
      </trkpt>
      <trkpt lat="52.463100000" lon="13.490760000">
        <ele>37</ele>
        <time>2026-08-18T16:10:33Z</time>
      </trkpt>
      <trkpt lat="52.463130000" lon="13.490820000">
        <ele>37</ele>
        <time>2026-08-18T16:10:36Z</time>
      </trkpt>
      <trkpt lat="52.463130000" lon="13.490910000">
        <ele>37</ele>
        <time>2026-08-18T16:10:41Z</time>
      </trkpt>
      <trkpt lat="52.463140000" lon="13.491000000">
        <ele>37</ele>
        <time>2026-08-18T16:10:46Z</time>
      </trkpt>
      <trkpt lat="52.463130000" lon="13.491090000">
        <ele>36</ele>
        <time>2026-08-18T16:10:50Z</time>
      </trkpt>
      <trkpt lat="52.463100000" lon="13.491150000">
        <ele>36</ele>
        <time>2026-08-18T16:10:54Z</time>
      </trkpt>
      <trkpt lat="52.463060000" lon="13.491190000">
        <ele>36</ele>
        <time>2026-08-18T16:10:58Z</time>
      </trkpt>
      <trkpt lat="52.463010000" lon="13.491240000">
        <ele>36</ele>
        <time>2026-08-18T16:11:03Z</time>
      </trkpt>
      <trkpt lat="52.462960000" lon="13.491230000">
        <ele>36</ele>
        <time>2026-08-18T16:11:06Z</time>
      </trkpt>
      <trkpt lat="52.462910000" lon="13.491270000">
        <ele>36</ele>
        <time>2026-08-18T16:11:10Z</time>
      </trkpt>
      <trkpt lat="52.462890000" lon="13.491340000">
        <ele>36</ele>
        <time>2026-08-18T16:11:14Z</time>
      </trkpt>
      <trkpt lat="52.462860000" lon="13.491410000">
        <ele>36</ele>
        <time>2026-08-18T16:11:21Z</time>
      </trkpt>
    
  

      <trkpt lat="52.463030000" lon="13.491600000">
        <ele>22</ele>
        <time>2025-08-16T14:55:35Z</time>
      </trkpt>
      <trkpt lat="52.463070000" lon="13.491650000">
        <ele>22</ele>
        <time>2025-08-16T14:55:40Z</time>
      </trkpt>
      <trkpt lat="52.463110000" lon="13.491700000">
        <ele>22</ele>
        <time>2025-08-16T14:55:46Z</time>
      </trkpt>
      <trkpt lat="52.463150000" lon="13.491740000">
        <ele>23</ele>
        <time>2025-08-16T14:55:49Z</time>
      </trkpt>
      <trkpt lat="52.463190000" lon="13.491770000">
        <ele>23</ele>
        <time>2025-08-16T14:55:53Z</time>
      </trkpt>
      <trkpt lat="52.463230000" lon="13.491820000">
        <ele>23</ele>
        <time>2025-08-16T14:55:58Z</time>
      </trkpt>
      <trkpt lat="52.463280000" lon="13.491860000">
        <ele>23</ele>
        <time>2025-08-16T14:56:04Z</time>
      </trkpt>
      <trkpt lat="52.463320000" lon="13.491890000">
        <ele>23</ele>
        <time>2025-08-16T14:56:08Z</time>
      </trkpt>
      <trkpt lat="52.463370000" lon="13.491930000">
        <ele>23</ele>
        <time>2025-08-16T14:56:12Z</time>
      </trkpt>
      <trkpt lat="52.463400000" lon="13.491970000">
        <ele>23</ele>
        <time>2025-08-16T14:56:16Z</time>
      </trkpt>
      <trkpt lat="52.463440000" lon="13.492010000">
        <ele>23</ele>
        <time>2025-08-16T14:56:20Z</time>
      </trkpt>
      <trkpt lat="52.463480000" lon="13.492040000">
        <ele>23</ele>
        <time>2025-08-16T14:56:24Z</time>
      </trkpt>
      <trkpt lat="52.463520000" lon="13.492070000">
        <ele>23</ele>
        <time>2025-08-16T14:56:27Z</time>
      </trkpt>
      <trkpt lat="52.463570000" lon="13.492090000">
        <ele>23</ele>
        <time>2025-08-16T14:56:31Z</time>
      </trkpt>
      <trkpt lat="52.463600000" lon="13.492140000">
        <ele>23</ele>
        <time>2025-08-16T14:56:36Z</time>
      </trkpt>
      <trkpt lat="52.463630000" lon="13.492210000">
        <ele>23</ele>
        <time>2025-08-16T14:56:41Z</time>
      </trkpt>
      <trkpt lat="52.463670000" lon="13.492260000">
        <ele>23</ele>
        <time>2025-08-16T14:56:46Z</time>
      </trkpt>
      <trkpt lat="52.463720000" lon="13.492300000">
        <ele>23</ele>
        <time>2025-08-16T14:56:51Z</time>
      </trkpt>
      <trkpt lat="52.463760000" lon="13.492340000">
        <ele>23</ele>
        <time>2025-08-16T14:56:57Z</time>
      </trkpt>
      <trkpt lat="52.463800000" lon="13.492390000">
        <ele>23</ele>
        <time>2025-08-16T14:57:02Z</time>
      </trkpt>
      <trkpt lat="52.463850000" lon="13.492440000">
        <ele>23</ele>
        <time>2025-08-16T14:57:09Z</time>
      </trkpt>
      <trkpt lat="52.463890000" lon="13.492470000">
        <ele>23</ele>
        <time>2025-08-16T14:57:17Z</time>
      </trkpt>
      <trkpt lat="52.463940000" lon="13.492490000">
        <ele>23</ele>
        <time>2025-08-16T14:57:24Z</time>
      </trkpt>
      <trkpt lat="52.463980000" lon="13.492530000">
        <ele>23</ele>
        <time>2025-08-16T14:57:29Z</time>
      </trkpt>
      <trkpt lat="52.464020000" lon="13.492580000">
        <ele>23</ele>
        <time>2025-08-16T14:57:37Z</time>
      </trkpt>
      <trkpt lat="52.464070000" lon="13.492580000">
        <ele>23</ele>
        <time>2025-08-16T14:57:41Z</time>
      </trkpt>
      <trkpt lat="52.464110000" lon="13.492620000">
        <ele>23</ele>
        <time>2025-08-16T14:57:46Z</time>
      </trkpt>
      <trkpt lat="52.464160000" lon="13.492660000">
        <ele>23</ele>
        <time>2025-08-16T14:57:51Z</time>
      </trkpt>
      <trkpt lat="52.464200000" lon="13.492690000">
        <ele>23</ele>
        <time>2025-08-16T14:57:57Z</time>
      </trkpt>
      <trkpt lat="52.464240000" lon="13.492730000">
        <ele>23</ele>
        <time>2025-08-16T14:58:03Z</time>
      </trkpt>
      <trkpt lat="52.464290000" lon="13.492770000">
        <ele>23</ele>
        <time>2025-08-16T14:58:08Z</time>
      </trkpt>
      <trkpt lat="52.464330000" lon="13.492820000">
        <ele>23</ele>
        <time>2025-08-16T14:58:12Z</time>
      </trkpt>
      <trkpt lat="52.464370000" lon="13.492880000">
        <ele>23</ele>
        <time>2025-08-16T14:58:16Z</time>
      </trkpt>
      <trkpt lat="52.464410000" lon="13.492920000">
        <ele>23</ele>
        <time>2025-08-16T14:58:21Z</time>
      </trkpt>
      <trkpt lat="52.464450000" lon="13.492970000">
        <ele>23</ele>
        <time>2025-08-16T14:58:26Z</time>
      </trkpt>
      <trkpt lat="52.464500000" lon="13.493010000">
        <ele>23</ele>
        <time>2025-08-16T14:58:32Z</time>
      </trkpt>
      <trkpt lat="52.464550000" lon="13.493040000">
        <ele>23</ele>
        <time>2025-08-16T14:58:38Z</time>
      </trkpt>
      <trkpt lat="52.464600000" lon="13.493090000">
        <ele>23</ele>
        <time>2025-08-16T14:58:43Z</time>
      </trkpt>
      <trkpt lat="52.464640000" lon="13.493130000">
        <ele>23</ele>
        <time>2025-08-16T14:58:48Z</time>
      </trkpt>
      <trkpt lat="52.464690000" lon="13.493170000">
        <ele>23</ele>
        <time>2025-08-16T14:58:53Z</time>
      </trkpt>
      <trkpt lat="52.464720000" lon="13.493230000">
        <ele>23</ele>
        <time>2025-08-16T14:58:59Z</time>
      </trkpt>
      <trkpt lat="52.464760000" lon="13.493270000">
        <ele>23</ele>
        <time>2025-08-16T14:59:05Z</time>
      </trkpt>
      <trkpt lat="52.464800000" lon="13.493330000">
        <ele>23</ele>
        <time>2025-08-16T14:59:12Z</time>
      </trkpt>
      <trkpt lat="52.464830000" lon="13.493400000">
        <ele>22</ele>
        <time>2025-08-16T14:59:15Z</time>
      </trkpt>
      <trkpt lat="52.464870000" lon="13.493450000">
        <ele>22</ele>
        <time>2025-08-16T14:59:19Z</time>
      </trkpt>
      <trkpt lat="52.464910000" lon="13.493500000">
        <ele>22</ele>
        <time>2025-08-16T14:59:23Z</time>
      </trkpt>
      <trkpt lat="52.464950000" lon="13.493530000">
        <ele>22</ele>
        <time>2025-08-16T14:59:27Z</time>
      </trkpt>
      <trkpt lat="52.464990000" lon="13.493600000">
        <ele>22</ele>
        <time>2025-08-16T14:59:31Z</time>
      </trkpt>
      <trkpt lat="52.465040000" lon="13.493640000">
        <ele>22</ele>
        <time>2025-08-16T14:59:35Z</time>
      </trkpt>
      <trkpt lat="52.465080000" lon="13.493710000">
        <ele>22</ele>
        <time>2025-08-16T14:59:39Z</time>
      </trkpt>
      <trkpt lat="52.465130000" lon="13.493710000">
        <ele>22</ele>
        <time>2025-08-16T14:59:44Z</time>
      </trkpt>
      <trkpt lat="52.465170000" lon="13.493680000">
        <ele>22</ele>
        <time>2025-08-16T14:59:51Z</time>
      </trkpt>
      <trkpt lat="52.465210000" lon="13.493640000">
        <ele>22</ele>
        <time>2025-08-16T15:00:03Z</time>
      </trkpt>
      <trkpt lat="52.465260000" lon="13.493650000">
        <ele>22</ele>
        <time>2025-08-16T15:00:15Z</time>
      </trkpt>
      <trkpt lat="52.465280000" lon="13.493570000">
        <ele>22</ele>
        <time>2025-08-16T15:00:22Z</time>
      </trkpt>
      <trkpt lat="52.465340000" lon="13.493500000">
        <ele>25</ele>
        <time>2025-08-16T15:00:27Z</time>
      </trkpt>
      <trkpt lat="52.465370000" lon="13.493440000">
        <ele>25</ele>
        <time>2025-08-16T15:00:32Z</time>
      </trkpt>
      <trkpt lat="52.465410000" lon="13.493390000">
        <ele>25</ele>
        <time>2025-08-16T15:00:37Z</time>
      </trkpt>
      <trkpt lat="52.465450000" lon="13.493350000">
        <ele>25</ele>
        <time>2025-08-16T15:00:41Z</time>
      </trkpt>
      <trkpt lat="52.465500000" lon="13.493300000">
        <ele>25</ele>
        <time>2025-08-16T15:00:45Z</time>
      </trkpt>
      <trkpt lat="52.465540000" lon="13.493260000">
        <ele>25</ele>
        <time>2025-08-16T15:00:50Z</time>
      </trkpt>
      <trkpt lat="52.465590000" lon="13.493220000">
        <ele>25</ele>
        <time>2025-08-16T15:00:54Z</time>
      </trkpt>
      <trkpt lat="52.465620000" lon="13.493160000">
        <ele>25</ele>
        <time>2025-08-16T15:00:58Z</time>
      </trkpt>
      <trkpt lat="52.465640000" lon="13.493100000">
        <ele>25</ele>
        <time>2025-08-16T15:01:04Z</time>
      </trkpt>
      <trkpt lat="52.465670000" lon="13.493040000">
        <ele>25</ele>
        <time>2025-08-16T15:01:08Z</time>
      </trkpt>
      <trkpt lat="52.465700000" lon="13.492980000">
        <ele>25</ele>
        <time>2025-08-16T15:01:11Z</time>
      </trkpt>
      <trkpt lat="52.465730000" lon="13.492920000">
        <ele>25</ele>
        <time>2025-08-16T15:01:14Z</time>
      </trkpt>
      <trkpt lat="52.465760000" lon="13.492860000">
        <ele>25</ele>
        <time>2025-08-16T15:01:17Z</time>
      </trkpt>
      <trkpt lat="52.465810000" lon="13.492800000">
        <ele>25</ele>
        <time>2025-08-16T15:01:21Z</time>
      </trkpt>
      <trkpt lat="52.465850000" lon="13.492740000">
        <ele>25</ele>
        <time>2025-08-16T15:01:25Z</time>
      </trkpt>
      <trkpt lat="52.465890000" lon="13.492680000">
        <ele>25</ele>
        <time>2025-08-16T15:01:29Z</time>
      </trkpt>
      <trkpt lat="52.465930000" lon="13.492620000">
        <ele>25</ele>
        <time>2025-08-16T15:01:33Z</time>
      </trkpt>
      <trkpt lat="52.465970000" lon="13.492580000">
        <ele>25</ele>
        <time>2025-08-16T15:01:37Z</time>
      </trkpt>
      <trkpt lat="52.466000000" lon="13.492490000">
        <ele>25</ele>
        <time>2025-08-16T15:01:41Z</time>
      </trkpt>
      <trkpt lat="52.466040000" lon="13.492460000">
        <ele>25</ele>
        <time>2025-08-16T15:01:45Z</time>
      </trkpt>
      <trkpt lat="52.466100000" lon="13.492400000">
        <ele>25</ele>
        <time>2025-08-16T15:01:50Z</time>
      </trkpt>
      <trkpt lat="52.466150000" lon="13.492350000">
        <ele>25</ele>
        <time>2025-08-16T15:01:56Z</time>
      </trkpt>
      <trkpt lat="52.466190000" lon="13.492310000">
        <ele>25</ele>
        <time>2025-08-16T15:02:00Z</time>
      </trkpt>
      <trkpt lat="52.466210000" lon="13.492230000">
        <ele>25</ele>
        <time>2025-08-16T15:02:03Z</time>
      </trkpt>
      <trkpt lat="52.466250000" lon="13.492180000">
        <ele>25</ele>
        <time>2025-08-16T15:02:07Z</time>
      </trkpt>
      <trkpt lat="52.466300000" lon="13.492150000">
        <ele>25</ele>
        <time>2025-08-16T15:02:11Z</time>
      </trkpt>
     
 
      <trkpt lat="52.467510000" lon="13.490380000">
        <ele>24</ele>
        <time>2025-08-16T15:04:22Z</time>
      </trkpt>
      <trkpt lat="52.467560000" lon="13.490330000">
        <ele>23</ele>
        <time>2025-08-16T15:04:26Z</time>
      </trkpt>
      <trkpt lat="52.467590000" lon="13.490260000">
        <ele>23</ele>
        <time>2025-08-16T15:04:30Z</time>
      </trkpt>
      <trkpt lat="52.467630000" lon="13.490190000">
        <ele>23</ele>
        <time>2025-08-16T15:04:33Z</time>
      </trkpt>
      <trkpt lat="52.467670000" lon="13.490130000">
        <ele>23</ele>
        <time>2025-08-16T15:04:37Z</time>
      </trkpt>
      <trkpt lat="52.467700000" lon="13.490070000">
        <ele>23</ele>
        <time>2025-08-16T15:04:43Z</time>
      </trkpt>
    </trkseg>
  </trk>
</gpx>